[[{"header":{"parameterUnit":"m.s-1","parameterCategory":1,"la1":31.0,"la2":29.5877,"lo1":-88.7671,"lo2":-86.6584,"dy":0.0162,"dx":0.0185,"nx":115,"ny":88,"refTime":"2024-02-04T18:00:00:Z","depth":0,"parameterNumber":2,"parameterNumberName":"U-component_of_WINDS"},"data":[0.0,0.0,0.0,0.0,0.0,0.0,0.0,0.0,0.0,0.0,0.0,0.0,0.0,0.0,0.0,0.0,0.0,0.0,0.0,0.0,0.0,0.0,0.0,0.0,0.0,0.0,0.0,0.0,0.0,0.0,0.0,0.0,0.0,0.0,0.0,0.0,0.0,0.0,0.0,0.0,0.0,0.0,0.0,0.0,0.0,0.0,0.0,0.0,0.0,0.0,0.0,0.0,0.0,0.0,0.0,0.0,0.0,0.0,0.0,0.0,0.0,0.0,0.0,0.0,0.0,0.0,0.0,0.0,0.0,0.0,0.0,0.0,0.0,0.0,0.0,0.0,0.0,0.0,0.0,0.0,0.0,0.0,0.0,0.0,0.0,0.0,0.0,0.0,0.0,0.0,0.0,0.0,0.0,0.0,0.0,0.0,0.0,0.0,0.0,0.0,0.0,0.0,0.0,0.0,0.0,0.0,0.0,0.0,0.0,0.0,0.0,0.0,0.0,0.0,0.0,0.0,0.0,0.0,0.0,0.0,0.0,0.0,0.0,0.0,0.0,0.0,0.0,0.0,0.0,0.0,0.0,0.0,0.0,0.0,0.0,0.0,0.0,0.0,0.0,0.0,0.0,0.0,0.0,0.0,0.0,0.0,0.0,0.0,0.0,0.0,0.0,0.0,0.0,0.0,0.0,0.0,0.0,0.0,0.0,0.0,0.0,0.0,0.0,0.0,0.0,0.0,0.0,0.0,0.0,0.0,0.0,0.0,0.0,0.0,0.0,0.0,0.0,0.0,0.0,0.0,0.0,0.0,0.0,0.0,0.0,0.0,0.0,0.0,0.0,0.0,0.0,0.0,0.0,0.0,0.0,0.0,0.0,0.0,0.0,0.0,0.0,0.0,0.0,0.0,0.0,0.0,0.0,0.0,0.0,0.0,0.0,0.0,0.0,0.0,0.0,0.0,0.0,0.0,0.0,0.0,0.0,0.0,0.0,0.0,0.0,0.0,0.0,0.0,0.0,0.0,0.0,0.0,0.0,0.0,0.0,0.0,0.0,0.0,0.0,0.0,0.0,0.0,0.0,0.0,0.0,0.0,0.0,0.0,0.0,0.0,0.0,0.0,0.0,0.0,0.0,0.0,0.0,0.0,0.0,0.0,0.0,0.0,0.0,0.0,0.0,0.0,0.0,0.0,0.0,0.0,0.0,0.0,0.0,0.0,0.0,0.0,0.0,0.0,0.0,0.0,0.0,0.0,0.0,0.0,0.0,0.0,0.0,0.0,0.0,0.0,0.0,0.0,0.0,0.0,0.0,0.0,0.0,0.0,0.0,0.0,0.0,0.0,0.0,0.0,0.0,0.0,0.0,0.0,0.0,0.0,0.0,0.0,0.0,0.0,0.0,0.0,0.0,0.0,0.0,0.0,0.0,0.0,0.0,0.0,0.0,0.0,0.0,0.0,0.0,0.0,0.0,0.0,0.0,0.0,0.0,0.0,0.0,0.0,0.0,0.0,0.0,0.0,0.0,0.0,0.0,0.0,0.0,0.0,0.0,0.0,0.0,0.0,0.0,0.0,0.0,0.0,0.0,0.0,0.0,0.0,0.0,0.0,0.0,0.0,0.0,0.0,0.0,0.0,0.0,0.0,0.0,0.0,0.0,0.0,0.0,0.0,0.0,0.0,0.0,0.0,0.0,0.0,0.0,0.0,0.0,0.0,0.0,0.0,0.0,0.0,0.0,0.0,0.0,0.0,0.0,0.0,0.0,0.0,0.0,0.0,0.0,0.0,0.0,0.0,0.0,0.0,0.0,0.0,0.0,0.0,0.0,0.0,0.0,0.0,0.0,0.0,0.0,0.0,0.0,0.0,0.0,0.0,0.0,0.0,0.0,0.0,0.0,0.0,0.0,0.0,0.0,0.0,0.0,0.0,0.0,0.0,0.0,0.0,0.0,0.0,0.0,0.0,0.0,0.0,0.0,0.0,0.0,0.0,0.0,0.0,0.0,0.0,0.0,0.0,0.0,0.0,0.0,0.0,0.0,0.0,0.0,0.0,0.0,0.0,0.0,0.0,0.0,0.0,0.0,0.0,0.0,0.0,0.0,0.0,0.0,0.0,0.0,0.0,0.0,0.0,0.0,0.0,0.0,0.0,0.0,0.0,0.0,0.0,0.0,0.0,0.0,0.0,0.0,0.0,0.0,0.0,0.0,0.0,0.0,0.0,0.0,0.0,0.0,0.0,0.0,0.0,0.0,0.0,0.0,0.0,0.0,0.0,0.0,0.0,0.0,0.0,0.0,0.0,0.0,0.0,0.0,0.0,0.0,0.0,0.0,0.0,0.0,0.0,0.0,0.0,0.0,0.0,0.0,0.0,0.0,0.0,0.0,0.0,0.0,0.0,0.0,0.0,0.0,0.0,0.0,0.0,0.0,0.0,0.0,0.0,0.0,0.0,0.0,0.0,0.0,0.0,0.0,0.0,0.0,0.0,0.0,0.0,0.0,0.0,0.0,0.0,0.0,0.0,0.0,0.0,0.0,0.0,0.0,0.0,0.0,0.0,0.0,0.0,0.0,0.0,0.0,0.0,0.0,0.0,0.0,0.0,0.0,0.0,0.0,0.0,0.0,0.0,0.0,0.0,0.0,0.0,0.0,0.0,0.0,0.0,0.0,0.0,0.0,0.0,0.0,0.0,0.0,0.0,0.0,0.0,0.0,0.0,0.0,0.0,0.0,0.0,0.0,0.0,0.0,0.0,0.0,0.0,0.0,0.0,0.0,0.0,0.0,0.0,0.0,0.0,0.0,0.0,0.0,0.0,0.0,0.0,0.0,0.0,0.0,0.0,0.0,0.0,0.0,0.0,0.0,0.0,0.0,0.0,0.0,0.0,0.0,0.0,0.0,0.0,0.0,0.0,0.0,0.0,0.0,0.0,0.0,0.0,0.0,0.0,0.0,0.0,0.0,0.0,0.0,0.0,0.0,0.0,0.0,0.0,0.0,0.0,0.0,0.0,0.0,0.0,0.0,0.0,0.0,0.0,0.0,0.0,0.0,0.0,0.0,0.0,0.0,0.0,0.0,0.0,0.0,0.0,0.0,0.0,0.0,0.0,0.0,0.0,0.0,0.0,0.0,0.0,0.0,0.0,0.0,0.0,0.0,0.0,0.0,0.0,0.0,0.0,0.0,0.0,0.0,0.0,0.0,0.0,0.0,0.0,0.0,0.0,0.0,0.0,0.0,0.0,0.0,0.0,0.0,0.0,0.0,0.0,0.0,0.0,0.0,0.0,0.0,0.0,0.0,0.0,0.0,0.0,0.0,0.0,0.0,0.0,0.0,0.0,0.0,0.0,0.0,0.0,0.0,0.0,0.0,0.0,0.0,0.0,0.0,0.0,0.0,0.0,0.0,0.0,0.0,0.0,0.0,0.0,0.0,0.0,0.0,0.0,0.0,0.0,0.0,0.0,0.0,0.0,0.0,0.0,0.0,0.0,0.0,0.0,0.0,0.0,0.0,0.0,0.0,0.0,0.0,0.0,0.0,0.0,0.0,0.0,0.0,0.0,0.0,0.0,0.0,0.0,0.0,0.0,0.0,0.0,0.0,0.0,0.0,0.0,0.0,0.0,0.0,0.0,0.0,0.0,0.0,0.0,0.0,0.0,0.0,0.0,0.0,0.0,0.0,0.0,0.0,0.0,0.0,0.0,0.0,0.0,0.0,0.0,0.0,0.0,0.0,0.0,0.0,0.0,0.0,0.0,0.0,0.0,0.0,0.0,0.0,0.0,0.0,0.0,0.0,0.0,0.0,0.0,0.0,0.0,0.0,0.0,0.0,0.0,0.0,0.0,0.0,0.0,0.0,0.0,0.0,0.0,0.0,0.0,0.0,0.0,0.0,0.0,0.0,0.0,0.0,0.0,0.0,0.0,0.0,0.0,0.0,0.0,0.0,0.0,0.0,0.0,0.0,0.0,0.0,0.0,0.0,0.0,0.0,0.0,0.0,0.0,0.0,0.0,0.0,0.0,0.0,0.0,0.0,0.0,0.0,0.0,0.0,0.0,0.0,0.0,0.0,0.0,0.0,0.0,0.0,0.0,0.0,0.0,0.0,0.0,0.0,0.0,0.0,0.0,0.0,0.0,0.0,0.0,0.0,0.0,0.0,0.0,0.0,0.0,0.0,0.0,0.0,0.0,0.0,0.0,0.0,0.0,0.0,0.0,0.0,0.0,0.0,0.0,0.0,0.0,0.0,0.0,0.0,0.0,0.0,0.0,0.0,0.0,0.0,0.0,3.3119,0.0,0.0,0.0,0.0,0.0,0.0,0.0,0.0,0.0,0.0,0.0,0.0,0.0,0.0,0.0,0.0,0.0,0.0,0.0,0.0,0.0,0.0,0.0,0.0,0.0,0.0,0.0,0.0,0.0,0.0,0.0,0.0,0.0,0.0,0.0,0.0,0.0,0.0,0.0,0.0,0.0,0.0,0.0,0.0,0.0,0.0,0.0,0.0,0.0,0.0,0.0,0.0,0.0,0.0,0.0,0.0,0.0,0.0,0.0,0.0,0.0,0.0,0.0,0.0,0.0,0.0,0.0,0.0,0.0,0.0,0.0,0.0,0.0,0.0,0.0,0.0,0.0,0.0,0.0,0.0,0.0,0.0,0.0,0.0,0.0,0.0,0.0,0.0,0.0,0.0,0.0,0.0,0.0,0.0,0.0,0.0,0.0,0.0,0.0,0.0,0.0,0.0,0.0,0.0,0.0,0.0,0.0,0.0,0.0,0.0,3.0877,3.1227,3.1307,3.1508,3.1792,0.0,0.0,0.0,0.0,0.0,0.0,0.0,0.0,0.0,0.0,0.0,0.0,0.0,0.0,0.0,0.0,0.0,0.0,0.0,0.0,0.0,0.0,0.0,0.0,0.0,0.0,0.0,0.0,0.0,0.0,0.0,0.0,0.0,0.0,0.0,0.0,0.0,0.0,0.0,0.0,0.0,0.0,0.0,0.0,0.0,0.0,0.0,0.0,0.0,0.0,0.0,0.0,0.0,0.0,0.0,0.0,0.0,0.0,0.0,0.0,0.0,0.0,0.0,0.0,0.0,0.0,0.0,0.0,0.0,0.0,0.0,0.0,0.0,0.0,0.0,0.0,0.0,0.0,0.0,0.0,0.0,0.0,0.0,0.0,0.0,0.0,0.0,0.0,0.0,0.0,0.0,0.0,0.0,0.0,0.0,0.0,0.0,0.0,0.0,0.0,0.0,0.0,0.0,0.0,0.0,0.0,0.0,0.0,0.0,0.0,0.0,0.0,3.0753,3.0764,3.0714,0.0,0.0,0.0,0.0,0.0,0.0,0.0,0.0,0.0,0.0,0.0,0.0,0.0,0.0,0.0,0.0,0.0,0.0,0.0,0.0,0.0,0.0,0.0,0.0,0.0,0.0,0.0,0.0,0.0,0.0,0.0,0.0,0.0,0.0,0.0,0.0,0.0,0.0,0.0,0.0,0.0,0.0,0.0,0.0,0.0,0.0,0.0,0.0,0.0,0.0,0.0,0.0,0.0,0.0,0.0,0.0,0.0,0.0,0.0,0.0,0.0,0.0,0.0,0.0,0.0,0.0,0.0,0.0,0.0,0.0,0.0,0.0,0.0,0.0,0.0,0.0,0.0,0.0,0.0,0.0,0.0,0.0,0.0,0.0,0.0,0.0,0.0,0.0,0.0,0.0,0.0,0.0,0.0,0.0,0.0,0.0,0.0,0.0,0.0,0.0,0.0,0.0,0.0,0.0,0.0,0.0,0.0,0.0,0.0,0.0,3.0736,3.0774,3.0779,0.0,3.0735,0.0,0.0,0.0,0.0,0.0,0.0,0.0,0.0,0.0,0.0,0.0,0.0,0.0,0.0,0.0,0.0,0.0,0.0,0.0,0.0,0.0,0.0,0.0,0.0,0.0,0.0,0.0,0.0,0.0,0.0,0.0,0.0,0.0,0.0,0.0,0.0,0.0,0.0,0.0,0.0,0.0,0.0,0.0,0.0,0.0,0.0,0.0,0.0,0.0,0.0,0.0,0.0,0.0,0.0,0.0,0.0,0.0,0.0,0.0,0.0,0.0,0.0,0.0,0.0,0.0,0.0,0.0,0.0,0.0,0.0,0.0,0.0,0.0,0.0,0.0,0.0,0.0,0.0,0.0,0.0,0.0,0.0,0.0,0.0,0.0,0.0,0.0,0.0,0.0,0.0,0.0,0.0,0.0,0.0,0.0,0.0,0.0,0.0,0.0,0.0,0.0,0.0,0.0,0.0,0.0,0.0,0.0,0.0,0.0,0.0,3.0753,3.0808,3.0788,3.0533,0.0,0.0,0.0,0.0,0.0,0.0,0.0,0.0,0.0,0.0,0.0,0.0,0.0,0.0,0.0,0.0,0.0,0.0,0.0,0.0,0.0,0.0,0.0,0.0,0.0,0.0,0.0,0.0,0.0,0.0,0.0,0.0,0.0,0.0,0.0,0.0,0.0,0.0,0.0,0.0,0.0,0.0,0.0,0.0,0.0,0.0,0.0,0.0,0.0,0.0,0.0,0.0,0.0,0.0,0.0,0.0,0.0,0.0,0.0,0.0,0.0,0.0,0.0,0.0,0.0,0.0,0.0,0.0,0.0,0.0,0.0,0.0,0.0,0.0,0.0,0.0,0.0,0.0,0.0,0.0,0.0,0.0,0.0,0.0,0.0,0.0,0.0,0.0,0.0,0.0,0.0,0.0,0.0,0.0,0.0,0.0,0.0,0.0,0.0,0.0,0.0,0.0,0.0,0.0,0.0,0.0,0.0,0.0,0.0,0.0,2.9897,3.0779,3.0802,3.0778,3.0389,2.9529,0.0,0.0,0.0,0.0,0.0,0.0,0.0,0.0,0.0,0.0,0.0,0.0,0.0,0.0,0.0,0.0,0.0,0.0,0.0,0.0,0.0,0.0,0.0,0.0,0.0,0.0,0.0,0.0,0.0,0.0,0.0,0.0,0.0,0.0,0.0,0.0,0.0,0.0,0.0,0.0,0.0,0.0,0.0,0.0,0.0,0.0,0.0,0.0,0.0,0.0,0.0,0.0,0.0,0.0,0.0,0.0,0.0,0.0,0.0,0.0,0.0,0.0,0.0,0.0,0.0,0.0,0.0,0.0,0.0,0.0,0.0,0.0,0.0,0.0,0.0,0.0,0.0,0.0,0.0,0.0,0.0,0.0,0.0,0.0,0.0,0.0,0.0,0.0,0.0,0.0,0.0,0.0,0.0,0.0,0.0,0.0,0.0,0.0,0.0,0.0,0.0,0.0,0.0,0.0,0.0,0.0,0.0,0.0,2.8251,2.9883,3.0774,3.0774,3.0739,3.032,0.0,0.0,0.0,0.0,0.0,0.0,0.0,0.0,0.0,0.0,0.0,0.0,0.0,0.0,0.0,0.0,0.0,0.0,0.0,0.0,0.0,0.0,0.0,0.0,0.0,0.0,0.0,0.0,0.0,0.0,0.0,0.0,0.0,0.0,0.0,0.0,0.0,0.0,0.0,0.0,0.0,0.0,0.0,0.0,0.0,0.0,0.0,0.0,0.0,0.0,0.0,0.0,0.0,0.0,0.0,0.0,0.0,0.0,0.0,0.0,0.0,0.0,0.0,0.0,0.0,0.0,0.0,0.0,0.0,0.0,0.0,0.0,0.0,0.0,0.0,0.0,0.0,0.0,0.0,0.0,0.0,0.0,0.0,0.0,0.0,0.0,0.0,0.0,0.0,0.0,0.0,0.0,0.0,0.0,0.0,0.0,0.0,0.0,0.0,0.0,0.0,0.0,0.0,0.0,0.0,0.0,0.0,0.0,0.0,2.8238,2.9886,3.0802,3.0781,3.0239,2.9523,0.0,0.0,0.0,0.0,0.0,0.0,0.0,0.0,0.0,0.0,0.0,0.0,0.0,0.0,0.0,0.0,0.0,0.0,0.0,0.0,0.0,0.0,0.0,0.0,0.0,0.0,0.0,0.0,0.0,0.0,0.0,0.0,0.0,0.0,0.0,0.0,0.0,0.0,0.0,0.0,0.0,0.0,0.0,0.0,0.0,0.0,0.0,0.0,0.0,0.0,0.0,0.0,0.0,0.0,0.0,0.0,0.0,0.0,0.0,0.0,0.0,0.0,0.0,0.0,0.0,0.0,0.0,0.0,0.0,0.0,0.0,0.0,0.0,0.0,0.0,0.0,0.0,0.0,0.0,0.0,0.0,0.0,0.0,0.0,0.0,0.0,0.0,0.0,0.0,0.0,0.0,0.0,0.0,0.0,0.0,0.0,0.0,0.0,0.0,0.0,0.0,0.0,0.0,0.0,0.0,0.0,0.0,0.0,0.0,2.8668,0.0,3.0808,3.0771,2.9824,2.889,0.0,0.0,0.0,0.0,0.0,0.0,0.0,0.0,0.0,0.0,0.0,0.0,0.0,0.0,0.0,0.0,0.0,0.0,0.0,0.0,0.0,0.0,0.0,0.0,0.0,0.0,0.0,0.0,0.0,0.0,0.0,0.0,0.0,0.0,0.0,0.0,0.0,0.0,0.0,0.0,0.0,0.0,0.0,0.0,0.0,0.0,0.0,0.0,0.0,0.0,0.0,0.0,0.0,0.0,0.0,0.0,0.0,0.0,0.0,0.0,0.0,0.0,0.0,0.0,0.0,0.0,0.0,0.0,0.0,0.0,0.0,0.0,0.0,0.0,0.0,0.0,0.0,0.0,0.0,0.0,0.0,0.0,0.0,0.0,0.0,0.0,0.0,0.0,0.0,0.0,0.0,0.0,0.0,0.0,0.0,0.0,0.0,0.0,0.0,0.0,0.0,0.0,0.0,0.0,0.0,0.0,0.0,0.0,2.7851,2.9492,3.0374,3.0778,3.0763,2.9489,2.8548,0.0,0.0,0.0,0.0,0.0,0.0,0.0,0.0,0.0,0.0,0.0,0.0,0.0,0.0,0.0,0.0,0.0,0.0,0.0,0.0,0.0,0.0,0.0,0.0,0.0,0.0,0.0,0.0,0.0,0.0,0.0,0.0,0.0,0.0,0.0,0.0,0.0,0.0,0.0,0.0,0.0,0.0,0.0,0.0,0.0,0.0,0.0,0.0,0.0,0.0,0.0,0.0,0.0,0.0,0.0,0.0,0.0,0.0,0.0,0.0,0.0,0.0,0.0,0.0,0.0,0.0,0.0,0.0,0.0,0.0,0.0,0.0,0.0,0.0,0.0,0.0,0.0,0.0,0.0,0.0,0.0,0.0,0.0,0.0,0.0,0.0,0.0,0.0,0.0,0.0,0.0,0.0,0.0,0.0,0.0,0.0,0.0,0.0,0.0,0.0,0.0,0.0,0.0,0.0,0.0,0.0,0.0,0.0,0.0,2.8622,2.993,3.0594,3.0599,2.9091,2.8135,0.0,0.0,0.0,0.0,0.0,0.0,0.0,0.0,0.0,0.0,0.0,0.0,0.0,0.0,0.0,0.0,0.0,0.0,0.0,0.0,0.0,0.0,0.0,0.0,0.0,0.0,0.0,0.0,0.0,0.0,0.0,0.0,0.0,0.0,0.0,0.0,0.0,0.0,0.0,0.0,0.0,0.0,0.0,0.0,0.0,0.0,0.0,0.0,0.0,0.0,0.0,0.0,0.0,0.0,0.0,0.0,0.0,0.0,0.0,0.0,0.0,0.0,0.0,0.0,0.0,0.0,0.0,0.0,0.0,0.0,0.0,0.0,0.0,0.0,0.0,0.0,0.0,0.0,0.0,0.0,0.0,0.0,0.0,0.0,0.0,0.0,0.0,0.0,0.0,0.0,0.0,0.0,0.0,0.0,0.0,0.0,0.0,0.0,0.0,0.0,0.0,0.0,0.0,0.0,0.0,0.0,0.0,0.0,0.0,2.8038,2.9775,3.0616,3.0386,2.8975,2.8083,2.7723,0.0,0.0,0.0,0.0,0.0,0.0,0.0,0.0,0.0,0.0,0.0,0.0,0.0,0.0,0.0,0.0,0.0,0.0,0.0,0.0,0.0,0.0,0.0,0.0,0.0,0.0,0.0,0.0,0.0,0.0,0.0,0.0,0.0,0.0,0.0,0.0,0.0,0.0,0.0,0.0,0.0,0.0,0.0,0.0,0.0,0.0,0.0,0.0,0.0,0.0,0.0,0.0,0.0,0.0,0.0,0.0,0.0,0.0,0.0,0.0,0.0,0.0,0.0,0.0,0.0,0.0,0.0,0.0,0.0,0.0,0.0,0.0,0.0,0.0,0.0,0.0,0.0,0.0,0.0,0.0,0.0,0.0,0.0,0.0,0.0,0.0,0.0,0.0,0.0,0.0,0.0,0.0,0.0,0.0,0.0,0.0,0.0,0.0,0.0,0.0,0.0,0.0,0.0,0.0,0.0,0.0,0.0,0.0,2.7643,2.9784,3.0617,2.9966,2.9019,2.8245,0.0,0.0,0.0,0.0,0.0,0.0,0.0,0.0,0.0,0.0,0.0,0.0,0.0,0.0,0.0,0.0,0.0,0.0,0.0,0.0,0.0,0.0,0.0,0.0,0.0,0.0,0.0,0.0,0.0,0.0,0.0,0.0,0.0,0.0,0.0,0.0,0.0,0.0,0.0,0.0,0.0,0.0,0.0,0.0,0.0,0.0,0.0,0.0,0.0,0.0,0.0,0.0,0.0,0.0,0.0,0.0,0.0,0.0,0.0,0.0,0.0,0.0,0.0,0.0,0.0,0.0,0.0,0.0,0.0,0.0,0.0,0.0,0.0,0.0,0.0,0.0,0.0,0.0,0.0,0.0,0.0,0.0,0.0,0.0,0.0,0.0,0.0,0.0,0.0,0.0,0.0,0.0,0.0,0.0,0.0,0.0,0.0,0.0,0.0,0.0,0.0,0.0,0.0,0.0,0.0,0.0,0.0,0.0,0.0,2.7036,2.8288,2.9114,2.937,2.8457,2.7587,0.0,0.0,0.0,0.0,0.0,0.0,0.0,0.0,0.0,0.0,0.0,0.0,0.0,0.0,0.0,0.0,0.0,0.0,0.0,0.0,0.0,0.0,0.0,0.0,0.0,0.0,0.0,0.0,0.0,0.0,0.0,0.0,0.0,0.0,0.0,0.0,0.0,0.0,0.0,0.0,0.0,0.0,0.0,0.0,0.0,0.0,0.0,0.0,0.0,0.0,0.0,0.0,0.0,0.0,0.0,0.0,0.0,0.0,0.0,0.0,0.0,0.0,0.0,0.0,0.0,0.0,0.0,0.0,0.0,0.0,0.0,0.0,0.0,0.0,0.0,0.0,0.0,0.0,0.0,0.0,0.0,0.0,0.0,0.0,0.0,0.0,0.0,0.0,0.0,0.0,0.0,0.0,0.0,0.0,0.0,0.0,0.0,0.0,0.0,0.0,0.0,0.0,0.0,0.0,0.0,0.0,0.0,0.0,2.5171,2.6058,2.6624,2.705,2.73,2.7273,2.6958,0.0,0.0,0.0,0.0,0.0,0.0,0.0,0.0,0.0,0.0,0.0,0.0,0.0,0.0,0.0,0.0,0.0,0.0,0.0,0.0,0.0,0.0,0.0,0.0,0.0,0.0,0.0,0.0,0.0,0.0,0.0,0.0,0.0,0.0,0.0,0.0,0.0,0.0,0.0,0.0,0.0,0.0,0.0,0.0,0.0,0.0,0.0,0.0,0.0,0.0,0.0,0.0,0.0,0.0,0.0,0.0,0.0,0.0,0.0,0.0,0.0,0.0,0.0,0.0,0.0,0.0,0.0,0.0,0.0,0.0,0.0,0.0,0.0,0.0,0.0,0.0,0.0,0.0,0.0,0.0,0.0,0.0,0.0,0.0,0.0,0.0,0.0,0.0,0.0,0.0,0.0,0.0,0.0,0.0,0.0,0.0,0.0,0.0,0.0,0.0,0.0,0.0,0.0,0.0,0.0,0.0,0.0,0.0,2.3395,2.4813,2.4839,2.4706,2.4532,2.5715,2.6127,0.0,0.0,0.0,0.0,0.0,0.0,0.0,0.0,0.0,0.0,0.0,0.0,0.0,0.0,0.0,0.0,0.0,0.0,0.0,0.0,0.0,0.0,0.0,0.0,0.0,0.0,0.0,0.0,0.0,0.0,0.0,0.0,0.0,0.0,0.0,0.0,0.0,0.0,0.0,0.0,0.0,0.0,0.0,0.0,0.0,0.0,0.0,0.0,0.0,0.0,0.0,0.0,0.0,0.0,0.0,0.0,0.0,0.0,0.0,0.0,0.0,0.0,0.0,0.0,0.0,0.0,0.0,0.0,0.0,0.0,0.0,0.0,0.0,0.0,0.0,0.0,0.0,0.0,0.0,0.0,0.0,0.0,0.0,0.0,0.0,0.0,0.0,0.0,0.0,0.0,0.0,0.0,0.0,0.0,0.0,0.0,0.0,0.0,0.0,0.0,0.0,0.0,0.0,0.0,0.0,0.0,0.0,0.0,2.2238,2.325,2.2594,2.2485,2.3127,2.4281,2.4447,0.0,0.0,0.0,0.0,0.0,0.0,0.0,0.0,0.0,0.0,0.0,0.0,0.0,0.0,0.0,0.0,0.0,0.0,0.0,0.0,0.0,0.0,0.0,0.0,0.0,0.0,0.0,0.0,0.0,0.0,0.0,0.0,0.0,0.0,0.0,0.0,0.0,0.0,0.0,0.0,0.0,0.0,0.0,0.0,0.0,0.0,0.0,0.0,2.6214,0.0,0.0,0.0,0.0,0.0,0.0,0.0,0.0,0.0,0.0,0.0,0.0,0.0,0.0,0.0,0.0,0.0,0.0,0.0,0.0,0.0,0.0,0.0,0.0,0.0,0.0,0.0,0.0,0.0,0.0,0.0,0.0,0.0,0.0,0.0,0.0,0.0,0.0,0.0,0.0,0.0,0.0,0.0,0.0,0.0,0.0,0.0,0.0,0.0,0.0,0.0,0.0,0.0,0.0,0.0,0.0,0.0,0.0,0.0,2.0091,2.0503,2.0216,2.0089,2.0113,2.0413,2.0833,0.0,0.0,0.0,0.0,0.0,0.0,0.0,0.0,0.0,0.0,0.0,0.0,0.0,0.0,0.0,0.0,0.0,0.0,0.0,0.0,0.0,0.0,0.0,0.0,0.0,0.0,0.0,0.0,0.0,0.0,0.0,0.0,0.0,0.0,0.0,0.0,0.0,0.0,0.0,0.0,0.0,0.0,0.0,0.0,0.0,0.0,0.0,0.0,0.0,0.0,0.0,0.0,0.0,0.0,0.0,0.0,0.0,0.0,0.0,0.0,0.0,0.0,0.0,0.0,0.0,0.0,0.0,0.0,0.0,0.0,0.0,0.0,0.0,0.0,0.0,0.0,0.0,0.0,0.0,0.0,0.0,0.0,0.0,0.0,0.0,0.0,0.0,0.0,0.0,0.0,0.0,0.0,0.0,0.0,0.0,0.0,0.0,0.0,0.0,0.0,0.0,0.0,0.0,0.0,0.0,0.0,0.0,1.7509,1.7583,1.7411,1.7727,1.7458,1.6607,1.5867,1.6337,1.8113,0.0,0.0,0.0,0.0,0.0,0.0,0.0,0.0,0.0,0.0,0.0,0.0,0.0,0.0,0.0,0.0,0.0,0.0,0.0,0.0,0.0,0.0,0.0,0.0,0.0,0.0,0.0,0.0,0.0,0.0,0.0,0.0,0.0,0.0,0.0,0.0,0.0,0.0,2.8118,2.9345,0.0,0.0,0.0,0.0,0.0,0.0,0.0,0.0,3.148,0.0,0.0,0.0,0.0,0.0,0.0,0.0,0.0,0.0,0.0,0.0,0.0,0.0,0.0,0.0,0.0,0.0,0.0,0.0,0.0,0.0,0.0,0.0,0.0,0.0,0.0,0.0,0.0,0.0,0.0,0.0,0.0,0.0,0.0,0.0,0.0,0.0,0.0,0.0,0.0,0.0,0.0,0.0,0.0,0.0,0.0,0.0,0.0,0.0,0.0,0.0,0.0,0.0,0.0,0.0,0.0,1.4889,1.5176,1.5295,1.5246,1.4618,1.4338,1.4292,1.2748,1.2298,1.3075,0.0,0.0,0.0,0.0,0.0,0.0,0.0,0.0,0.0,0.0,0.0,0.0,0.0,0.0,0.0,0.0,0.0,0.0,0.0,0.0,0.0,0.0,0.0,0.0,0.0,0.0,0.0,0.0,0.0,0.0,0.0,0.0,0.0,0.0,0.0,0.0,0.0,0.0,0.0,3.2737,3.3751,0.0,0.0,0.0,0.0,0.0,0.0,0.0,0.0,3.2708,0.0,0.0,0.0,0.0,0.0,0.0,0.0,0.0,0.0,0.0,0.0,0.0,0.0,0.0,0.0,0.0,0.0,0.0,0.0,0.0,0.0,0.0,0.0,0.0,0.0,0.0,0.0,0.0,0.0,0.0,0.0,0.0,0.0,0.0,0.0,0.0,0.0,0.0,0.0,0.0,0.0,0.0,0.0,0.0,0.0,0.0,0.0,0.0,0.0,0.0,0.0,0.0,0.0,0.0,0.0,1.3503,1.3009,1.2412,1.1828,1.157,1.1336,1.0959,1.0364,1.0277,0.0,0.0,0.0,0.0,0.0,0.0,0.0,0.0,0.0,0.0,0.0,0.0,0.0,0.0,0.0,0.0,0.0,0.0,0.0,0.0,0.0,0.0,0.0,0.0,0.0,0.0,0.0,0.0,0.0,0.0,0.0,0.0,0.0,0.0,0.0,0.0,0.0,0.0,0.0,0.0,3.4655,3.6133,3.7431,0.0,0.0,0.0,0.0,0.0,0.0,3.6282,3.5577,0.0,0.0,0.0,0.0,0.0,0.0,0.0,0.0,0.0,0.0,0.0,0.0,0.0,0.0,0.0,0.0,0.0,0.0,0.0,0.0,0.0,0.0,0.0,0.0,0.0,0.0,0.0,0.0,0.0,0.0,0.0,0.0,0.0,0.0,0.0,0.0,0.0,0.0,0.0,0.0,0.0,0.0,0.0,0.0,0.0,0.0,0.0,0.0,0.0,0.0,0.0,0.0,0.0,0.0,0.0,1.2641,1.1148,0.988,0.8898,0.8949,0.8618,0.78,0.8237,0.8725,0.0,0.0,0.0,0.0,0.0,0.0,0.0,0.0,0.0,0.0,0.0,0.0,0.0,0.0,0.0,0.0,0.0,0.0,0.0,0.0,0.0,0.0,0.0,0.0,0.0,0.0,0.0,0.0,0.0,0.0,0.0,0.0,0.0,0.0,0.0,0.0,0.0,0.0,0.0,0.0,0.0,3.8069,3.9476,4.0106,0.0,0.0,0.0,0.0,3.9667,3.9275,0.0,0.0,0.0,0.0,0.0,0.0,0.0,0.0,0.0,0.0,0.0,0.0,0.0,0.0,0.0,0.0,0.0,0.0,0.0,0.0,0.0,0.0,0.0,0.0,0.0,0.0,0.0,0.0,0.0,0.0,0.0,0.0,0.0,0.0,0.0,0.0,0.0,0.0,0.0,0.0,0.0,0.0,0.0,0.0,0.0,0.0,0.0,0.0,0.0,0.0,0.0,0.0,0.0,0.0,0.0,0.0,1.2503,1.0122,0.86,0.8045,0.7302,0.6597,0.5911,0.6276,0.6651,0.0,0.0,0.0,0.0,0.0,0.0,0.0,0.0,0.0,0.0,0.0,0.0,0.0,0.0,0.0,0.0,0.0,0.0,0.0,0.0,0.0,0.0,0.0,0.0,0.0,0.0,0.0,0.0,0.0,0.0,0.0,0.0,0.0,0.0,0.0,0.0,0.0,0.0,0.0,0.0,0.0,3.9578,4.2535,4.2346,4.2072,0.0,0.0,4.3039,4.3287,4.3202,0.0,0.0,0.0,0.0,0.0,0.0,0.0,0.0,0.0,0.0,0.0,0.0,0.0,0.0,0.0,0.0,0.0,0.0,0.0,0.0,0.0,0.0,0.0,0.0,0.0,0.0,0.0,0.0,0.0,0.0,0.0,0.0,0.0,0.0,0.0,0.0,0.0,0.0,0.0,0.0,0.0,0.0,0.0,0.0,0.0,0.0,0.0,0.0,0.0,0.0,0.0,0.0,0.0,0.0,0.0,1.2824,1.2669,1.0038,0.841,0.7795,0.6911,0.6218,0.5818,0.6033,0.6486,0.0,0.0,0.0,0.0,0.0,0.0,0.0,0.0,0.0,0.0,0.0,0.0,0.0,0.0,0.0,0.0,0.0,0.0,0.0,0.0,0.0,0.0,0.0,0.0,0.0,0.0,0.0,0.0,0.0,0.0,0.0,0.0,0.0,0.0,0.0,0.0,0.0,0.0,0.0,0.0,0.0,0.0,4.2972,4.3557,0.0,0.0,0.0,4.3976,4.4321,0.0,0.0,0.0,0.0,0.0,0.0,0.0,0.0,0.0,0.0,0.0,0.0,0.0,0.0,0.0,0.0,0.0,0.0,0.0,0.0,0.0,0.0,0.0,0.0,0.0,0.0,0.0,0.0,0.0,0.0,0.0,0.0,0.0,0.0,0.0,0.0,0.0,0.0,0.0,0.0,0.0,0.0,0.0,0.0,0.0,0.0,0.0,0.0,0.0,0.0,0.0,0.0,0.0,0.0,0.0,0.0,0.0,1.3435,1.0569,0.8746,0.8027,0.7267,0.6564,0.6033,0.6375,0.0,0.0,0.0,0.0,0.0,0.0,0.0,0.0,0.0,0.0,0.0,0.0,0.0,0.0,0.0,0.0,0.0,0.0,0.0,0.0,0.0,0.0,0.0,0.0,0.0,0.0,0.0,2.1123,0.0,0.0,0.0,0.0,0.0,0.0,0.0,0.0,0.0,0.0,0.0,0.0,0.0,0.0,4.2089,4.3327,4.4213,4.4741,0.0,0.0,4.4757,4.5088,4.5217,4.5018,0.0,0.0,0.0,0.0,0.0,0.0,0.0,0.0,0.0,0.0,0.0,0.0,0.0,0.0,0.0,0.0,0.0,0.0,0.0,0.0,0.0,0.0,0.0,0.0,0.0,0.0,0.0,0.0,0.0,0.0,0.0,0.0,0.0,0.0,0.0,0.0,0.0,0.0,0.0,0.0,0.0,0.0,0.0,0.0,0.0,0.0,0.0,0.0,0.0,0.0,0.0,0.0,0.0,0.0,1.4814,1.494,1.1866,0.9831,0.9031,0.8423,0.7542,0.6416,0.6962,0.6969,0.0,0.0,0.0,0.0,0.0,0.0,0.0,0.0,0.0,0.0,0.0,0.0,0.0,0.0,0.0,0.0,0.0,0.0,0.0,0.0,0.0,0.0,0.0,0.0,0.0,0.0,0.0,0.0,0.0,0.0,0.0,0.0,0.0,0.0,0.0,0.0,0.0,0.0,0.0,0.0,0.0,4.127,4.4537,4.4559,4.4709,0.0,4.6391,4.6496,4.6015,4.6983,4.7279,4.5772,0.0,0.0,0.0,0.0,0.0,0.0,0.0,0.0,0.0,0.0,0.0,0.0,0.0,0.0,0.0,0.0,0.0,0.0,0.0,0.0,0.0,0.0,0.0,0.0,0.0,0.0,0.0,0.0,1.8222,0.0,0.0,0.0,0.0,0.0,0.0,0.0,0.0,0.0,0.0,0.0,0.0,0.0,0.0,0.0,0.0,0.0,0.0,0.0,0.0,0.0,0.0,0.0,0.0,1.6723,1.6989,1.4514,1.3076,1.2829,1.1578,1.0651,1.0105,0.9279,0.8577,0.0,0.0,0.0,0.0,0.0,0.0,0.0,0.0,0.0,0.0,0.0,0.0,0.0,0.0,0.0,0.0,0.0,0.0,0.0,0.0,0.0,0.0,0.0,0.0,0.0,0.0,0.0,0.0,2.3029,2.4402,2.6464,0.0,0.0,0.0,0.0,0.0,0.0,0.0,0.0,0.0,0.0,4.1666,4.3406,4.3852,0.0,0.0,4.537,4.5448,4.605,4.6608,4.6747,4.619,4.5207,0.0,0.0,0.0,0.0,0.0,0.0,0.0,0.0,0.0,0.0,0.0,0.0,0.0,0.0,0.0,0.0,0.0,0.0,0.0,0.0,0.0,0.0,0.0,0.0,0.0,0.0,1.8529,1.8644,0.0,0.0,0.0,0.0,0.0,0.0,0.0,0.0,0.0,0.0,0.0,0.0,0.0,0.0,0.0,0.0,0.0,0.0,0.0,0.0,0.0,0.0,0.0,0.0,1.8503,1.8815,1.7147,1.6204,1.6225,1.4864,1.3896,1.348,1.1828,1.0635,0.0,0.0,0.0,0.0,0.0,0.0,0.0,0.0,0.0,0.0,0.0,0.0,0.0,0.0,0.0,0.0,0.0,0.0,0.0,0.0,0.0,0.0,0.0,0.0,0.0,0.0,0.0,0.0,2.3471,2.5112,2.7027,0.0,0.0,0.0,0.0,0.0,0.0,0.0,0.0,0.0,0.0,4.1546,4.2921,4.3603,4.4338,4.534,4.5061,4.5,4.5973,4.6171,4.6197,4.5966,0.0,0.0,0.0,0.0,0.0,0.0,0.0,0.0,0.0,0.0,0.0,0.0,0.0,0.0,0.0,0.0,0.0,0.0,0.0,0.0,0.0,0.0,0.0,0.0,0.0,0.0,0.0,1.78,0.0,0.0,1.749,0.0,0.0,0.0,0.0,0.0,0.0,0.0,0.0,0.0,0.0,0.0,0.0,0.0,0.0,0.0,0.0,0.0,0.0,0.0,0.0,0.0,0.0,1.9961,2.0514,1.9641,1.8935,1.8502,1.7862,1.7024,1.5924,1.4351,1.2796,1.1177,0.0,0.0,0.0,0.0,0.0,0.0,0.0,0.0,0.0,0.0,0.0,0.0,0.0,0.0,0.0,0.0,0.0,0.0,0.0,0.0,0.0,0.0,0.0,0.0,0.0,0.0,2.3676,2.536,2.6689,0.0,0.0,0.0,0.0,0.0,0.0,0.0,0.0,0.0,3.7534,3.8692,4.0588,4.3656,4.4154,4.4711,4.6228,4.6013,4.5782,4.588,4.605,4.5877,0.0,0.0,0.0,0.0,0.0,0.0,0.0,0.0,0.0,0.0,0.0,0.0,0.0,0.0,0.0,0.0,0.0,0.0,0.0,0.0,0.0,0.0,0.0,0.0,0.0,0.0,0.0,1.5762,1.5485,0.0,0.0,0.0,0.0,0.0,0.0,0.0,0.0,0.0,0.0,0.0,1.8419,1.9016,0.0,0.0,0.0,0.0,0.0,0.0,0.0,0.0,0.0,0.0,0.0,0.0,2.1851,2.2886,2.2016,2.1649,2.1844,2.07,1.9583,1.8593,1.6782,1.4226,1.0671,0.0,0.0,0.0,0.0,0.0,0.0,0.0,0.0,0.0,0.0,0.0,0.0,0.0,0.0,0.0,0.0,0.0,0.0,0.0,0.0,0.0,0.0,0.0,0.0,0.0,2.095,0.0,0.0,0.0,0.0,0.0,0.0,0.0,0.0,0.0,0.0,3.371,3.5161,3.6735,3.9261,4.1607,4.3248,4.4113,4.48,0.0,0.0,0.0,0.0,0.0,0.0,0.0,0.0,0.0,0.0,0.0,0.0,0.0,3.8699,3.7153,3.5437,3.4687,3.4204,3.3714,0.0,0.0,0.0,0.0,0.0,0.0,0.0,0.0,0.0,0.0,0.0,0.0,0.0,0.0,1.2127,1.2914,1.3002,0.0,0.0,0.0,0.0,0.0,0.0,0.0,0.0,2.004,2.0136,1.9758,2.0373,2.0569,2.0514,2.0829,2.0837,0.0,0.0,0.0,0.0,0.0,0.0,0.0,0.0,2.2964,2.4026,2.3577,2.3638,2.4249,2.3183,2.2167,2.1265,1.8443,1.5015,1.0995,0.8287,0.6034,0.0,0.0,0.0,0.0,0.0,0.0,0.0,0.0,0.0,0.0,0.0,0.0,0.0,0.0,0.0,0.0,0.0,0.0,0.0,0.0,0.0,0.0,0.0,2.0945,0.0,0.0,0.0,0.0,0.0,0.0,0.0,0.0,0.0,3.1885,3.3462,3.5036,3.6415,3.9431,4.1863,4.3044,0.0,0.0,0.0,0.0,0.0,0.0,0.0,4.4825,4.4403,4.3761,4.3199,4.2802,4.1853,4.1131,4.0928,0.0,0.0,3.6672,3.5897,3.5427,3.5018,3.5391,3.5567,3.545,3.5618,3.5893,0.0,0.0,0.0,0.0,0.337,0.0,0.0,0.0,0.6643,0.7412,0.0,1.0039,0.0,0.0,0.0,0.0,1.6362,1.8012,0.0,0.0,1.9656,2.0075,2.0744,2.0945,2.1213,2.1533,2.168,2.1691,2.1663,2.1321,2.1243,0.0,0.0,0.0,0.0,0.0,2.3254,2.3956,2.4253,2.476,2.5561,2.5196,2.4655,2.3807,1.9237,1.5353,1.2409,0.9338,0.6732,0.4977,0.4066,0.0,0.0,0.0,0.0,0.0,0.0,0.0,0.0,0.0,0.0,0.0,0.0,0.0,0.0,0.0,0.0,0.0,0.0,0.0,0.0,1.9753,0.0,0.0,0.0,0.0,0.0,0.0,0.0,0.0,0.0,3.0157,3.1885,3.3894,3.5615,3.6736,0.0,0.0,0.0,0.0,4.5024,4.5321,4.5247,4.4993,4.4799,4.3866,4.313,4.29,0.0,0.0,4.234,4.2028,4.1663,4.1755,4.1315,4.0573,3.8944,3.7873,3.7143,3.6988,3.7152,3.7462,3.7668,3.7839,3.8123,-0.6091,0.0,0.0,0.0,0.0,-0.1511,-0.0249,0.1472,0.0404,0.1686,0.4638,0.5338,0.0,0.0,0.0,0.0,0.0,0.0,1.7366,1.7835,1.7971,1.8354,1.8874,2.0088,2.0552,2.0396,2.0715,2.081,2.0674,2.0134,2.0424,2.1355,0.0,0.0,0.0,0.0,2.2581,2.3725,2.4481,2.5179,2.5826,2.5909,2.5087,2.3216,2.0117,1.7242,1.474,1.169,0.9226,0.7561,0.6272,0.0,0.0,0.0,0.0,0.0,0.0,0.0,0.0,0.0,0.0,0.0,0.0,0.0,0.0,0.0,0.0,0.0,0.0,0.0,1.7723,1.8839,2.0297,0.0,0.0,0.0,0.0,0.0,0.0,0.0,0.0,0.0,3.066,3.3165,3.521,0.0,0.0,4.2023,4.302,4.4018,4.4403,4.3944,4.3836,0.0,4.2841,4.2621,4.2444,4.236,4.1764,4.1369,4.1773,4.1293,4.113,4.2119,4.1634,4.1003,4.1336,4.0333,3.9469,3.9369,3.9095,3.8839,3.9258,3.9216,3.9184,-0.9649,-0.8915,-0.8355,-0.7568,-0.6821,-0.6475,-0.581,-0.494,-0.4731,-0.3338,-0.107,0.0484,0.2403,0.4646,0.7111,0.0,0.0,0.0,1.58,1.6409,1.6879,1.7568,1.8386,1.9371,1.9897,2.0153,2.0088,2.0053,2.0015,1.9687,1.9873,2.0437,0.0,2.0606,2.0918,2.1063,2.162,2.2675,2.3539,2.436,2.5078,2.5519,2.4901,2.3112,2.0925,1.8882,1.7008,1.4255,1.202,1.0546,0.9332,0.8307,0.0,0.0,0.0,0.0,0.0,0.0,0.0,0.0,0.0,0.0,0.0,0.736,0.7484,0.0,0.0,0.0,1.2917,1.4746,1.6854,1.7924,0.0,0.0,0.0,0.0,0.0,0.0,0.0,2.7592,2.8099,2.8749,2.9973,3.2545,3.454,3.5251,3.8572,4.123,4.1845,0.0,4.318,4.2651,4.2379,4.2053,4.142,4.134,4.1367,4.1467,4.141,4.1409,4.1559,4.1188,4.1204,4.1928,4.1724,4.161,4.2316,4.1833,4.1275,4.0996,4.0495,4.0137,4.0458,4.0135,3.9994,-1.2262,-1.3142,-1.081,-1.0294,-1.0985,-1.0782,-1.0666,-1.0366,-0.8861,-0.7714,-0.6757,-0.4442,-0.1855,0.0911,0.5056,0.0,0.9928,1.2559,1.4267,1.5212,1.5913,1.7101,1.8652,1.8436,1.9021,2.0114,1.9468,1.927,1.9528,1.9458,1.9274,1.8906,1.9212,1.9487,1.9706,1.9944,2.0313,2.0813,2.162,2.2549,2.373,2.4434,2.4329,2.338,2.1844,2.0386,1.9088,1.6888,1.5148,1.3981,1.278,1.1702,1.0389,0.0,0.0,0.0,0.0,0.0,0.0,0.0,0.0,0.0,0.0,0.0,0.0,0.0,0.0,1.0628,1.2496,0.0,1.5563,1.7246,0.0,0.0,0.0,2.1625,2.3346,2.2957,2.3599,2.6141,0.0,0.0,2.9724,3.1988,3.3648,3.4203,3.7097,3.9447,3.9973,4.0833,4.1449,4.1423,4.1057,4.0659,4.0482,4.0275,4.0187,4.0219,4.1005,4.1345,4.1372,4.1198,4.123,4.1544,4.1877,4.2149,4.2141,4.2509,4.2649,4.1873,4.1483,4.1299,4.1188,4.0829,4.0735,-1.3346,-1.4275,-1.4076,-1.3797,-1.3521,-1.4184,-1.3975,-1.323,-1.2586,-1.1628,-1.0248,-0.848,-0.5255,-0.106,0.2359,0.4828,0.6625,1.0219,1.2001,1.2336,1.2824,1.4073,1.585,1.5951,1.6434,1.7232,1.7109,1.7222,1.745,1.7073,1.7021,1.7275,1.6959,1.7271,1.818,1.7823,1.792,1.8409,1.9567,2.1196,2.3309,2.414,2.4098,2.3313,2.3411,2.2545,2.0728,1.9478,1.8413,1.747,1.6415,1.5332,1.4424,1.3174,0.0,0.0,0.0,0.0,0.0,0.0,0.0,0.0,0.0,0.801,0.8026,0.0,0.9431,0.0,1.2789,1.4896,1.6095,1.7761,0.0,0.0,2.0878,2.1778,2.2446,2.3039,2.3985,2.5665,2.664,2.7759,2.9285,3.062,3.1807,3.2823,3.5738,3.8062,3.8755,3.9247,3.9584,4.0021,3.9798,3.9532,3.9681,3.9912,3.9777,3.8995,3.9397,3.9853,3.9853,3.9775,4.0055,4.0923,4.1457,4.1935,4.2384,4.2388,4.2326,4.2289,4.2065,4.1752,4.1525,4.0822,4.0622,-1.3447,-1.4133,-1.5104,-1.538,-1.5189,-1.6294,-1.6393,-1.5799,-1.5589,-1.4804,-1.3457,-1.0899,-0.7775,-0.4314,-0.1433,0.1217,0.3671,0.6899,0.8922,0.9895,1.074,1.2042,1.371,1.3802,1.4296,1.5154,1.4969,1.5023,1.5275,1.5314,1.5419,1.5541,1.5508,1.5677,1.6,1.5913,1.5982,1.6209,1.7631,1.926,2.1041,2.1752,2.2088,2.198,2.2613,2.2799,2.2426,2.2095,2.1788,2.1502,2.0692,1.9555,1.8168,1.6821,1.5469,0.0,0.0,0.0,0.0,0.0,0.0,0.0,0.0,0.0,0.0,0.0,1.0651,1.2093,1.3926,1.5641,1.6828,1.8255,1.9385,1.9872,2.067,2.1325,2.1738,2.2225,2.3125,2.4723,2.6144,2.7566,2.8699,2.9779,3.097,3.2155,3.4088,3.5811,3.7284,3.7926,3.8437,3.9013,3.8765,3.8685,3.9056,3.9216,3.9221,3.8888,3.9059,3.9283,3.9258,3.9465,3.9951,4.0689,4.1279,4.1762,4.2417,4.2163,4.2015,4.215,4.1972,4.1606,4.1263,4.0571,4.027,-1.3105,-1.3529,-1.4776,-1.5593,-1.6094,-1.7395,-1.7898,-1.7873,-1.7908,-1.7218,-1.5956,-1.2682,-1.0085,-0.7991,-0.5621,-0.2788,0.043,0.3062,0.5374,0.7369,0.8859,1.0412,1.1862,1.1882,1.2388,1.3331,1.3011,1.2952,1.3112,1.3711,1.3859,1.3797,1.4464,1.4464,1.384,1.4099,1.4309,1.4439,1.5981,1.7279,1.822,1.8736,1.9431,2.0275,2.1037,2.2204,2.3722,2.4378,2.4814,2.5206,2.4553,2.3374,2.162,2.0498,1.878,0.0,1.5459,0.0,0.0,0.0,0.0,0.0,0.0,0.0,0.0,1.1248,1.2455,1.4485,1.5486,1.647,1.7699,1.8926,1.9601,1.9606,2.0272,2.0836,2.124,2.1445,2.2258,2.3937,2.5987,2.7631,2.8381,2.9321,3.0478,3.1993,3.2679,3.383,3.56,3.6696,3.7437,3.8114,3.8066,3.8342,3.8616,3.8537,3.8609,3.8926,3.905,3.9154,3.905,3.9465,4.0029,4.0458,4.0869,4.1381,4.2131,4.1763,4.1682,4.184,4.1485,4.1052,4.0663,4.013,3.9729,-1.3119,-1.3847,-1.4268,-1.4776,-1.547,-1.6648,-1.7558,-1.8357,-1.8994,-1.8241,-1.6423,-1.5127,-1.3161,-1.0818,-0.9176,-0.7127,-0.462,-0.0808,0.178,0.3352,0.6141,0.8327,1.0018,1.0077,1.0586,1.1527,1.1156,1.1265,1.1701,1.1527,1.1827,1.2536,1.275,1.2788,1.2673,0.0,0.0,0.0,1.5046,1.614,1.7293,1.7713,1.8484,1.9839,2.15,0.0,2.3394,2.477,2.5672,2.5902,2.5384,0.0,2.3564,0.0,0.0,0.0,0.0,0.0,0.0,0.0,0.0,0.0,1.2988,1.29,1.2688,1.3596,1.4592,1.5605,1.6685,1.759,1.857,1.9618,2.0247,2.0226,2.0933,2.1404,2.1586,2.2316,2.3341,2.4454,2.5484,2.6832,2.8614,2.9186,3.0036,3.1721,3.2531,3.3215,3.3994,3.5338,3.6411,3.7224,3.7947,3.8521,3.8436,3.8331,3.8146,3.8104,3.8104,3.821,3.7998,3.8526,3.8841,3.8778,3.9649,4.0526,4.0376,4.0533,4.0807,4.1348,4.0886,4.0554,4.0361,3.9755,3.9587,-1.2394,-1.2961,-1.3844,-1.4331,0.0,-1.593,-1.6908,-1.7593,-1.8819,-1.8726,-1.7706,-1.6842,-1.5433,-1.3498,-1.1802,-1.026,-0.8606,-0.4925,-0.2243,-0.0341,0.2433,0.4857,0.7034,0.7635,0.8499,0.9501,0.9381,0.9504,0.9837,0.9808,1.0111,1.0743,1.1315,1.17,1.2009,1.2601,1.3042,1.3563,1.4139,1.512,1.6336,1.6672,1.7694,1.9506,2.0923,0.0,0.0,0.0,0.0,0.0,0.0,0.0,0.0,2.419,2.2805,2.0826,1.9475,1.8022,1.6364,1.5565,1.5048,1.4831,1.5189,1.5232,1.5001,1.5695,1.6495,1.7436,1.7902,1.849,1.9284,2.0378,2.095,2.0987,2.1783,2.2314,2.2331,2.3083,2.3891,2.4328,2.5267,2.6435,2.7863,2.8571,2.9368,3.0661,3.1388,3.1996,3.2616,3.4203,3.5689,3.652,3.7145,3.7548,3.7441,3.7441,3.7465,3.7143,3.7251,3.7465,3.7143,3.7892,3.8315,3.7892,3.864,3.9177,3.9043,3.9008,3.9124,3.9515,3.9623,3.9518,3.9337,3.957,3.9966,-1.1674,-1.1956,-1.3359,-1.3876,-1.3894,-1.5297,-1.6178,-1.6691,-1.8329,0.0,0.0,-1.7989,-1.6976,-1.5694,-1.3922,-1.259,-1.1563,-0.8885,-0.6321,-0.3958,-0.1424,0.1057,0.3547,0.5159,0.6478,0.7476,0.7804,0.7957,0.8121,0.8344,0.8653,0.9029,1.01,1.1047,1.1942,1.2939,1.3424,1.3521,1.381,1.4528,1.5779,1.617,1.7395,1.9542,2.048,2.2231,2.4719,2.553,2.6453,2.7461,2.7562,2.719,2.6417,2.5857,2.4738,2.2702,2.1335,2.0053,1.8521,1.7437,1.6831,1.6673,1.695,1.7151,1.6942,1.7123,1.7799,1.8766,1.8891,1.9112,1.9708,2.0714,2.134,2.1294,2.2269,2.2823,2.2689,2.3335,2.3798,2.4076,2.4954,2.5927,2.6682,2.7618,2.8492,2.92,2.9815,3.043,3.1321,3.3253,3.5039,3.584,3.6329,3.6329,3.631,3.6466,3.642,3.6291,3.6686,3.6858,3.6858,3.7402,3.7678,3.7284,3.7536,3.7702,3.7746,3.7512,3.728,3.7517,3.7953,3.8298,3.8066,3.8989,3.9803,-1.1475,-1.2123,-1.2603,-1.2967,-1.3249,-1.4609,-1.5667,-1.653,-1.8227,-1.8667,-1.8112,-1.8044,-1.7234,-1.6026,-1.5416,-1.4402,-1.3201,-1.2276,-1.0264,-0.7476,-0.466,-0.2077,0.0393,0.2847,0.4574,0.574,0.6866,0.7215,0.6962,0.7289,0.7609,0.7918,0.9294,1.0939,1.27,1.317,1.3843,1.4838,1.4828,1.5343,1.6343,1.7286,1.8549,2.03,2.1768,2.3335,2.5051,2.5974,2.6779,2.7567,2.761,2.7543,2.7317,2.6606,2.5601,2.4242,2.3137,2.1795,2.0288,1.9324,1.8372,1.742,1.7575,1.7535,1.7129,1.7302,1.7652,1.8133,1.8638,1.9072,1.9388,2.023,2.0685,2.0565,2.1188,2.1739,2.1677,2.227,2.2925,2.3662,2.4033,2.4694,2.5712,2.6302,2.6932,2.767,2.8289,2.9112,3.0325,3.237,3.4038,3.5062,3.5758,3.6049,3.5953,3.6038,3.5835,3.5945,3.6108,3.6293,3.6156,3.6952,3.7175,3.6409,3.6607,3.6603,3.5934,3.5908,3.5914,3.6095,3.6206,3.627,3.6418,3.7193,3.804,-1.0753,-1.156,-1.2153,-1.235,-1.2255,-1.354,-1.4553,-1.5307,-1.6381,-1.7073,-1.7359,-1.722,-1.679,-1.6252,-1.5555,-1.488,-1.4038,-1.3992,-1.2383,-0.9676,-0.778,-0.5543,-0.2988,-0.0568,0.1301,0.2659,0.4006,0.4851,0.5277,0.5846,0.6389,0.714,0.9163,1.1176,1.294,1.3659,1.4629,1.5826,1.5517,1.5948,1.7243,1.8185,1.9407,2.1032,2.2311,2.3582,2.4916,2.5591,2.6325,2.706,2.7296,2.7411,2.7336,2.7122,2.6529,2.5353,2.4447,2.3473,2.2442,2.0875,1.9407,1.8021,1.7506,1.7044,1.6322,1.6978,1.7613,1.7865,1.8119,1.8491,1.8972,1.9676,2.0089,1.9952,2.0744,2.1161,2.1191,2.1715,2.2273,2.2557,2.2991,2.3337,2.3967,2.449,2.5082,2.5805,2.6744,2.7672,2.8429,2.9654,3.1385,3.3146,3.4052,3.437,3.4463,3.4484,3.4484,3.4365,3.4719,3.4955,3.4955,3.554,3.5685,3.5259,3.5135,3.4761,3.4069,3.3721,3.3699,3.3557,3.3853,3.397,3.4202,3.4762,3.6189,-0.9933,-1.084,-1.1575,-1.1811,-1.1689,-1.2516,-1.3243,-1.3901,-1.4295,-1.5048,-1.5889,-1.5955,-1.5974,-1.5906,-1.5216,-1.4665,-1.4401,-1.4751,-1.3535,-1.114,-1.023,-0.8418,-0.5692,-0.3817,-0.2026,-0.0172,0.0861,0.2067,0.3628,0.421,0.5313,0.6757,0.8941,1.096,1.2808,1.3845,1.5055,1.6429,1.6211,1.6779,1.8118,1.9079,2.0218,2.17,2.2793,2.3898,2.4847,2.5565,2.6238,2.6907,2.7369,2.7614,2.7544,2.758,2.7179,2.6173,2.5345,2.4581,2.3758,2.1825,2.0011,1.8501,1.7505,1.6462,1.5688,1.6176,1.677,1.7103,1.7183,1.7455,1.795,1.8659,1.9018,1.9137,1.9972,2.0369,2.0213,2.0898,2.1306,2.1133,2.1435,2.1751,2.2062,2.2486,2.317,2.3917,2.5001,2.5814,2.6199,2.6889,2.8467,3.0332,3.1673,3.2305,3.2466,3.2769,3.2789,3.2627,3.3134,3.3538,3.3659,3.386,3.4139,3.4077,3.3551,3.3207,3.2829,3.2213,3.1779,3.1721,3.1939,3.2098,3.1938,3.2673,3.4065,-0.9525,-1.0161,-1.0615,-1.1234,-1.1845,-1.1827,-1.2064,-1.2472,-1.2648,-1.2896,-1.3439,-1.4378,-1.481,-1.4783,-1.4421,-1.4076,-1.391,-1.4695,-1.378,-1.1817,-1.1754,-0.9956,-0.6945,-0.6456,-0.4491,-0.1687,-0.1685,-0.0374,0.206,0.2536,0.4076,0.6649,0.8042,0.9855,1.1919,1.3196,1.4663,1.6558,1.7093,1.7874,1.892,1.9952,2.1062,2.2158,2.3489,2.4619,2.5405,2.6637,2.7442,2.7962,2.852,2.8769,2.8594,2.7974,2.7285,2.6844,2.581,2.4614,2.3299,2.1669,2.021,1.8967,1.7505,1.6288,1.5075,1.4375,1.4394,1.5024,1.5248,1.5628,1.6011,1.6629,1.7156,1.7561,1.8398,1.8803,1.8926,1.9524,1.9901,1.9726,1.9586,1.9586,2.0194,2.0886,2.1461,2.2002,2.3092,2.3804,2.3951,2.4908,2.5855,2.703,2.869,3.0175,3.0501,3.1084,3.1376,3.1413,3.1959,3.2409,3.2604,3.3,3.3395,3.2838,3.2701,3.2383,3.2168,3.1769,3.1347,3.0971,3.0823,3.0709,3.0822,3.1189,3.2448,-0.9349,-0.9883,-1.0147,-1.0383,-1.06,-1.0792,-1.092,-1.1059,-1.1278,-1.152,-1.179,-1.2478,-1.3142,-1.3899,-1.3335,-1.3097,-1.3132,-1.3513,-1.2983,-1.1616,-1.1087,-0.9947,-0.8448,-0.7589,-0.6116,-0.4384,-0.3752,-0.2455,-0.0394,0.1391,0.3344,0.5399,0.6807,0.8646,1.0883,1.2107,1.3779,1.5967,1.6661,1.7733,1.9313,2.0167,2.0907,2.1793,2.2989,2.3791,2.4455,2.5637,2.6686,2.7419,2.8045,2.8369,2.8344,2.7851,2.7447,2.6772,2.5698,2.4416,2.2859,2.1496,2.0246,1.8954,1.7264,1.5746,1.4671,1.3744,1.3352,1.3396,1.3833,1.4272,1.4804,1.5545,1.6131,1.6668,1.744,1.7988,1.7832,1.8665,1.8994,1.8381,1.7984,1.7961,1.8438,1.9264,1.9939,2.0269,2.1243,2.2089,2.24,2.3175,2.3624,2.4181,2.5398,2.683,2.8279,2.9117,2.9657,3.0065,3.0584,3.0972,3.1488,3.1616,3.1798,3.1612,3.1299,3.1113,3.1053,3.0296,2.9795,2.9956,2.9546,2.9047,2.8706,2.8968,2.9796,-0.9044,-0.9549,-0.9683,-0.9698,-0.9616,-0.9855,-0.9902,-0.9969,-1.0209,-1.0401,-1.0649,-1.0968,-1.1702,-1.2601,-1.2272,-1.2201,-1.237,-1.2367,-1.1963,-1.1268,-1.0233,-0.953,-0.9158,-0.8498,-0.7496,-0.6535,-0.5551,-0.4187,-0.2457,-0.0105,0.2033,0.3496,0.497,0.6857,0.9091,1.0486,1.2275,1.4531,1.5488,1.6834,1.8577,1.9346,2.0125,2.1243,2.2429,2.2971,2.3187,2.4456,2.5532,2.6181,2.697,2.7353,2.7285,2.7125,2.6518,2.5679,2.4811,2.3602,2.2245,2.1118,1.9878,1.8476,1.6763,1.534,1.4392,1.343,1.2816,1.2545,1.2829,1.3303,1.3927,1.4691,1.5309,1.5854,1.6747,1.7092,1.7092,1.7752,1.7806,1.6997,1.6771,1.6713,1.7078,1.793,1.8604,1.8772,1.9692,2.0515,2.0792,2.1195,2.1609,2.2035,2.2435,2.3788,2.6069,2.7137,2.7684,2.8362,2.8888,2.9543,3.01,3.023,3.0343,3.033,2.9749,2.9678,2.9917,2.9287,2.8604,2.8858,2.8604,2.7966,2.781,2.7588,2.7817,-0.858,-0.9178,-0.9023,-0.9248,-0.9667,-0.9167,-0.9122,-0.9343,-0.9443,-0.9687,-0.9969,-1.0284,-1.0593,-1.1154,-1.1262,-1.1508,-1.1731,-1.1538,-1.1218,-1.0708,-0.9345,-0.8621,-0.8787,-0.902,-0.8367,-0.7135,-0.7034,-0.585,-0.3834,-0.2191,-0.0446,0.123,0.2643,0.435,0.6432,0.8219,1.0199,1.2218,1.3442,1.5022,1.6457,1.7055,1.8429,2.0744,2.2024,2.2189,2.222,2.355,2.4327,2.4327,2.541,2.5773,2.5371,2.5093,2.4496,2.3392,2.2812,2.2245,2.1377,2.033,1.9073,1.7576,1.6334,1.5228,1.4254,1.3387,1.2848,1.2608,1.2612,1.292,1.3368,1.3933,1.4481,1.5409,1.5644,1.5948,1.6338,1.6318,1.6145,1.6045,1.5629,1.574,1.6314,1.6767,1.7308,1.7559,1.8142,1.8714,1.8982,1.9401,1.982,2.0388,2.0804,2.1622,2.3665,2.5143,2.5965,2.6635,2.7435,2.8097,2.8395,2.879,2.8922,2.9168,2.8952,2.8935,2.9117,2.8838,2.8212,2.8179,2.8293,2.7785,2.7261,2.719,2.7387,-0.922,-0.9154,-0.9073,-0.8915,-0.8709,-0.8706,-0.8624,-0.8519,-0.8562,-0.8705,-0.8978,-0.9346,-0.963,-0.996,-1.0446,-1.084,-1.1119,-1.0913,-1.0817,-1.058,-0.921,-0.8834,-0.9519,-0.9334,-0.9133,-0.8699,-0.8221,-0.7134,-0.5447,-0.4017,-0.2553,-0.1171,0.0355,0.2159,0.4007,0.5354,0.7185,0.9519,1.0733,1.2534,1.4826,1.53,1.6374,1.7923,1.9061,1.951,1.9394,2.063,2.1412,2.1609,2.2767,2.344,2.3456,2.3368,2.2944,2.2126,2.1891,2.1421,2.0502,1.9614,1.8423,1.7236,1.5898,1.4871,1.4182,1.3635,1.3234,1.3054,1.2936,1.2928,1.3028,1.3665,1.4257,1.4833,1.521,1.5338,1.5447,1.5769,1.581,1.5016,1.4833,1.5171,1.58,1.6336,1.6613,1.6875,1.7449,1.7882,1.8293,1.8714,1.9005,1.9552,1.997,2.0376,2.122,2.3119,2.4481,2.5278,2.595,2.6902,2.7435,2.7716,2.7981,2.8246,2.8114,2.823,2.823,2.8362,2.77,2.7185,2.7318,2.7318,2.6769,2.6918,2.7067,-1.0052,-0.9512,-0.9235,-0.8924,-0.8559,-0.8422,-0.826,-0.8006,-0.8098,-0.8225,-0.8426,-0.8826,-0.9101,-0.9376,-0.9867,-1.0352,-1.0782,-1.081,-1.0797,-1.0795,-0.9999,-0.989,-1.0417,-1.0032,-0.9993,-1.0089,-0.9388,-0.8248,-0.7051,-0.6016,-0.4993,-0.3725,-0.2052,-0.0365,0.1472,0.2704,0.4539,0.6607,0.795,0.9902,1.2259,1.3,1.3769,1.4801,1.5523,1.6317,1.7067,1.7985,1.8478,1.8764,1.9596,2.0289,2.0628,2.0612,2.0523,2.0295,2.0053,1.9824,1.912,1.8312,1.7451,1.6361,1.5317,1.4484,1.3996,1.3637,1.3271,1.2959,1.2841,1.2641,1.2323,1.2612,1.3382,1.392,1.4297,1.444,1.4371,1.4928,1.4782,1.4396,1.4423,1.4882,1.5329,1.5652,1.6018,1.631,1.6793,1.7268,1.7845,1.8117,1.8259,1.8812,1.8887,1.9133,1.968,2.0918,2.2572,2.3529,2.4602,2.5547,2.6218,2.662,2.6902,2.7185,2.7318,2.7451,2.7451,2.7567,2.7035,2.6234,2.6368,2.6501,2.6368,2.6517,2.6651,-1.0886,-1.0127,-0.9566,-0.9388,-0.9164,-0.8494,-0.8068,-0.8078,-0.813,-0.823,-0.8435,-0.8803,-0.9052,-0.9376,-0.9731,-1.0105,-1.0578,-1.0974,-1.1278,-1.1291,-1.1554,-1.1612,-1.1673,-1.1268,-1.1224,-1.1508,-1.068,-0.9662,-0.8524,-0.8153,-0.7485,-0.6284,-0.4655,-0.296,-0.1231,0.0247,0.1851,0.3702,0.5176,0.6931,0.8883,1.0012,1.0937,1.1705,1.1846,1.2773,1.4943,1.5529,1.5592,1.5525,1.6028,1.6552,1.692,1.6999,1.7134,1.7426,1.7291,1.7156,1.7067,1.6631,1.5991,1.5041,1.428,1.3681,1.3486,1.3267,1.2974,1.2564,1.2335,1.1749,1.0913,1.0742,1.1497,1.2919,1.276,1.2765,1.3287,1.3493,1.3705,1.3857,1.4301,1.4604,1.4621,1.4927,1.5239,1.5675,1.6081,1.6635,1.7067,1.7345,1.7488,1.7735,1.7948,1.817,1.8368,1.8854,2.0376,2.176,2.2983,2.4074,2.4467,2.4858,2.5278,2.5547,2.5831,2.5831,2.5846,2.5965,2.5697,2.5158,2.5427,2.5427,2.5427,2.5427,2.6115,-1.2154,-1.1375,-1.093,-1.0377,-0.9811,-0.899,-0.8714,-0.8637,-0.8443,-0.8417,-0.8643,-0.8837,-0.9155,-0.9525,-0.9827,-1.036,-1.0934,-1.1346,-1.1849,-1.2078,-1.2238,-1.2365,-1.271,-1.2684,-1.2525,-1.2479,-1.2398,-1.1634,-1.0232,-0.9771,-0.9137,-0.7846,-0.6795,-0.5293,-0.3626,-0.2397,-0.1016,0.0634,0.2284,0.3939,0.5478,0.6882,0.7785,0.8187,0.8713,0.9494,1.0176,1.1728,1.2073,1.1492,1.2482,1.3286,1.3662,1.3943,1.44,1.4795,1.4933,1.4942,1.509,1.4613,1.4012,1.3518,1.2791,1.2712,1.283,1.2604,1.2459,1.2306,1.2001,1.1462,1.0624,0.9703,1.0006,1.1175,1.1259,1.1463,1.1881,1.2145,1.2635,1.336,1.3563,1.3727,1.4131,1.4432,1.4822,1.4949,1.5532,1.5958,1.6397,1.6515,1.6698,1.6971,1.7174,1.7191,1.7235,1.7643,1.8823,2.0028,2.1077,2.2263,2.2775,2.309,2.3475,2.383,2.4102,2.436,2.436,2.4252,2.4008,2.383,2.383,2.3966,2.3952,2.4345,2.5022,-1.3678,-1.2749,-1.2043,-1.1369,-1.0694,-0.9856,-0.9508,-0.9496,-0.9157,-0.911,-0.9283,-0.9393,-0.9534,-0.9911,-1.0314,-1.0762,-1.1134,-1.1775,-1.2375,-1.2901,-1.293,-1.3305,-1.3939,-1.4091,-1.3834,-1.3528,-1.3491,-1.2851,-1.1657,-1.115,-1.0342,-0.9274,-0.8314,-0.716,-0.5586,-0.4482,-0.322,-0.1674,-0.0386,0.1032,0.233,0.3757,0.4674,0.5342,0.6264,0.6819,0.6876,0.8519,0.9127,0.8857,0.9497,1.0181,1.0788,1.1009,1.16,1.2119,1.225,1.2382,1.2923,1.2521,1.2018,1.1769,1.1423,1.144,1.1812,1.1898,1.1924,1.1558,1.1175,1.0455,0.9318,0.8841,0.8553,0.8868,0.9474,1.0138,1.0715,1.1161,1.1671,1.2527,1.2742,1.302,1.346,1.3809,1.4213,1.435,1.4612,1.5032,1.5302,1.538,1.5536,1.5811,1.5876,1.594,1.5913,1.6547,1.7369,1.8289,1.9184,2.0239,2.1023,2.1414,2.1732,2.1989,2.2354,2.2664,2.2651,2.2757,2.2796,2.2592,2.2513,2.2677,2.2815,2.3147,2.3665,-1.544,-1.4197,-1.3013,-1.2361,-1.1935,-1.0917,-1.0506,-1.0465,-1.0201,-1.0254,-1.0445,-1.0376,-1.0408,-1.0557,-1.1012,-1.1318,-1.1476,-1.2134,-1.2889,-1.3547,-1.379,-1.4313,-1.5319,-1.5515,-1.5206,-1.4547,-1.4171,-1.3642,-1.3029,-1.2385,-1.1434,-1.0538,-0.9538,-0.8364,-0.734,-0.6062,-0.4794,-0.35,-0.2718,-0.1562,-0.0263,0.0789,0.1851,0.2809,0.4014,0.4684,0.4958,0.5759,0.6435,0.6836,0.7213,0.7607,0.7902,0.8174,0.8839,0.9244,0.9377,0.9933,1.0319,1.0232,1.0105,1.0117,1.0078,1.047,1.0908,1.0888,1.0574,1.0149,0.9879,0.9157,0.7733,0.7383,0.7248,0.6747,0.7783,0.8749,0.9865,1.0395,1.0966,1.1537,1.1931,1.2187,1.2639,1.2838,1.322,1.3412,1.366,1.3917,1.4199,1.4151,1.4107,1.44,1.4784,1.4889,1.4889,1.5676,1.6471,1.6424,1.7388,1.8559,1.9437,1.9791,2.0422,2.0556,2.0745,2.0907,2.1266,2.1657,2.1645,2.1406,2.1381,2.1545,2.152,2.1723,2.2186,-1.7283,-1.5721,-1.5221,-1.4423,-1.3314,-1.2477,-1.1854,-1.1546,-1.1398,-1.1456,-1.1572,-1.1538,-1.1637,-1.1839,-1.1954,-1.226,-1.2674,-1.2822,-1.3414,-1.4189,-1.4152,-1.5001,-1.6145,-1.6675,-1.6329,-1.5633,-1.5426,-1.5326,-1.4382,-1.357,-1.2734,-1.1985,-1.0911,-0.9876,-0.8903,-0.7782,-0.6771,-0.5576,-0.4652,-0.359,-0.2402,-0.1202,-0.0803,-0.0671,0.1074,0.2418,0.2823,0.3096,0.3902,0.4977,0.5111,0.5379,0.6053,0.6183,0.6337,0.6381,0.6808,0.7387,0.8128,0.8143,0.8285,0.8708,0.8311,0.867,1.007,0.9394,0.8897,0.8549,0.8579,0.815,0.7152,0.6929,0.6389,0.5975,0.681,0.8015,0.8765,0.9341,0.9941,1.058,1.0954,1.1201,1.1325,1.175,1.2189,1.2285,1.2539,1.2949,1.3022,1.3086,1.3081,1.3476,1.3679,1.3744,1.4058,1.4851,1.5186,1.4828,1.5711,1.7038,1.791,1.8519,1.9246,1.977,1.9748,1.9957,2.0449,2.0888,2.0639,2.0332,2.0462,2.0521,1.9826,1.9735,2.0447,-1.838,-1.7199,-1.6562,-1.5798,-1.4874,-1.3696,-1.3185,-1.3193,-1.2905,-1.2921,-1.3097,-1.2924,-1.2866,-1.303,-1.326,-1.3341,-1.3532,-1.3821,-1.4164,-1.447,-1.4689,-1.5401,-1.6223,-1.6732,-1.6754,-1.6343,-1.6224,-1.5834,-1.5043,-1.4137,-1.3291,-1.2319,-1.1468,-1.0538,-0.9683,-0.8811,-0.7922,-0.7111,-0.6183,-0.5111,-0.39,-0.3094,-0.2554,-0.242,-0.1075,0.0134,0.1749,0.1885,0.2289,0.3096,0.323,0.323,0.3905,0.4039,0.4062,0.3971,0.4803,0.566,0.614,0.6295,0.6434,0.686,0.6601,0.7076,0.7846,0.7455,0.7225,0.7115,0.7272,0.6986,0.6421,0.604,0.567,0.5419,0.612,0.6913,0.7553,0.8136,0.8693,0.9237,0.9689,1.007,1.0058,1.0928,1.1214,1.1327,1.1543,1.1747,1.19,1.1974,1.2052,1.2374,1.2719,1.2799,1.295,1.371,1.4122,1.3801,1.4374,1.5725,1.6861,1.7575,1.8158,1.8591,1.8717,1.9094,1.9569,1.996,1.9904,1.9726,1.967,1.9759,1.9404,1.8899,1.9334,-1.9183,-1.8576,-1.7379,-1.6757,-1.6269,-1.4845,-1.449,-1.4774,-1.4528,-1.4552,-1.46,-1.4386,-1.4084,-1.409,-1.4492,-1.4633,-1.4254,-1.5002,-1.4955,-1.5196,-1.5317,-1.5808,-1.5711,-1.6508,-1.6721,-1.6364,-1.6104,-1.5834,-1.5313,-1.4137,-1.3218,-1.2413,-1.1372,-1.0591,-1.0167,-0.9256,-0.859,-0.8056,-0.7121,-0.6183,-0.5111,-0.4574,-0.39,-0.3094,-0.2823,-0.1345,0.0673,0.1346,0.1346,0.1616,0.1077,0.1212,0.1751,0.1886,0.204,0.2338,0.332,0.4177,0.4499,0.4811,0.495,0.5109,0.5441,0.5603,0.5928,0.6123,0.5856,0.5259,0.5981,0.5846,0.5271,0.4878,0.4796,0.4696,0.5002,0.5575,0.6113,0.6913,0.7575,0.7996,0.829,0.878,0.9192,0.975,1.0167,1.0343,1.0697,1.0863,1.0998,1.1066,1.1151,1.1114,1.146,1.1663,1.2007,1.2386,1.2755,1.2902,1.3487,1.4605,1.6142,1.6954,1.7237,1.7519,1.8061,1.8387,1.8528,1.8717,1.9033,1.9139,1.9148,1.9517,1.9845,1.9036,1.9107,-2.0561,-1.9145,-1.8807,-1.7986,-1.6879,-1.6133,-1.5634,-1.5518,-1.5749,-1.5714,-1.5577,-1.5556,-1.5331,-1.5117,-1.5773,-1.6114,-1.6113,-1.6294,-1.6101,-1.5961,-1.6115,-1.5903,-1.5784,-1.6224,-1.6353,-1.6234,-1.6364,-1.6234,-1.5574,-1.453,-1.3613,-1.2955,-1.1637,-1.0982,-1.0452,-0.9788,-0.9256,-0.8851,-0.8056,-0.7121,-0.6183,-0.5647,-0.4977,-0.4039,-0.3636,-0.2692,-0.1212,0.0269,0.0269,-0.0808,-0.1213,-0.0945,-0.0405,-0.0272,0.0138,0.1115,0.1691,0.2563,0.3607,0.3637,0.3813,0.4097,0.4133,0.4486,0.5687,0.5083,0.4327,0.3707,0.4583,0.5023,0.4427,0.4036,0.3935,0.3973,0.4142,0.4292,0.4573,0.569,0.6782,0.716,0.7293,0.7632,0.8099,0.8286,0.8849,0.9464,0.9666,0.9826,1.0081,1.0321,1.0292,1.0264,1.0591,1.0956,1.098,1.1337,1.1535,1.1901,1.2528,1.3155,1.47,1.6111,1.6383,1.695,1.7815,1.783,1.7832,1.8431,1.9057,1.8761,1.8648,1.8988,1.9096,1.8801,1.9068,-2.0516,-1.9297,-1.9247,-1.8745,-1.7779,-1.6933,-1.6621,-1.6785,-1.6786,-1.6771,-1.6697,-1.6676,-1.66,-1.6613,-1.7103,-1.7439,-1.7518,-1.7229,-1.6965,-1.6637,-1.6571,-1.6104,-1.5724,-1.5984,-1.6104,-1.5854,-1.6104,-1.6104,-1.5453,-1.4399,-1.3341,-1.2947,-1.1505,-1.0717,-1.0452,-0.9788,-0.9256,-0.8984,-0.8456,-0.7655,-0.6853,-0.6317,-0.5672,-0.4747,-0.4077,-0.3405,-0.2745,-0.1099,-0.1098,-0.1922,-0.2196,-0.2053,-0.1773,-0.1653,-0.1117,-0.0566,-0.0,0.0432,0.1311,0.1916,0.2226,0.2825,0.2707,0.378,0.4545,0.4394,0.3474,0.2849,0.298,0.3411,0.3543,0.3172,0.3211,0.3536,0.3719,0.3878,0.4002,0.485,0.5664,0.6054,0.6338,0.6693,0.6915,0.7272,0.782,0.8416,0.9066,0.9226,0.9532,0.9789,0.9789,0.9773,0.9927,1.0098,0.9949,1.0131,1.0624,1.0987,1.1654,1.1985,1.2943,1.4213,1.5482,1.619,1.6888,1.7283,1.735,1.8133,1.8692,1.8601,1.8521,1.8481,1.8683,1.8798,1.9096,-2.021,-1.9409,-1.9326,-1.9224,-1.8783,-1.7648,-1.7548,-1.815,-1.7735,-1.7639,-1.7779,-1.7668,-1.7677,-1.8016,-1.8387,-1.8585,-1.8618,-1.8117,-1.7714,-1.7363,-1.7022,-1.6529,-1.6033,-1.6073,-1.5974,-1.5593,-1.5854,-1.5724,-1.5062,-1.4006,-1.2947,-1.2421,-1.0982,-1.0193,-0.9921,-0.9516,-0.9117,-0.8984,-0.859,-0.7922,-0.7263,-0.674,-0.6115,-0.4947,-0.4409,-0.3737,-0.3205,-0.2375,-0.196,-0.2245,-0.239,-0.2378,-0.2229,-0.2236,-0.212,-0.2147,-0.1437,-0.087,-0.0293,0.0148,0.0749,0.1346,0.1513,0.2285,0.3511,0.3515,0.305,0.2424,0.2107,0.1641,0.2517,0.2733,0.2625,0.2948,0.3599,0.3753,0.3562,0.3982,0.4396,0.4782,0.5212,0.569,0.605,0.6409,0.6953,0.7493,0.8136,0.8622,0.8925,0.9075,0.9066,0.9221,0.9521,0.9516,0.9366,0.9422,0.9756,1.0101,1.0617,1.0978,1.1482,1.245,1.3727,1.5063,1.5776,1.6216,1.6707,1.7299,1.7813,1.8086,1.8213,1.8174,1.8508,1.8957,1.9145,-2.1131,-2.0018,-1.9813,-1.9706,-1.9466,-1.8939,-1.8671,-1.8677,-1.8514,-1.8411,-1.8141,-1.8174,-1.8253,-1.8478,-1.8972,-1.9394,-1.9574,-1.91,-1.8536,-1.823,-1.7851,-1.7218,-1.653,-1.6518,-1.6333,-1.5724,-1.5593,-1.5463,-1.467,-1.3341,-1.2553,-1.2025,-1.0578,-0.9794,-0.9655,-0.9389,-0.8984,-0.8984,-0.859,-0.8056,-0.7555,-0.7211,-0.6469,-0.5156,-0.4748,-0.406,-0.3085,-0.3089,-0.3087,-0.2388,-0.2694,-0.2703,-0.242,-0.2282,-0.2147,-0.1872,-0.2046,-0.1771,-0.1039,-0.0756,-0.0306,0.0154,0.0465,0.0935,0.1716,0.1872,0.1866,0.1848,-0.0,-0.0,-0.0,0.156,0.2359,0.2534,0.2697,0.2696,0.2356,0.2649,0.3243,0.3797,0.4228,0.4818,0.5325,0.5835,0.6358,0.6718,0.7205,0.7838,0.8145,0.8301,0.8457,0.8613,0.8929,0.8929,0.8929,0.9002,0.9051,0.9075,0.9596,0.9827,1.0329,1.0988,1.193,1.3047,1.4464,1.539,1.5914,1.644,1.6889,1.7159,1.7493,1.7826,1.7988,1.8309,1.8667,-2.1155,-2.0161,-2.0161,-1.9989,-1.9812,-1.9957,-1.9847,-1.9479,-1.9007,-1.8926,-1.887,-1.8686,-1.9067,-1.9613,-1.9747,-1.9984,-2.0054,-1.9749,-1.9087,-1.8716,-1.8345,-1.7679,-1.6877,-1.6903,-1.626,-1.5694,-1.5463,-1.4931,-1.4006,-1.2947,-1.2025,-1.1233,-1.0047,-0.9389,-0.9256,-0.8984,-0.8717,-0.8584,-0.8323,-0.7957,-0.7341,-0.7159,-0.614,-0.536,-0.4817,-0.4261,-0.3573,-0.3292,-0.3437,-0.3013,-0.3023,-0.2898,-0.2621,-0.2483,-0.2191,-0.2051,-0.2228,-0.2252,-0.1805,-0.1833,-0.1849,-0.139,-0.1254,-0.0633,0.0159,0.0796,-0.0,-0.0,-0.0,-0.0,-0.0,-0.0,0.128,0.1922,0.2243,0.2075,0.1904,0.2208,0.2654,0.3086,0.3854,0.446,0.4604,0.526,0.5761,0.6098,0.6427,0.69,0.7369,0.7365,0.7369,0.7838,0.8154,0.831,0.8324,0.8554,0.8622,0.8495,0.8728,0.9116,0.9332,0.9998,1.0372,1.0891,1.2332,1.4187,1.4976,1.5465,1.5913,1.6384,1.688,1.7199,1.7417,1.7678,1.8169,-2.1124,-2.0338,-2.0495,-2.0359,-2.0181,-2.0572,-2.0584,-2.0184,-1.933,-1.9223,-1.9539,-1.914,-1.9538,-2.0485,-2.0514,-2.0322,-2.0254,-1.9905,-1.9421,-1.8922,-1.8435,-1.7942,-1.7338,-1.7014,-1.6626,-1.5992,-1.5844,-1.4931,-1.3473,-1.2553,-1.163,-1.0704,-0.9516,-0.8984,-0.8851,-0.859,-0.8323,-0.8061,-0.7952,-0.7747,-0.7181,-0.643,-0.5803,-0.5301,-0.4878,-0.4469,-0.4061,-0.3939,-0.3798,-0.3512,-0.3378,-0.3248,-0.3127,-0.2841,-0.2695,-0.2699,-0.2571,-0.2581,-0.2593,-0.2616,-0.2638,-0.264,-0.3161,-0.239,-0.1282,-0.0,-0.0,-0.0,-0.0,-0.0,-0.0,-0.0,-0.0,0.0973,0.1451,0.1763,0.1436,0.1588,0.2208,0.2825,0.3615,0.3914,0.4046,0.4354,0.4847,0.5008,0.5335,0.5495,0.5962,0.6115,0.6427,0.7056,0.7369,0.7686,0.7867,0.8089,0.8154,0.805,0.8315,0.8574,0.8788,0.8994,0.935,0.9687,1.0986,1.2553,1.3513,1.4475,1.5139,1.5626,1.6274,1.6742,1.7021,1.7271,1.7873,-2.1742,-2.1286,-2.0885,-2.0924,-2.1033,-2.0731,-2.0464,-2.0275,-1.9546,-1.9297,-1.9479,-1.9213,-1.94,-2.0038,-2.0487,-2.0592,-2.0378,-1.9878,-1.9404,-1.906,-1.8728,-1.8298,-1.7827,-1.7984,-1.7256,-1.652,-1.6291,-1.5173,-1.3604,-1.2421,-1.1365,-1.0306,-0.925,-0.859,-0.8323,-0.8189,-0.7922,-0.7675,-0.7617,-0.7617,-0.7209,-0.6547,-0.603,-0.5643,-0.5229,-0.4799,-0.4384,-0.4268,-0.4295,-0.3714,-0.4045,-0.3918,-0.3631,-0.3664,-0.3527,-0.3379,-0.3076,-0.2619,-0.2932,-0.2954,-0.2972,-0.329,-0.3652,-0.3512,-0.2578,-0.0,-0.0,-0.0,-0.0,-0.0,-0.0,-0.0,-0.0,-0.0,-0.0,-0.0,-0.0,0.0962,0.1593,0.2377,0.3168,0.3311,0.3295,0.3609,0.4081,0.4081,0.4081,0.44,0.4719,0.5038,0.5335,0.5962,0.6595,0.6908,0.7106,0.7477,0.7709,0.7605,0.8032,0.8314,0.8352,0.854,0.872,0.9216,1.0195,1.102,1.1818,1.2814,1.4009,1.4818,1.5264,1.5951,1.6647,1.7051,1.7405,-2.1701,-2.1626,-2.1267,-2.1139,-2.1031,-2.082,-2.0676,-2.0439,-1.9928,-1.9668,-1.9652,-1.9427,-1.9532,-1.9852,-2.0047,-2.0071,-1.9842,-1.9516,-1.9172,-1.9087,-1.879,-1.845,-1.8166,-1.8018,-1.7497,-1.6943,-1.6487,-1.5564,-1.3866,-1.2421,-1.1233,-1.0174,-0.8984,-0.8323,-0.8061,-0.7927,-0.7564,-0.7369,-0.7212,-0.7055,-0.6847,-0.6474,-0.6083,-0.5535,-0.5247,-0.4973,-0.4714,-0.4588,-0.4628,-0.4349,-0.4384,-0.4254,-0.3971,-0.3844,-0.3708,-0.3737,-0.3428,-0.3272,-0.312,-0.3447,-0.3452,-0.3631,-0.3831,-0.4059,-0.3113,-0.0,-0.0,-0.0,-0.0,-0.0,-0.0,-0.0,-0.0,-0.0,-0.0,-0.0,-0.0,-0.0,0.0806,0.1764,0.2713,0.2704,0.2852,0.3319,0.3629,0.378,0.3784,0.395,0.4275,0.4447,0.4742,0.5025,0.5658,0.6135,0.6497,0.6865,0.7275,0.7495,0.7713,0.7978,0.8202,0.8227,0.8399,0.8566,0.9054,0.9721,1.0404,1.1564,1.3045,1.3549,1.4052,1.4878,1.5538,1.6024,1.6605,-2.1386,-2.1727,-2.1553,-2.1131,-2.0727,-2.0927,-2.0817,-2.0564,-2.0019,-1.9895,-1.9854,-1.9492,-1.9445,-1.9613,-1.9623,-1.9515,-1.9374,-1.8945,-1.8816,-1.8865,-1.8797,-1.8584,-1.8326,-1.7925,-1.7449,-1.6707,-1.6892,-1.6141,-1.4651,-1.2947,-1.1497,-1.0174,-0.9117,-0.8323,-0.7932,-0.7704,-0.7495,-0.7083,-0.7055,-0.6851,-0.6618,-0.638,-0.5967,-0.5686,-0.5256,-0.5134,-0.5043,-0.4926,-0.4959,-0.501,-0.4739,-0.4463,-0.4488,-0.4343,-0.4201,-0.4224,-0.4075,-0.3918,-0.3762,-0.3768,-0.3925,-0.4112,-0.433,-0.4581,-0.349,-0.0,-0.0,-0.0,-0.0,-0.0,-0.0,-0.0,-0.0,-0.0,-0.0,-0.0,-0.0,-0.0,0.0325,0.0964,0.1763,0.2416,0.2566,0.3029,0.3333,0.3478,0.3482,0.3495,0.3825,0.3999,0.413,0.4414,0.4742,0.5224,0.5572,0.5944,0.6499,0.7058,0.7436,0.7813,0.804,0.806,0.8227,0.8232,0.8399,0.8733,0.9402,1.0737,1.1902,1.2567,1.3058,1.3721,1.4217,1.4886,1.5806,-2.0943,-2.1695,-2.1427,-2.1033,-2.0483,-2.0837,-2.0744,-2.0343,-1.987,-1.9629,-1.9625,-1.9302,-1.929,-1.939,-1.9177,-1.9136,-1.936,-1.896,-1.8722,-1.8784,-1.877,-1.8544,-1.8244,-1.7924,-1.7718,-1.7236,-1.7256,-1.6829,-1.5923,-1.4146,-1.2157,-1.0306,-0.9383,-0.8451,-0.7973,-0.765,-0.7355,-0.7051,-0.6856,-0.6905,-0.6657,-0.6402,-0.6119,-0.6123,-0.569,-0.5427,-0.5793,-0.555,-0.5316,-0.5382,-0.5117,-0.4828,-0.4839,-0.4688,-0.4698,-0.486,-0.4865,-0.4709,-0.4552,-0.4238,-0.4241,-0.4742,-0.4973,-0.5074,-0.448,-0.1842,-0.0,-0.0,-0.0,-0.0,-0.1668,-0.2337,-0.1503,-0.0,-0.0,-0.0,-0.0,-0.0,0.0164,0.0323,0.0807,0.1628,0.2446,0.2923,0.2735,0.2723,0.3059,0.3071,0.3212,0.3374,0.3508,0.3809,0.4137,0.4467,0.4646,0.5177,0.5903,0.645,0.6991,0.752,0.7889,0.806,0.806,0.8227,0.8399,0.8232,0.8399,0.9736,1.0737,1.1403,1.2069,1.2395,1.3383,1.4383,1.5378,-1.9642,-1.9949,-2.0189,-2.0387,-2.0641,-2.0937,-2.0819,-2.0466,-2.0188,-1.9816,-1.9365,-1.9186,-1.9055,-1.8964,-1.8764,-1.8554,-1.8466,-1.8185,-1.817,-1.8176,-1.8276,-1.8298,-1.8006,-1.7897,-1.778,-1.7672,-1.7554,-1.7285,-1.6592,-1.5463,-1.4146,-1.2297,-1.0306,-0.9046,-0.8314,-0.7764,-0.7341,-0.7123,-0.6905,-0.6962,-0.6974,-0.6696,-0.6555,-0.6268,-0.6268,-0.5897,-0.5992,-0.5578,-0.5507,-0.5584,-0.5318,-0.5173,-0.5022,-0.5022,-0.5179,-0.5335,-0.5492,-0.5492,-0.5335,-0.4868,-0.4721,-0.4929,-0.5155,-0.5229,-0.4959,-0.2842,-0.151,-0.0,-0.0839,-0.1342,-0.1509,-0.2349,-0.2348,-0.1665,-0.1326,-0.0991,-0.066,-0.0497,-0.0332,-0.0328,0.0329,0.0995,0.1824,0.2649,0.2294,0.195,0.2288,0.2624,0.2768,0.2915,0.3061,0.3046,0.3372,0.3719,0.3734,0.4427,0.5297,0.5829,0.6366,0.6878,0.7391,0.806,0.806,0.8227,0.8232,0.8227,0.8399,0.8901,0.9569,1.0237,1.0737,1.0904,1.2222,1.3562,1.4732,-1.883,-1.8926,-1.9156,-1.9662,-2.0189,-2.0623,-2.061,-2.0238,-2.0112,-1.9837,-1.9288,-1.9151,-1.9079,-1.889,-1.8583,-1.838,-1.8149,-1.7887,-1.7716,-1.7764,-1.7747,-1.7879,-1.774,-1.775,-1.7781,-1.7749,-1.7711,-1.7427,-1.713,-1.7066,-1.5603,-1.3604,-1.1497,-1.0257,-0.8927,-0.8159,-0.7438,-0.7195,-0.6945,-0.699,-0.699,-0.6845,-0.6845,-0.6555,-0.6413,-0.6496,-0.6301,-0.6208,-0.5975,-0.5907,-0.5805,-0.5492,-0.5492,-0.5492,-0.5492,-0.5805,-0.5965,-0.6118,-0.5962,-0.5651,-0.5198,-0.539,-0.548,-0.5381,-0.4777,-0.3836,-0.2519,-0.1848,-0.1682,-0.1684,-0.1682,-0.2355,-0.2679,-0.2161,-0.2006,-0.1668,-0.1657,-0.1492,-0.1332,-0.1164,-0.0502,-0.0335,0.0837,0.167,0.1831,-0.0,-0.0,-0.0,0.2137,0.2293,0.2617,0.2605,0.2598,0.2944,0.3134,0.3817,0.4503,0.4846,0.5538,0.6211,0.6721,0.7391,0.7725,0.7897,0.7897,0.806,0.8227,0.8566,0.8901,0.9235,0.9741,1.0419,1.0992,1.2527,1.3418,-1.8931,-1.8892,-1.8686,-1.8752,-1.9069,-1.9629,-1.9845,-1.9576,-1.9325,-1.9159,-1.9067,-1.8926,-1.9064,-1.9033,-1.8352,-1.8151,-1.8094,-1.7806,-1.7623,-1.7672,-1.7448,-1.7378,-1.7526,-1.7628,-1.7577,-1.7678,-1.7754,-1.7622,-1.7529,-1.7174,-1.6244,-1.4959,-1.3013,-1.1368,-0.9875,-0.8588,-0.7898,-0.7548,-0.7276,-0.7131,-0.699,-0.67,-0.67,-0.6845,-0.67,-0.6639,-0.6919,-0.6502,-0.6434,-0.6559,-0.6271,-0.6115,-0.6115,-0.6115,-0.6115,-0.6275,-0.6275,-0.6275,-0.6278,-0.5965,-0.5824,-0.5701,-0.5805,-0.5872,-0.573,-0.4641,-0.3363,-0.2858,-0.2691,-0.2692,-0.2692,-0.269,-0.284,-0.2837,-0.2686,-0.2687,-0.2501,-0.2162,-0.2006,-0.1843,-0.2182,-0.2187,-0.0673,0.0336,0.0841,-0.0,-0.0,-0.0,-0.0,0.149,0.1821,0.2314,0.2305,0.2642,0.2827,0.3179,0.3696,0.4036,0.4539,0.5379,0.5882,0.6385,0.6888,0.7227,0.7562,0.7558,0.7893,0.8064,0.845,0.8835,0.9613,1.0121,1.0709,1.1294,1.2186,-1.7833,-1.7949,-1.7838,-1.7807,-1.8015,-1.8778,-1.9016,-1.8889,-1.8514,-1.8078,-1.7618,-1.7638,-1.7626,-1.7535,-1.7571,-1.7488,-1.7582,-1.7702,-1.7609,-1.7368,-1.7152,-1.7254,-1.7289,-1.7065,-1.7279,-1.7923,-1.799,-1.7964,-1.8185,-1.7282,-1.6364,-1.5211,-1.3703,-1.1983,-1.0599,-0.953,-0.8987,-0.8136,-0.7706,-0.7566,-0.7135,-0.6845,-0.6845,-0.699,-0.6845,-0.6929,-0.7235,-0.6792,-0.6728,-0.6866,-0.6577,-0.6424,-0.6427,-0.6431,-0.6587,-0.6587,-0.6747,-0.693,-0.6964,-0.6828,-0.6511,-0.6397,-0.6311,-0.6217,-0.5875,-0.5648,-0.4691,-0.4036,-0.387,-0.3701,-0.3365,-0.3532,-0.3519,-0.3686,-0.353,-0.3528,-0.335,-0.285,-0.2522,-0.2352,-0.2692,-0.2692,-0.1683,-0.0673,-0.0,-0.0,-0.0,-0.0,-0.0,-0.0,0.0837,0.1674,0.2005,0.2508,0.285,0.3024,0.3197,0.3533,0.4036,0.4539,0.5043,0.5547,0.605,0.6389,0.6888,0.7223,0.7577,0.7784,0.8228,0.8607,0.9238,0.9559,0.9797,1.0366,1.0907,-1.7168,-1.7062,-1.7374,-1.7299,-1.7171,-1.7882,-1.812,-1.8018,-1.7707,-1.7216,-1.6828,-1.6878,-1.686,-1.6599,-1.6586,-1.6524,-1.6868,-1.7543,-1.7197,-1.6851,-1.6465,-1.6434,-1.6284,-1.6425,-1.668,-1.7422,-1.7766,-1.7987,-1.7378,-1.6732,-1.5744,-1.4714,-1.3747,-1.2528,-1.1287,-1.0469,-0.9729,-0.8863,-0.8435,-0.8145,-0.7566,-0.7276,-0.7276,-0.7135,-0.7007,-0.7064,-0.717,-0.7089,-0.6842,-0.7119,-0.7018,-0.703,-0.7045,-0.7213,-0.7213,-0.7373,-0.7221,-0.7417,-0.7473,-0.7545,-0.7065,-0.6919,-0.6877,-0.6745,-0.64,-0.6493,-0.6032,-0.5549,-0.5216,-0.4712,-0.4206,-0.4372,-0.4036,-0.4201,-0.4034,-0.4031,-0.3866,-0.3363,-0.3197,-0.3029,-0.2692,-0.2692,-0.2692,-0.1851,-0.0842,-0.0,-0.0,-0.0,-0.0,-0.0,-0.0,-0.0,-0.0,0.1847,0.2183,0.269,0.2861,0.3197,0.3533,0.387,0.4204,0.4539,0.5043,0.5549,0.6053,0.6566,0.7106,0.7499,0.7925,0.8338,0.8874,0.9043,0.9056,0.9595,1.014,-1.7082,-1.6497,-1.7265,-1.7054,-1.6542,-1.7096,-1.7202,-1.6912,-1.6963,-1.681,-1.6508,-1.6557,-1.6356,-1.6226,-1.6175,-1.598,-1.591,-1.7222,-1.6889,-1.5971,-1.5222,-1.5244,-1.5396,-1.5759,-1.5871,-1.6161,-1.6387,-1.6498,-1.5934,-1.5294,-1.4603,-1.4165,-1.3551,-1.2627,-1.1818,-1.109,-1.0305,-0.9446,-0.9157,-0.8579,-0.7856,-0.7711,-0.7566,-0.7276,-0.7003,-0.7047,-0.7117,-0.7158,-0.7402,-0.7646,-0.7868,-0.8229,-0.8585,-0.8778,-0.8466,-0.8154,-0.7838,-0.7736,-0.7811,-0.789,-0.7948,-0.7799,-0.7545,-0.742,-0.7455,-0.7501,-0.7212,-0.6892,-0.6392,-0.5885,-0.5382,-0.4875,-0.4372,-0.4372,-0.4204,-0.4204,-0.4204,-0.4036,-0.3868,-0.3533,-0.3029,-0.2861,-0.2861,-0.2188,-0.1515,-0.0,-0.0,-0.0,-0.0,-0.0,-0.0,-0.0,-0.0,-0.0,0.1515,0.2188,0.2692,0.2861,0.2862,0.3199,0.3533,0.3709,0.4225,0.4565,0.5056,0.5746,0.6819,0.738,0.7772,0.8007,0.8428,0.8648,0.8828,0.9347,0.9897,-1.6612,-1.6647,-1.682,-1.6712,-1.6311,-1.6348,-1.6022,-1.5431,-1.567,-1.5519,-1.4891,-1.5124,-1.507,-1.4571,-1.4702,-1.4674,-1.4838,-1.5121,-1.5441,-1.4933,-1.4137,-1.4458,-1.4624,-1.4857,-1.5003,-1.5132,-1.5206,-1.5268,-1.5245,-1.4371,-1.3652,-1.3262,-1.3054,-1.2417,-1.2023,-1.1586,-1.0587,-0.9735,-0.959,-0.9013,-0.829,-0.8,-0.7711,-0.7421,-0.7135,-0.7185,-0.7101,-0.7265,-0.7514,-0.765,-0.8153,-0.8515,-0.8769,-0.8778,-0.8622,-0.8622,-0.8476,-0.8508,-0.8599,-0.8486,-0.8558,-0.8336,-0.8073,-0.8086,-0.8119,-0.8335,-0.839,-0.8064,-0.7729,-0.7227,-0.6385,-0.5714,-0.5211,-0.4878,-0.471,-0.471,-0.471,-0.471,-0.4542,-0.387,-0.3365,-0.3029,-0.3029,-0.2692,-0.202,-0.1683,-0.0,-0.0,-0.0,-0.0,-0.0,-0.0,-0.0,-0.0,-0.0,0.1515,0.2188,0.2692,0.2697,0.2703,0.2882,0.3229,0.3404,0.3919,0.4599,0.5651,0.6729,0.7111,0.7309,0.7728,0.8148,0.8377,0.8591,0.9095,0.961,-1.6163,-1.6111,-1.627,-1.6258,-1.6147,-1.5779,-1.5364,-1.492,-1.5088,-1.4686,-1.4004,-1.4019,-1.372,-1.3223,-1.3408,-1.3413,-1.3315,-1.3566,-1.3768,-1.386,-1.3344,-1.3433,-1.3711,-1.3899,-1.4062,-1.4173,-1.4252,-1.4309,-1.4083,-1.3375,-1.2594,-1.2535,-1.2353,-1.1999,-1.1747,-1.1415,-1.0737,-1.0023,-0.959,-0.9302,-0.8724,-0.8145,-0.8145,-0.7711,-0.7425,-0.7331,-0.7248,-0.7543,-0.7472,-0.7612,-0.8251,-0.8607,-0.8862,-0.9056,-0.909,-0.8939,-0.8831,-0.8549,-0.83,-0.8349,-0.8263,-0.8174,-0.7901,-0.7925,-0.8123,-0.8339,-0.8711,-0.8901,-0.8733,-0.8395,-0.7558,-0.6721,-0.6053,-0.5384,-0.5384,-0.5384,-0.5384,-0.5384,-0.4878,-0.4206,-0.3701,-0.3365,-0.3029,-0.2861,-0.2699,-0.2202,-0.1697,-0.0,-0.0,-0.0,-0.0,-0.0,-0.0,-0.0,-0.0,-0.0,0.1683,0.2192,0.2713,0.2721,0.2732,0.2917,0.3099,0.3623,0.4316,0.5204,0.6097,0.6641,0.6845,0.7254,0.7651,0.7862,0.8242,0.8595,0.9121,-1.591,-1.529,-1.5708,-1.5982,-1.5875,-1.5499,-1.5224,-1.4956,-1.4847,-1.4179,-1.3527,-1.3446,-1.3032,-1.2559,-1.2586,-1.2436,-1.2365,-1.2477,-1.271,-1.2655,-1.263,-1.2732,-1.2812,-1.2959,-1.3137,-1.3195,-1.3131,-1.3215,-1.266,-1.2064,-1.1858,-1.188,-1.1913,-1.1678,-1.1133,-1.1123,-1.0593,-0.9879,-0.9735,-0.959,-0.9013,-0.8868,-0.8874,-0.8,-0.7724,-0.7606,-0.7508,-0.7521,-0.7374,-0.7647,-0.8044,-0.855,-0.8957,-0.9501,-0.9542,-0.9417,-0.9306,-0.8707,-0.8427,-0.8154,-0.7729,-0.7309,-0.704,-0.7401,-0.7765,-0.8339,-0.872,-0.8901,-0.8733,-0.8227,-0.7391,-0.6888,-0.6218,-0.572,-0.5384,-0.5384,-0.5384,-0.5219,-0.4719,-0.4214,-0.3873,-0.354,-0.322,-0.3052,-0.2893,-0.2733,-0.2228,-0.137,-0.0,-0.0,-0.0,-0.0,-0.0,-0.0,-0.0,-0.0,-0.0,0.1519,0.2377,0.2737,0.2748,0.2769,0.2965,0.3488,0.4011,0.4549,0.5271,0.5808,0.6174,0.6744,0.7136,0.7342,0.771,0.825,0.8607,-1.634,-1.6417,-1.6296,-1.6077,-1.5754,-1.5258,-1.5006,-1.4998,-1.4735,-1.4223,-1.373,-1.3536,-1.3136,-1.2417,-1.2327,-1.2137,-1.1836,-1.1806,-1.1939,-1.2099,-1.2116,-1.2098,-1.22,-1.239,-1.2357,-1.2131,-1.2185,-1.2111,-1.1497,-1.1136,-1.1059,-1.1212,-1.1228,-1.0955,-1.0665,-1.0662,-1.0161,-0.959,-0.959,-0.959,-0.9157,-0.8868,-0.8579,-0.829,-0.801,-0.7729,-0.7628,-0.7521,-0.7438,-0.7548,-0.8089,-0.8789,-0.9356,-0.9848,-1.0019,-0.9874,-0.975,-0.9154,-0.8697,-0.826,-0.7815,-0.721,-0.7099,-0.7332,-0.7569,-0.8003,-0.8223,-0.8395,-0.8399,-0.7893,-0.7391,-0.6888,-0.6385,-0.5885,-0.5384,-0.5384,-0.5384,-0.5056,-0.4726,-0.4389,-0.3879,-0.3728,-0.3406,-0.3249,-0.309,-0.2929,-0.2767,-0.2425,-0.2079,-0.0,-0.0,-0.0,-0.0,-0.0,-0.0,-0.0,-0.0,-0.0,0.1695,0.2223,0.2766,0.28,0.3005,0.3348,0.37,0.4238,0.4772,0.4943,0.5491,0.6056,0.643,0.6809,0.718,0.7542,0.8075,-1.6089,-1.6018,-1.5811,-1.5748,-1.5539,-1.5164,-1.49,-1.4855,-1.4711,-1.4335,-1.3727,-1.3558,-1.3164,-1.246,-1.2294,-1.2027,-1.1585,-1.127,-1.1335,-1.1396,-1.1454,-1.1414,-1.1574,-1.1876,-1.1736,-1.1629,-1.1489,-1.124,-1.0717,-1.0724,-1.0785,-1.0752,-1.0626,-1.0512,-1.0486,-1.0054,-0.9735,-0.959,-0.9446,-0.9302,-0.9302,-0.9013,-0.8724,-0.8579,-0.815,-0.7874,-0.7619,-0.7521,-0.7434,-0.7394,-0.7951,-0.851,-0.9051,-0.9553,-1.0019,-1.0041,-0.9912,-0.9787,-0.8997,-0.8526,-0.8072,-0.716,-0.6387,-0.6301,-0.6211,-0.6618,-0.7524,-0.7698,-0.8227,-0.7893,-0.7056,-0.6385,-0.5882,-0.5382,-0.5384,-0.5384,-0.5384,-0.5219,-0.4888,-0.4551,-0.4227,-0.4091,-0.3934,-0.3769,-0.3617,-0.3664,-0.3326,-0.2977,-0.2801,-0.2625,-0.1907,-0.1374,-0.0853,-0.0,-0.0,-0.0,-0.0,-0.0,-0.0,0.1901,0.246,0.2844,0.3045,0.3383,0.373,0.4091,0.4448,0.462,0.5157,0.5717,0.6085,0.6276,0.6643,0.6835,0.7391,-1.5577,-1.5183,-1.5206,-1.5195,-1.5252,-1.4933,-1.4711,-1.4505,-1.4585,-1.4343,-1.3678,-1.3631,-1.3117,-1.2662,-1.2221,-1.182,-1.1448,-1.0988,-1.0776,-1.0809,-1.0832,-1.1025,-1.1134,-1.126,-1.1292,-1.1327,-1.1279,-1.0955,-1.0585,-1.0591,-1.0605,-1.0652,-1.0412,-1.0335,-0.9998,-0.9871,-0.959,-0.9446,-0.9302,-0.9302,-0.9302,-0.9302,-0.9013,-0.8724,-0.83,-0.8057,-0.7641,-0.7395,-0.7277,-0.7381,-0.7825,-0.8225,-0.8745,-0.9246,-0.9553,-0.9724,-1.0079,-0.9646,-0.9036,-0.8238,-0.7461,-0.6525,-0.5578,-0.5131,-0.5353,-0.5727,-0.645,-0.7009,-0.7531,-0.7391,-0.6553,-0.605,-0.5549,-0.5214,-0.5384,-0.5384,-0.5384,-0.5216,-0.5051,-0.4717,-0.4576,-0.4445,-0.4297,-0.4299,-0.4171,-0.4224,-0.3893,-0.3539,-0.3184,-0.3357,-0.299,-0.2442,-0.2078,-0.0,-0.0,-0.0,-0.0,-0.0,0.0342,0.1401,0.2138,0.2506,0.2872,0.3407,0.3761,0.3936,0.4474,0.4827,0.5194,0.5554,0.5736,0.592,0.6111,0.6488,0.6531,-1.5897,-1.5803,-1.5958,-1.5592,-1.4779,-1.4483,-1.424,-1.4076,-1.3922,-1.369,-1.3712,-1.3654,-1.3292,-1.2611,-1.2575,-1.2205,-1.1519,-1.093,-1.0809,-1.0863,-1.068,-1.0748,-1.0856,-1.0966,-1.1184,-1.1091,-1.0809,-1.0571,-1.0326,-1.0452,-1.0459,-0.9946,-1.0067,-0.9926,-0.9689,-0.9575,-0.9446,-0.9302,-0.9302,-0.9302,-0.9302,-0.9302,-0.9302,-0.8868,-0.844,-0.8164,-0.7915,-0.7446,-0.736,-0.7448,-0.771,-0.811,-0.8457,-0.8934,-0.9246,-0.9558,-0.9756,-0.9448,-0.8831,-0.8046,-0.7264,-0.6312,-0.5534,-0.5079,-0.5123,-0.4987,-0.5544,-0.5799,-0.6161,-0.6208,-0.5547,-0.5717,-0.5384,-0.5384,-0.5384,-0.5216,-0.5046,-0.5051,-0.4888,-0.4724,-0.4567,-0.462,-0.4502,-0.4529,-0.4577,-0.462,-0.4277,-0.3921,-0.3923,-0.3923,-0.3917,-0.3537,-0.3159,-0.0,-0.0,-0.0,-0.0,-0.0,-0.0345,0.0527,0.1246,0.233,0.2693,0.3052,0.359,0.3945,0.4305,0.4664,0.4841,0.5199,0.5559,0.5744,0.5937,0.5974,0.6207]},{"header":{"parameterUnit":"m.s-1","parameterCategory":1,"la1":31.0,"la2":29.5877,"lo1":-88.7671,"lo2":-86.6584,"dy":0.0162,"dx":0.0185,"nx":115,"ny":88,"refTime":"2024-02-04T18:00:00:Z","depth":0,"parameterNumber":3,"parameterNumberName":"V-component_of_WINDS"},"data":[0.0,0.0,0.0,0.0,0.0,0.0,0.0,0.0,0.0,0.0,0.0,0.0,0.0,0.0,0.0,0.0,0.0,0.0,0.0,0.0,0.0,0.0,0.0,0.0,0.0,0.0,0.0,0.0,0.0,0.0,0.0,0.0,0.0,0.0,0.0,0.0,0.0,0.0,0.0,0.0,0.0,0.0,0.0,0.0,0.0,0.0,0.0,0.0,0.0,0.0,0.0,0.0,0.0,0.0,0.0,0.0,0.0,0.0,0.0,0.0,0.0,0.0,0.0,0.0,0.0,0.0,0.0,0.0,0.0,0.0,0.0,0.0,0.0,0.0,0.0,0.0,0.0,0.0,0.0,0.0,0.0,0.0,0.0,0.0,0.0,0.0,0.0,0.0,0.0,0.0,0.0,0.0,0.0,0.0,0.0,0.0,0.0,0.0,0.0,0.0,0.0,0.0,0.0,0.0,0.0,0.0,0.0,0.0,0.0,0.0,0.0,0.0,0.0,0.0,0.0,0.0,0.0,0.0,0.0,0.0,0.0,0.0,0.0,0.0,0.0,0.0,0.0,0.0,0.0,0.0,0.0,0.0,0.0,0.0,0.0,0.0,0.0,0.0,0.0,0.0,0.0,0.0,0.0,0.0,0.0,0.0,0.0,0.0,0.0,0.0,0.0,0.0,0.0,0.0,0.0,0.0,0.0,0.0,0.0,0.0,0.0,0.0,0.0,0.0,0.0,0.0,0.0,0.0,0.0,0.0,0.0,0.0,0.0,0.0,0.0,0.0,0.0,0.0,0.0,0.0,0.0,0.0,0.0,0.0,0.0,0.0,0.0,0.0,0.0,0.0,0.0,0.0,0.0,0.0,0.0,0.0,0.0,0.0,0.0,0.0,0.0,0.0,0.0,0.0,0.0,0.0,0.0,0.0,0.0,0.0,0.0,0.0,0.0,0.0,0.0,0.0,0.0,0.0,0.0,0.0,0.0,0.0,0.0,0.0,0.0,0.0,0.0,0.0,0.0,0.0,0.0,0.0,0.0,0.0,0.0,0.0,0.0,0.0,0.0,0.0,0.0,0.0,0.0,0.0,0.0,0.0,0.0,0.0,0.0,0.0,0.0,0.0,0.0,0.0,0.0,0.0,0.0,0.0,0.0,0.0,0.0,0.0,0.0,0.0,0.0,0.0,0.0,0.0,0.0,0.0,0.0,0.0,0.0,0.0,0.0,0.0,0.0,0.0,0.0,0.0,0.0,0.0,0.0,0.0,0.0,0.0,0.0,0.0,0.0,0.0,0.0,0.0,0.0,0.0,0.0,0.0,0.0,0.0,0.0,0.0,0.0,0.0,0.0,0.0,0.0,0.0,0.0,0.0,0.0,0.0,0.0,0.0,0.0,0.0,0.0,0.0,0.0,0.0,0.0,0.0,0.0,0.0,0.0,0.0,0.0,0.0,0.0,0.0,0.0,0.0,0.0,0.0,0.0,0.0,0.0,0.0,0.0,0.0,0.0,0.0,0.0,0.0,0.0,0.0,0.0,0.0,0.0,0.0,0.0,0.0,0.0,0.0,0.0,0.0,0.0,0.0,0.0,0.0,0.0,0.0,0.0,0.0,0.0,0.0,0.0,0.0,0.0,0.0,0.0,0.0,0.0,0.0,0.0,0.0,0.0,0.0,0.0,0.0,0.0,0.0,0.0,0.0,0.0,0.0,0.0,0.0,0.0,0.0,0.0,0.0,0.0,0.0,0.0,0.0,0.0,0.0,0.0,0.0,0.0,0.0,0.0,0.0,0.0,0.0,0.0,0.0,0.0,0.0,0.0,0.0,0.0,0.0,0.0,0.0,0.0,0.0,0.0,0.0,0.0,0.0,0.0,0.0,0.0,0.0,0.0,0.0,0.0,0.0,0.0,0.0,0.0,0.0,0.0,0.0,0.0,0.0,0.0,0.0,0.0,0.0,0.0,0.0,0.0,0.0,0.0,0.0,0.0,0.0,0.0,0.0,0.0,0.0,0.0,0.0,0.0,0.0,0.0,0.0,0.0,0.0,0.0,0.0,0.0,0.0,0.0,0.0,0.0,0.0,0.0,0.0,0.0,0.0,0.0,0.0,0.0,0.0,0.0,0.0,0.0,0.0,0.0,0.0,0.0,0.0,0.0,0.0,0.0,0.0,0.0,0.0,0.0,0.0,0.0,0.0,0.0,0.0,0.0,0.0,0.0,0.0,0.0,0.0,0.0,0.0,0.0,0.0,0.0,0.0,0.0,0.0,0.0,0.0,0.0,0.0,0.0,0.0,0.0,0.0,0.0,0.0,0.0,0.0,0.0,0.0,0.0,0.0,0.0,0.0,0.0,0.0,0.0,0.0,0.0,0.0,0.0,0.0,0.0,0.0,0.0,0.0,0.0,0.0,0.0,0.0,0.0,0.0,0.0,0.0,0.0,0.0,0.0,0.0,0.0,0.0,0.0,0.0,0.0,0.0,0.0,0.0,0.0,0.0,0.0,0.0,0.0,0.0,0.0,0.0,0.0,0.0,0.0,0.0,0.0,0.0,0.0,0.0,0.0,0.0,0.0,0.0,0.0,0.0,0.0,0.0,0.0,0.0,0.0,0.0,0.0,0.0,0.0,0.0,0.0,0.0,0.0,0.0,0.0,0.0,0.0,0.0,0.0,0.0,0.0,0.0,0.0,0.0,0.0,0.0,0.0,0.0,0.0,0.0,0.0,0.0,0.0,0.0,0.0,0.0,0.0,0.0,0.0,0.0,0.0,0.0,0.0,0.0,0.0,0.0,0.0,0.0,0.0,0.0,0.0,0.0,0.0,0.0,0.0,0.0,0.0,0.0,0.0,0.0,0.0,0.0,0.0,0.0,0.0,0.0,0.0,0.0,0.0,0.0,0.0,0.0,0.0,0.0,0.0,0.0,0.0,0.0,0.0,0.0,0.0,0.0,0.0,0.0,0.0,0.0,0.0,0.0,0.0,0.0,0.0,0.0,0.0,0.0,0.0,0.0,0.0,0.0,0.0,0.0,0.0,0.0,0.0,0.0,0.0,0.0,0.0,0.0,0.0,0.0,0.0,0.0,0.0,0.0,0.0,0.0,0.0,0.0,0.0,0.0,0.0,0.0,0.0,0.0,0.0,0.0,0.0,0.0,0.0,0.0,0.0,0.0,0.0,0.0,0.0,0.0,0.0,0.0,0.0,0.0,0.0,0.0,0.0,0.0,0.0,0.0,0.0,0.0,0.0,0.0,0.0,0.0,0.0,0.0,0.0,0.0,0.0,0.0,0.0,0.0,0.0,0.0,0.0,0.0,0.0,0.0,0.0,0.0,0.0,0.0,0.0,0.0,0.0,0.0,0.0,0.0,0.0,0.0,0.0,0.0,0.0,0.0,0.0,0.0,0.0,0.0,0.0,0.0,0.0,0.0,0.0,0.0,0.0,0.0,0.0,0.0,0.0,0.0,0.0,0.0,0.0,0.0,0.0,0.0,0.0,0.0,0.0,0.0,0.0,0.0,0.0,0.0,0.0,0.0,0.0,0.0,0.0,0.0,0.0,0.0,0.0,0.0,0.0,0.0,0.0,0.0,0.0,0.0,0.0,0.0,0.0,0.0,0.0,0.0,0.0,0.0,0.0,0.0,0.0,0.0,0.0,0.0,0.0,0.0,0.0,0.0,0.0,0.0,0.0,0.0,0.0,0.0,0.0,0.0,0.0,0.0,0.0,0.0,0.0,0.0,0.0,0.0,0.0,0.0,0.0,0.0,0.0,0.0,0.0,0.0,0.0,0.0,0.0,0.0,0.0,0.0,0.0,0.0,0.0,0.0,0.0,0.0,0.0,0.0,0.0,0.0,0.0,0.0,0.0,0.0,0.0,0.0,0.0,0.0,0.0,0.0,0.0,0.0,0.0,0.0,0.0,0.0,0.0,0.0,0.0,0.0,0.0,0.0,0.0,0.0,0.0,0.0,0.0,0.0,0.0,0.0,0.0,0.0,0.0,0.0,0.0,0.0,0.0,0.0,0.0,0.0,0.0,0.0,0.0,0.0,0.0,0.0,0.0,0.0,0.0,0.0,0.0,0.0,0.0,0.0,0.0,0.0,0.0,0.0,0.0,0.0,0.0,0.0,0.0,0.0,0.0,0.0,0.0,0.0,0.0,0.0,0.0,0.0,0.0,0.0,0.0,0.0,0.0,0.0,0.0,0.0,0.0,0.0,0.0,0.0,0.0,0.0,0.0,0.0,0.0,0.0,0.0,0.0,0.0,0.0,0.0,0.0,0.0,0.0,0.3993,0.0,0.0,0.0,0.0,0.0,0.0,0.0,0.0,0.0,0.0,0.0,0.0,0.0,0.0,0.0,0.0,0.0,0.0,0.0,0.0,0.0,0.0,0.0,0.0,0.0,0.0,0.0,0.0,0.0,0.0,0.0,0.0,0.0,0.0,0.0,0.0,0.0,0.0,0.0,0.0,0.0,0.0,0.0,0.0,0.0,0.0,0.0,0.0,0.0,0.0,0.0,0.0,0.0,0.0,0.0,0.0,0.0,0.0,0.0,0.0,0.0,0.0,0.0,0.0,0.0,0.0,0.0,0.0,0.0,0.0,0.0,0.0,0.0,0.0,0.0,0.0,0.0,0.0,0.0,0.0,0.0,0.0,0.0,0.0,0.0,0.0,0.0,0.0,0.0,0.0,0.0,0.0,0.0,0.0,0.0,0.0,0.0,0.0,0.0,0.0,0.0,0.0,0.0,0.0,0.0,0.0,0.0,0.0,0.0,0.0,0.3313,0.3351,0.2946,0.2895,0.3201,0.0,0.0,0.0,0.0,0.0,0.0,0.0,0.0,0.0,0.0,0.0,0.0,0.0,0.0,0.0,0.0,0.0,0.0,0.0,0.0,0.0,0.0,0.0,0.0,0.0,0.0,0.0,0.0,0.0,0.0,0.0,0.0,0.0,0.0,0.0,0.0,0.0,0.0,0.0,0.0,0.0,0.0,0.0,0.0,0.0,0.0,0.0,0.0,0.0,0.0,0.0,0.0,0.0,0.0,0.0,0.0,0.0,0.0,0.0,0.0,0.0,0.0,0.0,0.0,0.0,0.0,0.0,0.0,0.0,0.0,0.0,0.0,0.0,0.0,0.0,0.0,0.0,0.0,0.0,0.0,0.0,0.0,0.0,0.0,0.0,0.0,0.0,0.0,0.0,0.0,0.0,0.0,0.0,0.0,0.0,0.0,0.0,0.0,0.0,0.0,0.0,0.0,0.0,0.0,0.0,0.0,0.0,0.0,0.0,0.0,0.0,0.0,0.2555,0.2421,0.2552,0.0,0.0,0.0,0.0,0.0,0.0,0.0,0.0,0.0,0.0,0.0,0.0,0.0,0.0,0.0,0.0,0.0,0.0,0.0,0.0,0.0,0.0,0.0,0.0,0.0,0.0,0.0,0.0,0.0,0.0,0.0,0.0,0.0,0.0,0.0,0.0,0.0,0.0,0.0,0.0,0.0,0.0,0.0,0.0,0.0,0.0,0.0,0.0,0.0,0.0,0.0,0.0,0.0,0.0,0.0,0.0,0.0,0.0,0.0,0.0,0.0,0.0,0.0,0.0,0.0,0.0,0.0,0.0,0.0,0.0,0.0,0.0,0.0,0.0,0.0,0.0,0.0,0.0,0.0,0.0,0.0,0.0,0.0,0.0,0.0,0.0,0.0,0.0,0.0,0.0,0.0,0.0,0.0,0.0,0.0,0.0,0.0,0.0,0.0,0.0,0.0,0.0,0.0,0.0,0.0,0.0,0.0,0.0,0.0,0.0,0.2757,0.2287,0.222,0.0,0.2284,0.0,0.0,0.0,0.0,0.0,0.0,0.0,0.0,0.0,0.0,0.0,0.0,0.0,0.0,0.0,0.0,0.0,0.0,0.0,0.0,0.0,0.0,0.0,0.0,0.0,0.0,0.0,0.0,0.0,0.0,0.0,0.0,0.0,0.0,0.0,0.0,0.0,0.0,0.0,0.0,0.0,0.0,0.0,0.0,0.0,0.0,0.0,0.0,0.0,0.0,0.0,0.0,0.0,0.0,0.0,0.0,0.0,0.0,0.0,0.0,0.0,0.0,0.0,0.0,0.0,0.0,0.0,0.0,0.0,0.0,0.0,0.0,0.0,0.0,0.0,0.0,0.0,0.0,0.0,0.0,0.0,0.0,0.0,0.0,0.0,0.0,0.0,0.0,0.0,0.0,0.0,0.0,0.0,0.0,0.0,0.0,0.0,0.0,0.0,0.0,0.0,0.0,0.0,0.0,0.0,0.0,0.0,0.0,0.0,0.0,0.2555,0.2357,0.1412,0.0933,0.0,0.0,0.0,0.0,0.0,0.0,0.0,0.0,0.0,0.0,0.0,0.0,0.0,0.0,0.0,0.0,0.0,0.0,0.0,0.0,0.0,0.0,0.0,0.0,0.0,0.0,0.0,0.0,0.0,0.0,0.0,0.0,0.0,0.0,0.0,0.0,0.0,0.0,0.0,0.0,0.0,0.0,0.0,0.0,0.0,0.0,0.0,0.0,0.0,0.0,0.0,0.0,0.0,0.0,0.0,0.0,0.0,0.0,0.0,0.0,0.0,0.0,0.0,0.0,0.0,0.0,0.0,0.0,0.0,0.0,0.0,0.0,0.0,0.0,0.0,0.0,0.0,0.0,0.0,0.0,0.0,0.0,0.0,0.0,0.0,0.0,0.0,0.0,0.0,0.0,0.0,0.0,0.0,0.0,0.0,0.0,0.0,0.0,0.0,0.0,0.0,0.0,0.0,0.0,0.0,0.0,0.0,0.0,0.0,0.0,0.2484,0.222,0.1884,0.047,-0.0332,-0.0387,0.0,0.0,0.0,0.0,0.0,0.0,0.0,0.0,0.0,0.0,0.0,0.0,0.0,0.0,0.0,0.0,0.0,0.0,0.0,0.0,0.0,0.0,0.0,0.0,0.0,0.0,0.0,0.0,0.0,0.0,0.0,0.0,0.0,0.0,0.0,0.0,0.0,0.0,0.0,0.0,0.0,0.0,0.0,0.0,0.0,0.0,0.0,0.0,0.0,0.0,0.0,0.0,0.0,0.0,0.0,0.0,0.0,0.0,0.0,0.0,0.0,0.0,0.0,0.0,0.0,0.0,0.0,0.0,0.0,0.0,0.0,0.0,0.0,0.0,0.0,0.0,0.0,0.0,0.0,0.0,0.0,0.0,0.0,0.0,0.0,0.0,0.0,0.0,0.0,0.0,0.0,0.0,0.0,0.0,0.0,0.0,0.0,0.0,0.0,0.0,0.0,0.0,0.0,0.0,0.0,0.0,0.0,0.0,0.1976,0.2155,0.168,0.0671,-0.0469,-0.139,0.0,0.0,0.0,0.0,0.0,0.0,0.0,0.0,0.0,0.0,0.0,0.0,0.0,0.0,0.0,0.0,0.0,0.0,0.0,0.0,0.0,0.0,0.0,0.0,0.0,0.0,0.0,0.0,0.0,0.0,0.0,0.0,0.0,0.0,0.0,0.0,0.0,0.0,0.0,0.0,0.0,0.0,0.0,0.0,0.0,0.0,0.0,0.0,0.0,0.0,0.0,0.0,0.0,0.0,0.0,0.0,0.0,0.0,0.0,0.0,0.0,0.0,0.0,0.0,0.0,0.0,0.0,0.0,0.0,0.0,0.0,0.0,0.0,0.0,0.0,0.0,0.0,0.0,0.0,0.0,0.0,0.0,0.0,0.0,0.0,0.0,0.0,0.0,0.0,0.0,0.0,0.0,0.0,0.0,0.0,0.0,0.0,0.0,0.0,0.0,0.0,0.0,0.0,0.0,0.0,0.0,0.0,0.0,0.0,0.216,0.2615,0.1884,-0.0,-0.1452,-0.2259,0.0,0.0,0.0,0.0,0.0,0.0,0.0,0.0,0.0,0.0,0.0,0.0,0.0,0.0,0.0,0.0,0.0,0.0,0.0,0.0,0.0,0.0,0.0,0.0,0.0,0.0,0.0,0.0,0.0,0.0,0.0,0.0,0.0,0.0,0.0,0.0,0.0,0.0,0.0,0.0,0.0,0.0,0.0,0.0,0.0,0.0,0.0,0.0,0.0,0.0,0.0,0.0,0.0,0.0,0.0,0.0,0.0,0.0,0.0,0.0,0.0,0.0,0.0,0.0,0.0,0.0,0.0,0.0,0.0,0.0,0.0,0.0,0.0,0.0,0.0,0.0,0.0,0.0,0.0,0.0,0.0,0.0,0.0,0.0,0.0,0.0,0.0,0.0,0.0,0.0,0.0,0.0,0.0,0.0,0.0,0.0,0.0,0.0,0.0,0.0,0.0,0.0,0.0,0.0,0.0,0.0,0.0,0.0,0.0,0.1565,0.0,0.0874,-0.0806,-0.2413,-0.3164,0.0,0.0,0.0,0.0,0.0,0.0,0.0,0.0,0.0,0.0,0.0,0.0,0.0,0.0,0.0,0.0,0.0,0.0,0.0,0.0,0.0,0.0,0.0,0.0,0.0,0.0,0.0,0.0,0.0,0.0,0.0,0.0,0.0,0.0,0.0,0.0,0.0,0.0,0.0,0.0,0.0,0.0,0.0,0.0,0.0,0.0,0.0,0.0,0.0,0.0,0.0,0.0,0.0,0.0,0.0,0.0,0.0,0.0,0.0,0.0,0.0,0.0,0.0,0.0,0.0,0.0,0.0,0.0,0.0,0.0,0.0,0.0,0.0,0.0,0.0,0.0,0.0,0.0,0.0,0.0,0.0,0.0,0.0,0.0,0.0,0.0,0.0,0.0,0.0,0.0,0.0,0.0,0.0,0.0,0.0,0.0,0.0,0.0,0.0,0.0,0.0,0.0,0.0,0.0,0.0,0.0,0.0,0.0,0.0122,-0.0064,-0.0994,-0.1613,-0.1882,-0.3425,-0.4012,0.0,0.0,0.0,0.0,0.0,0.0,0.0,0.0,0.0,0.0,0.0,0.0,0.0,0.0,0.0,0.0,0.0,0.0,0.0,0.0,0.0,0.0,0.0,0.0,0.0,0.0,0.0,0.0,0.0,0.0,0.0,0.0,0.0,0.0,0.0,0.0,0.0,0.0,0.0,0.0,0.0,0.0,0.0,0.0,0.0,0.0,0.0,0.0,0.0,0.0,0.0,0.0,0.0,0.0,0.0,0.0,0.0,0.0,0.0,0.0,0.0,0.0,0.0,0.0,0.0,0.0,0.0,0.0,0.0,0.0,0.0,0.0,0.0,0.0,0.0,0.0,0.0,0.0,0.0,0.0,0.0,0.0,0.0,0.0,0.0,0.0,0.0,0.0,0.0,0.0,0.0,0.0,0.0,0.0,0.0,0.0,0.0,0.0,0.0,0.0,0.0,0.0,0.0,0.0,0.0,0.0,0.0,0.0,0.0,-0.2253,-0.2553,-0.3013,-0.3689,-0.4348,-0.4645,0.0,0.0,0.0,0.0,0.0,0.0,0.0,0.0,0.0,0.0,0.0,0.0,0.0,0.0,0.0,0.0,0.0,0.0,0.0,0.0,0.0,0.0,0.0,0.0,0.0,0.0,0.0,0.0,0.0,0.0,0.0,0.0,0.0,0.0,0.0,0.0,0.0,0.0,0.0,0.0,0.0,0.0,0.0,0.0,0.0,0.0,0.0,0.0,0.0,0.0,0.0,0.0,0.0,0.0,0.0,0.0,0.0,0.0,0.0,0.0,0.0,0.0,0.0,0.0,0.0,0.0,0.0,0.0,0.0,0.0,0.0,0.0,0.0,0.0,0.0,0.0,0.0,0.0,0.0,0.0,0.0,0.0,0.0,0.0,0.0,0.0,0.0,0.0,0.0,0.0,0.0,0.0,0.0,0.0,0.0,0.0,0.0,0.0,0.0,0.0,0.0,0.0,0.0,0.0,0.0,0.0,0.0,0.0,0.0,-0.5197,-0.4782,-0.4712,-0.5153,-0.5501,-0.5586,-0.5389,0.0,0.0,0.0,0.0,0.0,0.0,0.0,0.0,0.0,0.0,0.0,0.0,0.0,0.0,0.0,0.0,0.0,0.0,0.0,0.0,0.0,0.0,0.0,0.0,0.0,0.0,0.0,0.0,0.0,0.0,0.0,0.0,0.0,0.0,0.0,0.0,0.0,0.0,0.0,0.0,0.0,0.0,0.0,0.0,0.0,0.0,0.0,0.0,0.0,0.0,0.0,0.0,0.0,0.0,0.0,0.0,0.0,0.0,0.0,0.0,0.0,0.0,0.0,0.0,0.0,0.0,0.0,0.0,0.0,0.0,0.0,0.0,0.0,0.0,0.0,0.0,0.0,0.0,0.0,0.0,0.0,0.0,0.0,0.0,0.0,0.0,0.0,0.0,0.0,0.0,0.0,0.0,0.0,0.0,0.0,0.0,0.0,0.0,0.0,0.0,0.0,0.0,0.0,0.0,0.0,0.0,0.0,0.0,-0.8716,-0.7772,-0.6998,-0.6506,-0.6967,-0.6846,0.0,0.0,0.0,0.0,0.0,0.0,0.0,0.0,0.0,0.0,0.0,0.0,0.0,0.0,0.0,0.0,0.0,0.0,0.0,0.0,0.0,0.0,0.0,0.0,0.0,0.0,0.0,0.0,0.0,0.0,0.0,0.0,0.0,0.0,0.0,0.0,0.0,0.0,0.0,0.0,0.0,0.0,0.0,0.0,0.0,0.0,0.0,0.0,0.0,0.0,0.0,0.0,0.0,0.0,0.0,0.0,0.0,0.0,0.0,0.0,0.0,0.0,0.0,0.0,0.0,0.0,0.0,0.0,0.0,0.0,0.0,0.0,0.0,0.0,0.0,0.0,0.0,0.0,0.0,0.0,0.0,0.0,0.0,0.0,0.0,0.0,0.0,0.0,0.0,0.0,0.0,0.0,0.0,0.0,0.0,0.0,0.0,0.0,0.0,0.0,0.0,0.0,0.0,0.0,0.0,0.0,0.0,0.0,0.0,-1.0446,-1.1935,-1.1985,-1.0328,-0.9246,-0.85,0.0,0.0,0.0,0.0,0.0,0.0,0.0,0.0,0.0,0.0,0.0,0.0,0.0,0.0,0.0,0.0,0.0,0.0,0.0,0.0,0.0,0.0,0.0,0.0,0.0,0.0,0.0,0.0,0.0,0.0,0.0,0.0,0.0,0.0,0.0,0.0,0.0,0.0,0.0,0.0,0.0,0.0,0.0,0.0,0.0,0.0,0.0,0.0,0.0,0.0,0.0,0.0,0.0,0.0,0.0,0.0,0.0,0.0,0.0,0.0,0.0,0.0,0.0,0.0,0.0,0.0,0.0,0.0,0.0,0.0,0.0,0.0,0.0,0.0,0.0,0.0,0.0,0.0,0.0,0.0,0.0,0.0,0.0,0.0,0.0,0.0,0.0,0.0,0.0,0.0,0.0,0.0,0.0,0.0,0.0,0.0,0.0,0.0,0.0,0.0,0.0,0.0,0.0,0.0,0.0,0.0,0.0,0.0,-1.1738,-1.278,-1.5449,-1.6414,-1.5367,-1.2214,-1.0214,0.0,0.0,0.0,0.0,0.0,0.0,0.0,0.0,0.0,0.0,0.0,0.0,0.0,0.0,0.0,0.0,0.0,0.0,0.0,0.0,0.0,0.0,0.0,0.0,0.0,0.0,0.0,0.0,0.0,0.0,0.0,0.0,0.0,0.0,0.0,0.0,0.0,0.0,0.0,0.0,0.0,0.0,0.0,0.0,0.0,0.0,0.0,0.0,0.0,0.0,0.0,0.0,0.0,0.0,0.0,0.0,0.0,0.0,0.0,0.0,0.0,0.0,0.0,0.0,0.0,0.0,0.0,0.0,0.0,0.0,0.0,0.0,0.0,0.0,0.0,0.0,0.0,0.0,0.0,0.0,0.0,0.0,0.0,0.0,0.0,0.0,0.0,0.0,0.0,0.0,0.0,0.0,0.0,0.0,0.0,0.0,0.0,0.0,0.0,0.0,0.0,0.0,0.0,0.0,0.0,0.0,0.0,0.0,-1.385,-1.5131,-1.8047,-1.9829,-2.0044,-1.5299,-1.2183,0.0,0.0,0.0,0.0,0.0,0.0,0.0,0.0,0.0,0.0,0.0,0.0,0.0,0.0,0.0,0.0,0.0,0.0,0.0,0.0,0.0,0.0,0.0,0.0,0.0,0.0,0.0,0.0,0.0,0.0,0.0,0.0,0.0,0.0,0.0,0.0,0.0,0.0,0.0,0.0,0.0,0.0,0.0,0.0,0.0,0.0,0.0,0.0,0.0,0.0,0.0,0.0,0.0,0.0,0.0,0.0,0.0,0.0,0.0,0.0,0.0,0.0,0.0,0.0,0.0,0.0,0.0,0.0,0.0,0.0,0.0,0.0,0.0,0.0,0.0,0.0,0.0,0.0,0.0,0.0,0.0,0.0,0.0,0.0,0.0,0.0,0.0,0.0,0.0,0.0,0.0,0.0,0.0,0.0,0.0,0.0,0.0,0.0,0.0,0.0,0.0,0.0,0.0,0.0,0.0,0.0,0.0,0.0,-1.4167,-1.5756,-1.7652,-1.9204,-2.0372,-1.7081,-1.5055,0.0,0.0,0.0,0.0,0.0,0.0,0.0,0.0,0.0,0.0,0.0,0.0,0.0,0.0,0.0,0.0,0.0,0.0,0.0,0.0,0.0,0.0,0.0,0.0,0.0,0.0,0.0,0.0,0.0,0.0,0.0,0.0,0.0,0.0,0.0,0.0,0.0,0.0,0.0,0.0,0.0,0.0,0.0,0.0,0.0,0.0,0.0,0.0,-2.1133,0.0,0.0,0.0,0.0,0.0,0.0,0.0,0.0,0.0,0.0,0.0,0.0,0.0,0.0,0.0,0.0,0.0,0.0,0.0,0.0,0.0,0.0,0.0,0.0,0.0,0.0,0.0,0.0,0.0,0.0,0.0,0.0,0.0,0.0,0.0,0.0,0.0,0.0,0.0,0.0,0.0,0.0,0.0,0.0,0.0,0.0,0.0,0.0,0.0,0.0,0.0,0.0,0.0,0.0,0.0,0.0,0.0,0.0,0.0,-1.5139,-1.6826,-1.9101,-2.0622,-2.1194,-1.9799,-1.819,0.0,0.0,0.0,0.0,0.0,0.0,0.0,0.0,0.0,0.0,0.0,0.0,0.0,0.0,0.0,0.0,0.0,0.0,0.0,0.0,0.0,0.0,0.0,0.0,0.0,0.0,0.0,0.0,0.0,0.0,0.0,0.0,0.0,0.0,0.0,0.0,0.0,0.0,0.0,0.0,0.0,0.0,0.0,0.0,0.0,0.0,0.0,0.0,0.0,0.0,0.0,0.0,0.0,0.0,0.0,0.0,0.0,0.0,0.0,0.0,0.0,0.0,0.0,0.0,0.0,0.0,0.0,0.0,0.0,0.0,0.0,0.0,0.0,0.0,0.0,0.0,0.0,0.0,0.0,0.0,0.0,0.0,0.0,0.0,0.0,0.0,0.0,0.0,0.0,0.0,0.0,0.0,0.0,0.0,0.0,0.0,0.0,0.0,0.0,0.0,0.0,0.0,0.0,0.0,0.0,0.0,0.0,-1.4562,-1.6541,-1.8427,-2.1126,-2.2547,-2.265,-2.2556,-2.129,-1.8675,0.0,0.0,0.0,0.0,0.0,0.0,0.0,0.0,0.0,0.0,0.0,0.0,0.0,0.0,0.0,0.0,0.0,0.0,0.0,0.0,0.0,0.0,0.0,0.0,0.0,0.0,0.0,0.0,0.0,0.0,0.0,0.0,0.0,0.0,0.0,0.0,0.0,0.0,-1.5586,-1.7372,0.0,0.0,0.0,0.0,0.0,0.0,0.0,0.0,-2.2662,0.0,0.0,0.0,0.0,0.0,0.0,0.0,0.0,0.0,0.0,0.0,0.0,0.0,0.0,0.0,0.0,0.0,0.0,0.0,0.0,0.0,0.0,0.0,0.0,0.0,0.0,0.0,0.0,0.0,0.0,0.0,0.0,0.0,0.0,0.0,0.0,0.0,0.0,0.0,0.0,0.0,0.0,0.0,0.0,0.0,0.0,0.0,0.0,0.0,0.0,0.0,0.0,0.0,0.0,0.0,0.0,-1.5217,-1.6132,-1.8067,-2.108,-2.2085,-2.3283,-2.463,-2.4102,-2.35,-2.2762,0.0,0.0,0.0,0.0,0.0,0.0,0.0,0.0,0.0,0.0,0.0,0.0,0.0,0.0,0.0,0.0,0.0,0.0,0.0,0.0,0.0,0.0,0.0,0.0,0.0,0.0,0.0,0.0,0.0,0.0,0.0,0.0,0.0,0.0,0.0,0.0,0.0,0.0,0.0,-1.9768,-2.0581,0.0,0.0,0.0,0.0,0.0,0.0,0.0,0.0,-2.3764,0.0,0.0,0.0,0.0,0.0,0.0,0.0,0.0,0.0,0.0,0.0,0.0,0.0,0.0,0.0,0.0,0.0,0.0,0.0,0.0,0.0,0.0,0.0,0.0,0.0,0.0,0.0,0.0,0.0,0.0,0.0,0.0,0.0,0.0,0.0,0.0,0.0,0.0,0.0,0.0,0.0,0.0,0.0,0.0,0.0,0.0,0.0,0.0,0.0,0.0,0.0,0.0,0.0,0.0,0.0,-1.6307,-1.807,-2.0157,-2.26,-2.4257,-2.5312,-2.5817,-2.5978,-2.576,0.0,0.0,0.0,0.0,0.0,0.0,0.0,0.0,0.0,0.0,0.0,0.0,0.0,0.0,0.0,0.0,0.0,0.0,0.0,0.0,0.0,0.0,0.0,0.0,0.0,0.0,0.0,0.0,0.0,0.0,0.0,0.0,0.0,0.0,0.0,0.0,0.0,0.0,0.0,0.0,-2.0823,-2.1926,-2.2269,0.0,0.0,0.0,0.0,0.0,0.0,-2.4588,-2.526,0.0,0.0,0.0,0.0,0.0,0.0,0.0,0.0,0.0,0.0,0.0,0.0,0.0,0.0,0.0,0.0,0.0,0.0,0.0,0.0,0.0,0.0,0.0,0.0,0.0,0.0,0.0,0.0,0.0,0.0,0.0,0.0,0.0,0.0,0.0,0.0,0.0,0.0,0.0,0.0,0.0,0.0,0.0,0.0,0.0,0.0,0.0,0.0,0.0,0.0,0.0,0.0,0.0,0.0,0.0,-1.7805,-2.0216,-2.2454,-2.4447,-2.6746,-2.7755,-2.7428,-2.8033,-2.7885,0.0,0.0,0.0,0.0,0.0,0.0,0.0,0.0,0.0,0.0,0.0,0.0,0.0,0.0,0.0,0.0,0.0,0.0,0.0,0.0,0.0,0.0,0.0,0.0,0.0,0.0,0.0,0.0,0.0,0.0,0.0,0.0,0.0,0.0,0.0,0.0,0.0,0.0,0.0,0.0,0.0,-2.3329,-2.372,-2.5305,0.0,0.0,0.0,0.0,-2.613,-2.6993,0.0,0.0,0.0,0.0,0.0,0.0,0.0,0.0,0.0,0.0,0.0,0.0,0.0,0.0,0.0,0.0,0.0,0.0,0.0,0.0,0.0,0.0,0.0,0.0,0.0,0.0,0.0,0.0,0.0,0.0,0.0,0.0,0.0,0.0,0.0,0.0,0.0,0.0,0.0,0.0,0.0,0.0,0.0,0.0,0.0,0.0,0.0,0.0,0.0,0.0,0.0,0.0,0.0,0.0,0.0,0.0,-2.1015,-2.2602,-2.4801,-2.7601,-2.9017,-3.0066,-3.0765,-3.0174,-2.9694,0.0,0.0,0.0,0.0,0.0,0.0,0.0,0.0,0.0,0.0,0.0,0.0,0.0,0.0,0.0,0.0,0.0,0.0,0.0,0.0,0.0,0.0,0.0,0.0,0.0,0.0,0.0,0.0,0.0,0.0,0.0,0.0,0.0,0.0,0.0,0.0,0.0,0.0,0.0,0.0,0.0,-2.5335,-2.6579,-2.8028,-2.8646,0.0,0.0,-2.903,-2.8516,-2.9831,0.0,0.0,0.0,0.0,0.0,0.0,0.0,0.0,0.0,0.0,0.0,0.0,0.0,0.0,0.0,0.0,0.0,0.0,0.0,0.0,0.0,0.0,0.0,0.0,0.0,0.0,0.0,0.0,0.0,0.0,0.0,0.0,0.0,0.0,0.0,0.0,0.0,0.0,0.0,0.0,0.0,0.0,0.0,0.0,0.0,0.0,0.0,0.0,0.0,0.0,0.0,0.0,0.0,0.0,0.0,-2.0129,-2.1507,-2.4086,-2.6674,-2.9091,-3.0236,-3.1262,-3.2173,-3.1776,-3.1527,0.0,0.0,0.0,0.0,0.0,0.0,0.0,0.0,0.0,0.0,0.0,0.0,0.0,0.0,0.0,0.0,0.0,0.0,0.0,0.0,0.0,0.0,0.0,0.0,0.0,0.0,0.0,0.0,0.0,0.0,0.0,0.0,0.0,0.0,0.0,0.0,0.0,0.0,0.0,0.0,0.0,0.0,-2.764,-2.9518,0.0,0.0,0.0,-3.1513,-3.089,0.0,0.0,0.0,0.0,0.0,0.0,0.0,0.0,0.0,0.0,0.0,0.0,0.0,0.0,0.0,0.0,0.0,0.0,0.0,0.0,0.0,0.0,0.0,0.0,0.0,0.0,0.0,0.0,0.0,0.0,0.0,0.0,0.0,0.0,0.0,0.0,0.0,0.0,0.0,0.0,0.0,0.0,0.0,0.0,0.0,0.0,0.0,0.0,0.0,0.0,0.0,0.0,0.0,0.0,0.0,0.0,0.0,-2.2141,-2.5515,-2.8166,-2.9959,-3.1477,-3.2627,-3.3365,-3.358,0.0,0.0,0.0,0.0,0.0,0.0,0.0,0.0,0.0,0.0,0.0,0.0,0.0,0.0,0.0,0.0,0.0,0.0,0.0,0.0,0.0,0.0,0.0,0.0,0.0,0.0,0.0,-1.2319,0.0,0.0,0.0,0.0,0.0,0.0,0.0,0.0,0.0,0.0,0.0,0.0,0.0,0.0,-2.7991,-2.895,-3.1247,-3.2655,0.0,0.0,-3.3422,-3.2909,-3.3459,-3.3464,0.0,0.0,0.0,0.0,0.0,0.0,0.0,0.0,0.0,0.0,0.0,0.0,0.0,0.0,0.0,0.0,0.0,0.0,0.0,0.0,0.0,0.0,0.0,0.0,0.0,0.0,0.0,0.0,0.0,0.0,0.0,0.0,0.0,0.0,0.0,0.0,0.0,0.0,0.0,0.0,0.0,0.0,0.0,0.0,0.0,0.0,0.0,0.0,0.0,0.0,0.0,0.0,0.0,0.0,-2.2704,-2.438,-2.7128,-2.9169,-3.0487,-3.3166,-3.4737,-3.5042,-3.5814,-3.5852,0.0,0.0,0.0,0.0,0.0,0.0,0.0,0.0,0.0,0.0,0.0,0.0,0.0,0.0,0.0,0.0,0.0,0.0,0.0,0.0,0.0,0.0,0.0,0.0,0.0,0.0,0.0,0.0,0.0,0.0,0.0,0.0,0.0,0.0,0.0,0.0,0.0,0.0,0.0,0.0,0.0,-3.0122,-3.133,-3.3426,-3.4774,0.0,-3.4171,-3.4093,-3.4675,-3.5726,-3.5789,-3.3561,0.0,0.0,0.0,0.0,0.0,0.0,0.0,0.0,0.0,0.0,0.0,0.0,0.0,0.0,0.0,0.0,0.0,0.0,0.0,0.0,0.0,0.0,0.0,0.0,0.0,0.0,0.0,0.0,-0.7455,0.0,0.0,0.0,0.0,0.0,0.0,0.0,0.0,0.0,0.0,0.0,0.0,0.0,0.0,0.0,0.0,0.0,0.0,0.0,0.0,0.0,0.0,0.0,0.0,-2.3338,-2.4489,-2.7012,-2.9369,-3.1554,-3.3154,-3.4568,-3.5829,-3.6535,-3.6787,0.0,0.0,0.0,0.0,0.0,0.0,0.0,0.0,0.0,0.0,0.0,0.0,0.0,0.0,0.0,0.0,0.0,0.0,0.0,0.0,0.0,0.0,0.0,0.0,0.0,0.0,0.0,0.0,-1.4742,-1.4374,-1.4294,0.0,0.0,0.0,0.0,0.0,0.0,0.0,0.0,0.0,0.0,-3.1683,-3.3458,-3.5353,0.0,0.0,-3.5767,-3.5668,-3.5017,-3.5121,-3.5067,-3.4179,-3.2544,0.0,0.0,0.0,0.0,0.0,0.0,0.0,0.0,0.0,0.0,0.0,0.0,0.0,0.0,0.0,0.0,0.0,0.0,0.0,0.0,0.0,0.0,0.0,0.0,0.0,0.0,-0.8788,-0.8448,0.0,0.0,0.0,0.0,0.0,0.0,0.0,0.0,0.0,0.0,0.0,0.0,0.0,0.0,0.0,0.0,0.0,0.0,0.0,0.0,0.0,0.0,0.0,0.0,-2.3366,-2.441,-2.6916,-2.9383,-3.1672,-3.3191,-3.483,-3.6538,-3.7229,-3.7709,0.0,0.0,0.0,0.0,0.0,0.0,0.0,0.0,0.0,0.0,0.0,0.0,0.0,0.0,0.0,0.0,0.0,0.0,0.0,0.0,0.0,0.0,0.0,0.0,0.0,0.0,0.0,0.0,-1.6056,-1.5464,-1.5136,0.0,0.0,0.0,0.0,0.0,0.0,0.0,0.0,0.0,0.0,-3.2605,-3.4141,-3.5784,-3.655,-3.5743,-3.5843,-3.5795,-3.5118,-3.4792,-3.4497,-3.4481,0.0,0.0,0.0,0.0,0.0,0.0,0.0,0.0,0.0,0.0,0.0,0.0,0.0,0.0,0.0,0.0,0.0,0.0,0.0,0.0,0.0,0.0,0.0,0.0,0.0,0.0,0.0,-0.9867,0.0,0.0,-1.0406,0.0,0.0,0.0,0.0,0.0,0.0,0.0,0.0,0.0,0.0,0.0,0.0,0.0,0.0,0.0,0.0,0.0,0.0,0.0,0.0,0.0,0.0,-2.2761,-2.4448,-2.7158,-2.9157,-3.049,-3.3593,-3.5894,-3.7289,-3.8131,-3.8804,-3.9301,0.0,0.0,0.0,0.0,0.0,0.0,0.0,0.0,0.0,0.0,0.0,0.0,0.0,0.0,0.0,0.0,0.0,0.0,0.0,0.0,0.0,0.0,0.0,0.0,0.0,0.0,-1.7123,-1.639,-1.5878,0.0,0.0,0.0,0.0,0.0,0.0,0.0,0.0,0.0,-2.6281,-3.023,-3.2867,-3.3197,-3.4342,-3.5089,-3.452,-3.3893,-3.3877,-3.5046,-3.5017,-3.4728,0.0,0.0,0.0,0.0,0.0,0.0,0.0,0.0,0.0,0.0,0.0,0.0,0.0,0.0,0.0,0.0,0.0,0.0,0.0,0.0,0.0,0.0,0.0,0.0,0.0,0.0,0.0,-1.0582,-1.1251,0.0,0.0,0.0,0.0,0.0,0.0,0.0,0.0,0.0,0.0,0.0,-1.673,-1.7811,0.0,0.0,0.0,0.0,0.0,0.0,0.0,0.0,0.0,0.0,0.0,0.0,-2.3846,-2.5754,-2.7309,-2.9124,-3.1342,-3.3127,-3.4789,-3.6296,-3.7254,-3.8303,-3.9482,0.0,0.0,0.0,0.0,0.0,0.0,0.0,0.0,0.0,0.0,0.0,0.0,0.0,0.0,0.0,0.0,0.0,0.0,0.0,0.0,0.0,0.0,0.0,0.0,0.0,-1.9114,0.0,0.0,0.0,0.0,0.0,0.0,0.0,0.0,0.0,0.0,-2.1167,-2.3383,-2.7059,-3.0262,-3.2653,-3.3789,-3.5089,-3.5795,0.0,0.0,0.0,0.0,0.0,0.0,0.0,0.0,0.0,0.0,0.0,0.0,0.0,-3.803,-3.7972,-3.6536,-3.6713,-3.7164,-3.7608,0.0,0.0,0.0,0.0,0.0,0.0,0.0,0.0,0.0,0.0,0.0,0.0,0.0,0.0,-1.2779,-1.3431,-1.3347,0.0,0.0,0.0,0.0,0.0,0.0,0.0,0.0,-1.7965,-1.8614,-1.8505,-1.9503,-1.9863,-1.9638,-2.0379,-2.0035,0.0,0.0,0.0,0.0,0.0,0.0,0.0,0.0,-2.4626,-2.6567,-2.7484,-2.9061,-3.1319,-3.2501,-3.3811,-3.5392,-3.6591,-3.7874,-3.9312,-3.9411,-3.9779,0.0,0.0,0.0,0.0,0.0,0.0,0.0,0.0,0.0,0.0,0.0,0.0,0.0,0.0,0.0,0.0,0.0,0.0,0.0,0.0,0.0,0.0,0.0,-2.1314,0.0,0.0,0.0,0.0,0.0,0.0,0.0,0.0,0.0,-2.243,-2.3105,-2.4876,-2.8195,-3.0807,-3.2707,-3.3479,0.0,0.0,0.0,0.0,0.0,0.0,0.0,-3.424,-3.4848,-3.5279,-3.6088,-3.7868,-3.92,-4.0068,-4.022,0.0,0.0,-3.8814,-3.9003,-3.9692,-4.0106,-4.0713,-4.1644,-4.2814,-4.3789,-4.4922,0.0,0.0,0.0,0.0,-2.0981,0.0,0.0,0.0,-1.6443,-1.5896,0.0,-1.6066,0.0,0.0,0.0,0.0,-1.6009,-1.7167,0.0,0.0,-1.94,-2.0251,-2.0744,-2.0763,-2.1213,-2.2105,-2.3046,-2.3569,-2.3435,-2.1602,-2.0514,0.0,0.0,0.0,0.0,0.0,-2.5156,-2.6841,-2.7777,-2.899,-3.0462,-3.1818,-3.3168,-3.4639,-3.618,-3.7528,-3.8765,-3.9658,-4.0776,-4.205,-4.2226,0.0,0.0,0.0,0.0,0.0,0.0,0.0,0.0,0.0,0.0,0.0,0.0,0.0,0.0,0.0,0.0,0.0,0.0,0.0,0.0,-2.3963,0.0,0.0,0.0,0.0,0.0,0.0,0.0,0.0,0.0,-2.61,-2.5363,-2.66,-2.8203,-2.9616,0.0,0.0,0.0,0.0,-3.4237,-3.3843,-3.3941,-3.4213,-3.4531,-3.5522,-3.6351,-3.6803,0.0,0.0,-4.1066,-4.1663,-4.2028,-4.1937,-4.3347,-4.351,-4.0859,-4.1695,-4.2917,-4.3307,-4.3886,-4.4646,-4.5492,-4.6312,-4.7289,-2.8657,0.0,0.0,0.0,0.0,-2.3858,-2.2811,-2.2452,-2.0582,-1.9772,-1.9696,-1.8463,0.0,0.0,0.0,0.0,0.0,0.0,-1.9371,-1.9895,-2.0764,-2.1207,-2.1427,-2.2805,-2.3333,-2.3054,-2.4687,-2.547,-2.553,-2.5312,-2.4776,-2.4031,0.0,0.0,0.0,0.0,-2.6792,-2.8025,-2.8664,-2.9351,-3.0238,-3.1291,-3.2547,-3.4097,-3.4844,-3.6353,-3.8652,-3.9151,-4.0365,-4.2338,-4.3258,0.0,0.0,0.0,0.0,0.0,0.0,0.0,0.0,0.0,0.0,0.0,0.0,0.0,0.0,0.0,0.0,0.0,0.0,0.0,-2.6399,-2.629,-2.6572,0.0,0.0,0.0,0.0,0.0,0.0,0.0,0.0,0.0,-3.066,-3.0125,-2.9807,0.0,0.0,-3.2245,-3.2418,-3.3624,-3.4848,-3.5426,-3.5498,0.0,-3.6752,-3.6887,-3.7387,-3.8477,-4.1041,-4.3026,-4.3069,-4.4281,-4.528,-4.5167,-4.6036,-4.6755,-4.6722,-4.5991,-4.5605,-4.5691,-4.6181,-4.6906,-4.7624,-4.8213,-4.9042,-3.1075,-3.1091,-2.9138,-2.8747,-2.9254,-2.7771,-2.6759,-2.602,-2.4628,-2.3751,-2.3335,-2.2182,-2.1507,-2.1176,-1.9942,0.0,0.0,0.0,-2.1255,-2.1677,-2.2399,-2.3103,-2.3853,-2.5018,-2.5697,-2.5795,-2.7024,-2.7727,-2.7803,-2.8512,-2.8382,-2.7494,0.0,-2.7221,-2.8013,-2.7952,-2.856,-2.9819,-2.9592,-2.9682,-3.0153,-3.0548,-3.1304,-3.2551,-3.2846,-3.424,-3.6893,-3.7875,-3.9623,-4.2299,-4.3902,-4.4822,0.0,0.0,0.0,0.0,0.0,0.0,0.0,0.0,0.0,0.0,0.0,-3.4257,-3.447,0.0,0.0,0.0,-3.1771,-3.0402,-2.8471,-2.8965,0.0,0.0,0.0,0.0,0.0,0.0,0.0,-3.1187,-3.2041,-3.2926,-3.3878,-3.3409,-3.2777,-3.2302,-3.3089,-3.3687,-3.3735,0.0,-3.6232,-3.6913,-3.7165,-3.7534,-3.8289,-3.8719,-3.96,-4.1286,-4.3257,-4.46,-4.4567,-4.5544,-4.6369,-4.677,-4.7577,-4.8504,-4.9545,-4.8981,-4.8327,-4.8001,-4.8475,-4.9125,-4.9519,-5.0232,-5.119,-3.2364,-3.3364,-3.1394,-3.0991,-3.1457,-3.0659,-2.9913,-2.9273,-2.8539,-2.7817,-2.71,-2.6545,-2.5714,-2.4553,-2.3046,0.0,-2.0582,-2.2426,-2.3281,-2.3424,-2.4272,-2.5594,-2.7138,-2.7332,-2.8068,-2.9403,-2.9835,-3.0103,-3.0215,-3.1139,-3.1299,-3.07,-2.9303,-2.9026,-2.9772,-2.9708,-3.0401,-3.1896,-3.0592,-3.006,-3.0237,-2.9773,-2.991,-3.0608,-3.0625,-3.1846,-3.426,-3.6217,-3.8704,-4.1785,-4.4205,-4.6076,-4.735,0.0,0.0,0.0,0.0,0.0,0.0,0.0,0.0,0.0,0.0,0.0,0.0,0.0,0.0,-3.5881,-3.4568,0.0,-3.1044,-3.1929,0.0,0.0,0.0,-3.2671,-3.3342,-3.4036,-3.4497,-3.4691,0.0,0.0,-3.5739,-3.6476,-3.656,-3.4957,-3.5981,-3.6625,-3.5992,-3.7253,-3.8315,-3.8459,-3.8792,-3.9264,-3.9782,-4.0984,-4.2533,-4.4472,-4.5341,-4.5718,-4.5747,-4.5956,-4.6398,-4.7164,-4.7962,-4.8916,-5.0,-5.0661,-5.1053,-5.0124,-5.0548,-5.1,-5.109,-5.2024,-5.3086,-3.3452,-3.4042,-3.3363,-3.331,-3.3676,-3.3826,-3.3532,-3.2951,-3.2156,-3.11,-2.9976,-2.8858,-2.7351,-2.5564,-2.4496,-2.3732,-2.3295,-2.4222,-2.4743,-2.5014,-2.5862,-2.6891,-2.8015,-2.8629,-2.9344,-3.0149,-3.1025,-3.172,-3.2307,-3.211,-3.2182,-3.249,-3.1728,-3.1158,-3.0864,-3.1026,-3.1196,-3.1409,-3.1163,-3.084,-3.0514,-3.0212,-3.0295,-3.0658,-3.0927,-3.19,-3.3661,-3.5874,-3.8174,-4.0664,-4.3615,-4.5823,-4.718,-4.7504,0.0,0.0,0.0,0.0,0.0,0.0,0.0,0.0,0.0,-3.8512,-3.8588,0.0,-3.7826,0.0,-3.7405,-3.687,-3.6149,-3.5622,0.0,0.0,-3.6344,-3.5538,-3.6273,-3.687,-3.7288,-3.7343,-3.8046,-3.8737,-3.9218,-3.9725,-3.9986,-3.9817,-3.8831,-3.8228,-3.8418,-3.9418,-4.0457,-4.0904,-4.1393,-4.2023,-4.2739,-4.3748,-4.4763,-4.6062,-4.6745,-4.7076,-4.7076,-4.7193,-4.7314,-4.7703,-4.8326,-4.91,-4.9846,-5.0966,-5.1574,-5.1301,-5.1485,-5.179,-5.1971,-5.2723,-5.3663,-3.3074,-3.3296,-3.3725,-3.3944,-3.4115,-3.4942,-3.5155,-3.4869,-3.4406,-3.3645,-3.269,-3.1653,-3.0065,-2.8029,-2.7345,-2.6535,-2.5716,-2.5974,-2.6095,-2.6118,-2.6921,-2.786,-2.8906,-2.9768,-3.0659,-3.1593,-3.2284,-3.2776,-3.3133,-3.3029,-3.3066,-3.3138,-3.3068,-3.2685,-3.2092,-3.2092,-3.2232,-3.2511,-3.1807,-3.1124,-3.0615,-3.0355,-3.0401,-3.0815,-3.084,-3.167,-3.3405,-3.5018,-3.6989,-3.9397,-4.2191,-4.4443,-4.6121,-4.75,-4.8327,0.0,0.0,0.0,0.0,0.0,0.0,0.0,0.0,0.0,0.0,0.0,-4.0457,-4.0825,-4.0732,-4.0482,-4.013,-3.9372,-3.9526,-4.12,-3.9708,-3.887,-3.9624,-3.989,-4.0054,-4.0147,-4.0451,-4.0869,-4.1562,-4.2333,-4.302,-4.3654,-4.2663,-4.1744,-4.1227,-4.1753,-4.2502,-4.3139,-4.3624,-4.4112,-4.4929,-4.5513,-4.6126,-4.6966,-4.7382,-4.7654,-4.7624,-4.7452,-4.7402,-4.7852,-4.8118,-4.8682,-4.9664,-5.0695,-5.1424,-5.1819,-5.2063,-5.2306,-5.2577,-5.3113,-5.3928,-3.2032,-3.2067,-3.3187,-3.3631,-3.3741,-3.4888,-3.551,-3.5654,-3.5723,-3.5498,-3.5012,-3.4376,-3.2985,-3.118,-3.0701,-2.9635,-2.8161,-2.7958,-2.7647,-2.7264,-2.7884,-2.8801,-2.9922,-3.0753,-3.1856,-3.3205,-3.3458,-3.3522,-3.3502,-3.3936,-3.3876,-3.331,-3.3665,-3.3665,-3.3208,-3.3014,-3.3306,-3.4015,-3.2406,-3.1333,-3.0931,-3.0575,-3.0648,-3.1221,-3.1043,-3.171,-3.3411,-3.4335,-3.5937,-3.8264,-4.0662,-4.2826,-4.4824,-4.7143,-4.8607,0.0,-5.0172,0.0,0.0,0.0,0.0,0.0,0.0,0.0,0.0,-4.2724,-4.3079,-4.4252,-4.4036,-4.3761,-4.3532,-4.3012,-4.301,-4.3779,-4.2741,-4.2251,-4.2835,-4.2777,-4.2757,-4.2961,-4.3036,-4.3164,-4.3702,-4.4722,-4.583,-4.655,-4.6454,-4.5719,-4.4555,-4.4318,-4.4616,-4.5221,-4.5567,-4.5897,-4.6431,-4.6749,-4.7045,-4.7643,-4.7794,-4.7709,-4.7794,-4.7452,-4.7285,-4.7791,-4.7852,-4.8237,-4.9548,-5.0215,-5.0789,-5.1668,-5.2153,-5.2544,-5.2993,-5.3496,-5.4183,-3.1477,-3.1846,-3.2045,-3.2802,-3.3946,-3.4515,-3.5025,-3.5451,-3.5911,-3.5993,-3.5829,-3.5208,-3.4739,-3.4311,-3.3087,-3.2149,-3.138,-3.0849,-3.0182,-2.9419,-2.9524,-3.0282,-3.1533,-3.1719,-3.2581,-3.3956,-3.408,-3.4414,-3.4969,-3.4451,-3.4349,-3.4679,-3.4101,-3.3752,-3.3671,0.0,0.0,0.0,-3.2636,-3.2371,-3.2524,-3.2119,-3.2178,-3.2694,-3.3266,0.0,-3.388,-3.554,-3.7006,-3.8222,-4.0426,0.0,-4.5027,0.0,0.0,0.0,0.0,0.0,0.0,0.0,0.0,0.0,-5.0223,-4.8145,-4.5368,-4.4819,-4.5244,-4.6638,-4.647,-4.6428,-4.6844,-4.65,-4.6016,-4.5427,-4.489,-4.4624,-4.4753,-4.5005,-4.5319,-4.575,-4.6212,-4.6709,-4.7154,-4.7628,-4.8067,-4.8846,-4.8686,-4.8554,-4.8775,-4.7324,-4.6603,-4.7007,-4.728,-4.757,-4.789,-4.7973,-4.8171,-4.8552,-4.8552,-4.8469,-4.8635,-4.8218,-4.7964,-4.8316,-4.8313,-4.8297,-4.898,-4.9609,-5.0393,-5.1061,-5.1631,-5.214,-5.3077,-5.3726,-5.4238,-3.0677,-3.0908,-3.1464,-3.2188,0.0,-3.3776,-3.4475,-3.5095,-3.5959,-3.6359,-3.6303,-3.6324,-3.6139,-3.5864,-3.5018,-3.436,-3.3885,-3.2954,-3.207,-3.1287,-3.092,-3.1107,-3.173,-3.2112,-3.2864,-3.397,-3.4408,-3.486,-3.5174,-3.4776,-3.4689,-3.4867,-3.4315,-3.3979,-3.3913,-3.4156,-3.4199,-3.3996,-3.3718,-3.3761,-3.4058,-3.3808,-3.399,-3.4653,-3.4822,0.0,0.0,0.0,0.0,0.0,0.0,0.0,0.0,-4.5978,-4.8629,-5.0905,-5.2438,-5.3862,-5.5244,-5.5191,-5.4726,-5.3935,-5.2536,-5.0609,-4.7942,-4.7596,-4.7904,-4.8898,-4.8854,-4.8802,-4.8956,-4.8596,-4.8181,-4.7696,-4.7252,-4.7047,-4.7082,-4.7066,-4.7143,-4.749,-4.828,-4.8942,-4.8999,-4.9989,-5.0612,-5.1028,-5.0722,-5.0711,-5.1196,-4.9534,-4.8231,-4.8684,-4.8848,-4.8934,-4.9015,-4.9015,-4.9047,-4.9291,-4.921,-4.9047,-4.9291,-4.8718,-4.8385,-4.8718,-4.8577,-4.8596,-4.9304,-4.9928,-5.053,-5.1265,-5.1871,-5.2442,-5.3161,-5.3475,-5.3765,-2.9828,-2.9969,-3.0908,-3.1535,-3.1954,-3.2993,-3.3917,-3.4798,-3.6168,0.0,0.0,-3.7294,-3.7251,-3.675,-3.6748,-3.6565,-3.6124,-3.4983,-3.4107,-3.3438,-3.2625,-3.2287,-3.2384,-3.3037,-3.3719,-3.4432,-3.52,-3.5526,-3.5529,-3.5437,-3.5363,-3.5229,-3.4936,-3.4772,-3.4681,-3.5072,-3.5433,-3.5688,-3.5284,-3.5291,-3.5648,-3.5687,-3.6063,-3.6947,-3.657,-3.6816,-3.7883,-3.7672,-3.7604,-3.7796,-3.9546,-4.0886,-4.1667,-4.5241,-4.829,-5.0396,-5.2806,-5.4723,-5.6166,-5.6593,-5.6369,-5.5397,-5.3758,-5.2011,-5.0269,-5.0083,-5.0262,-5.0867,-5.0863,-5.078,-5.0678,-5.0317,-4.997,-4.9862,-4.9434,-4.9224,-4.9501,-4.9199,-4.9064,-4.9363,-5.0325,-5.0885,-5.0714,-5.1942,-5.3025,-5.2951,-5.2697,-5.2706,-5.2908,-5.1205,-4.9809,-5.0246,-5.0232,-5.0232,-5.0438,-5.0422,-5.0359,-5.0644,-5.0262,-5.0039,-5.0039,-4.9634,-4.9326,-4.9478,-4.914,-4.9357,-4.9864,-5.0235,-5.0844,-5.1638,-5.2238,-5.2712,-5.3121,-5.3175,-5.3302,-2.9319,-2.9817,-2.9872,-3.0736,-3.2184,-3.262,-3.3597,-3.5048,-3.6961,-3.744,-3.693,-3.7831,-3.8036,-3.7755,-3.864,-3.8779,-3.8338,-3.7782,-3.7325,-3.6747,-3.5398,-3.5212,-3.6052,-3.6177,-3.659,-3.7295,-3.7502,-3.7555,-3.7563,-3.7501,-3.7398,-3.7254,-3.6934,-3.6929,-3.7147,-3.719,-3.7778,-3.8907,-3.7402,-3.6813,-3.7363,-3.7711,-3.8456,-3.9415,-3.9474,-3.9615,-3.9896,-4.0188,-4.0268,-3.9923,-4.0934,-4.201,-4.3086,-4.5621,-4.8148,-5.0541,-5.2895,-5.4978,-5.6507,-5.6927,-5.6543,-5.5248,-5.4091,-5.2789,-5.1195,-5.0971,-5.1265,-5.1925,-5.1912,-5.2045,-5.2553,-5.236,-5.1846,-5.1221,-5.0839,-5.0904,-5.1694,-5.1526,-5.1794,-5.2834,-5.3352,-5.3566,-5.3605,-5.3928,-5.4314,-5.46,-5.4634,-5.4465,-5.4427,-5.2824,-5.1671,-5.1738,-5.1545,-5.1724,-5.2313,-5.2681,-5.263,-5.2792,-5.2538,-5.2316,-5.2363,-5.1804,-5.1403,-5.128,-5.085,-5.0612,-5.0611,-5.0341,-5.0817,-5.1549,-5.1948,-5.2284,-5.2989,-5.3117,-5.3331,-2.8383,-2.8612,-2.934,-3.0188,-3.1111,-3.2487,-3.3669,-3.4789,-3.6577,-3.7035,-3.66,-3.7569,-3.7934,-3.7828,-3.85,-3.9017,-3.9369,-3.897,-3.8979,-3.9174,-3.7403,-3.7088,-3.7968,-3.7222,-3.7243,-3.8032,-3.811,-3.813,-3.8152,-3.8543,-3.8695,-3.8524,-3.8535,-3.8976,-3.9825,-3.9667,-4.0194,-4.1499,-3.9901,-3.9226,-3.9656,-4.0135,-4.0687,-4.1279,-4.1091,-4.1052,-4.1264,-4.1355,-4.1124,-4.0691,-4.2032,-4.3026,-4.3535,-4.6043,-4.8357,-5.03,-5.213,-5.3985,-5.5897,-5.6585,-5.6362,-5.5055,-5.4688,-5.4056,-5.2972,-5.2642,-5.2639,-5.3008,-5.3376,-5.3702,-5.3949,-5.3696,-5.3376,-5.301,-5.2663,-5.2707,-5.3116,-5.3411,-5.3773,-5.4458,-5.4828,-5.4978,-5.4792,-5.533,-5.6007,-5.6624,-5.6705,-5.6736,-5.671,-5.577,-5.4635,-5.4089,-5.3709,-5.3691,-5.4096,-5.4128,-5.4128,-5.4204,-5.3977,-5.3825,-5.3825,-5.3441,-5.3156,-5.3018,-5.2584,-5.227,-5.2212,-5.1925,-5.1893,-5.2171,-5.2631,-5.3066,-5.3428,-5.4043,-5.4417,-2.7478,-2.7344,-2.8648,-2.9606,-3.0451,-3.2393,-3.3619,-3.4407,-3.6059,-3.6555,-3.6325,-3.7361,-3.7862,-3.7933,-3.8383,-3.9223,-4.011,-3.9983,-4.0452,-4.1216,-3.9558,-3.9184,-3.9869,-3.8758,-3.8658,-3.9335,-3.9444,-3.9438,-3.9482,-4.0053,-4.0355,-4.0376,-4.0749,-4.1628,-4.2894,-4.2612,-4.3111,-4.4235,-4.3358,-4.2596,-4.2171,-4.2602,-4.3112,-4.3523,-4.3093,-4.2893,-4.3254,-4.297,-4.2608,-4.2235,-4.3376,-4.4191,-4.4511,-4.6589,-4.8532,-5.0011,-5.1395,-5.3016,-5.4968,-5.5764,-5.5735,-5.4896,-5.5099,-5.5134,-5.4709,-5.4608,-5.4428,-5.4243,-5.4913,-5.536,-5.5243,-5.4966,-5.4843,-5.4801,-5.4503,-5.4481,-5.4789,-5.5158,-5.5504,-5.5779,-5.6207,-5.6296,-5.6007,-5.6721,-5.771,-5.8461,-5.8898,-5.9015,-5.8845,-5.8662,-5.8044,-5.7047,-5.6268,-5.5953,-5.595,-5.5909,-5.5943,-5.5947,-5.5693,-5.5542,-5.5469,-5.5255,-5.4899,-5.48,-5.4482,-5.4189,-5.41,-5.3878,-5.3682,-5.3852,-5.4222,-5.4491,-5.4766,-5.5467,-5.5862,-2.6712,-2.6644,-2.7474,-2.9077,-3.106,-3.2276,-3.3146,-3.4037,-3.5717,-3.6417,-3.6428,-3.7703,-3.8332,-3.851,-3.9355,-4.0308,-4.1274,-4.1498,-4.2099,-4.2975,-4.2385,-4.2281,-4.2641,-4.256,-4.2733,-4.2936,-4.2896,-4.2811,-4.288,-4.3011,-4.3324,-4.3834,-4.4474,-4.5388,-4.6505,-4.6402,-4.6861,-4.8088,-4.8605,-4.749,-4.4844,-4.5078,-4.595,-4.725,-4.6602,-4.6546,-4.679,-4.637,-4.5898,-4.5629,-4.5421,-4.5818,-4.6662,-4.749,-4.8473,-4.9698,-5.1207,-5.2785,-5.423,-5.4313,-5.4415,-5.4695,-5.5099,-5.543,-5.5772,-5.6601,-5.6677,-5.6069,-5.6413,-5.6836,-5.677,-5.6592,-5.6557,-5.6555,-5.6206,-5.6195,-5.6978,-5.7106,-5.7389,-5.811,-5.8116,-5.8116,-5.7825,-5.8575,-5.9365,-6.0041,-6.0551,-6.082,-6.0804,-6.0883,-6.0911,-6.0356,-5.9151,-5.8276,-5.8591,-5.877,-5.8393,-5.8462,-5.8254,-5.7871,-5.7627,-5.7446,-5.7263,-5.6592,-5.6356,-5.6089,-5.5716,-5.5585,-5.569,-5.5587,-5.5893,-5.6267,-5.6472,-5.685,-5.6772,-2.5862,-2.5746,-2.6607,-2.8146,-3.0143,-3.1565,-3.2636,-3.3536,-3.5231,-3.6261,-3.6831,-3.7839,-3.844,-3.8713,-3.9283,-4.0308,-4.1651,-4.1898,-4.2801,-4.4121,-4.4056,-4.4407,-4.5035,-4.4752,-4.4937,-4.5531,-4.5157,-4.4972,-4.5115,-4.5526,-4.6364,-4.7389,-4.768,-4.8414,-4.9601,-4.9478,-4.9687,-5.0259,-5.0527,-5.0078,-4.9029,-4.8388,-4.837,-4.8663,-4.8197,-4.798,-4.7996,-4.7464,-4.6927,-4.6548,-4.6675,-4.6982,-4.7407,-4.824,-4.901,-4.9825,-5.1263,-5.236,-5.2888,-5.3541,-5.4151,-5.4658,-5.5174,-5.583,-5.6727,-5.7802,-5.8415,-5.8606,-5.8745,-5.8881,-5.883,-5.9043,-5.9168,-5.9101,-5.8877,-5.8835,-5.925,-5.9197,-5.9339,-5.9654,-5.9285,-5.9211,-5.9841,-6.1097,-6.1825,-6.1923,-6.2133,-6.2376,-6.239,-6.2398,-6.2354,-6.2182,-6.1315,-6.0617,-6.03,-6.003,-5.9809,-5.9648,-5.9383,-5.9182,-5.8909,-5.8841,-5.8565,-5.8221,-5.7947,-5.7603,-5.7192,-5.6978,-5.6932,-5.6936,-5.7062,-5.7318,-5.7576,-5.8101,-5.8164,-2.5017,-2.5038,-2.6072,-2.7769,-2.9816,-3.1257,-3.2387,-3.3387,-3.5027,-3.6273,-3.7136,-3.7938,-3.8577,-3.9073,-3.9219,-4.0221,-4.1761,-4.2088,-4.3137,-4.4776,-4.5224,-4.5816,-4.6569,-4.6416,-4.6667,-4.7245,-4.6899,-4.6687,-4.6889,-4.7929,-4.902,-4.9995,-5.0459,-5.1223,-5.2222,-5.212,-5.2129,-5.2397,-5.2286,-5.2196,-5.2099,-5.1402,-5.0766,-5.0351,-4.9791,-4.9543,-4.9442,-4.8783,-4.8273,-4.7969,-4.8158,-4.8345,-4.8473,-4.9188,-4.9873,-5.0397,-5.1438,-5.209,-5.2089,-5.3271,-5.4246,-5.4822,-5.5696,-5.6752,-5.7725,-5.8758,-5.9654,-6.0311,-6.1009,-6.1268,-6.0929,-6.1191,-6.1401,-6.1303,-6.0903,-6.0604,-6.0604,-6.0414,-6.0113,-6.0266,-5.9964,-6.0264,-6.1582,-6.3047,-6.3828,-6.3372,-6.3419,-6.361,-6.3519,-6.3345,-6.3205,-6.3099,-6.2917,-6.2376,-6.1415,-6.095,-6.0747,-6.0477,-6.0227,-5.9908,-5.9718,-5.9652,-5.9551,-5.9207,-5.902,-5.8881,-5.8716,-5.8421,-5.8324,-5.8199,-5.8324,-5.8633,-5.8966,-5.9501,-5.9653,-2.4229,-2.4385,-2.6019,-2.8251,-3.066,-3.1709,-3.2616,-3.3406,-3.5241,-3.647,-3.7203,-3.8049,-3.8855,-3.9551,-3.9602,-4.0466,-4.1945,-4.2322,-4.3377,-4.5033,-4.5934,-4.6512,-4.6839,-4.7511,-4.8066,-4.8462,-4.8516,-4.8516,-4.8716,-5.0186,-5.1053,-5.1235,-5.2629,-5.377,-5.4347,-5.4185,-5.4364,-5.4547,-5.4419,-5.4166,-5.3829,-5.3684,-5.3145,-5.2327,-5.1886,-5.1646,-5.1718,-5.1083,-5.0717,-5.0717,-5.014,-5.0042,-5.0335,-5.0605,-5.107,-5.1627,-5.1844,-5.2089,-5.2578,-5.3661,-5.4617,-5.5322,-5.6962,-5.8358,-5.8805,-5.9769,-6.0446,-6.0617,-6.2689,-6.3504,-6.2892,-6.2849,-6.2725,-6.2383,-6.1599,-6.1117,-6.0974,-6.0372,-5.9731,-5.988,-6.0433,-6.1413,-6.3081,-6.4254,-6.4596,-6.4407,-6.4326,-6.4203,-6.4083,-6.3958,-6.383,-6.3691,-6.3557,-6.3242,-6.2464,-6.1842,-6.1544,-6.1257,-6.0903,-6.06,-6.0547,-6.036,-6.0297,-6.0135,-6.0023,-5.9988,-6.003,-6.0121,-6.0158,-6.0088,-5.9991,-6.0271,-6.0167,-6.0713,-6.0796,-2.5161,-2.5849,-2.7116,-2.8276,-2.9401,-3.1393,-3.2468,-3.294,-3.4661,-3.5913,-3.6691,-3.7485,-3.8622,-3.9949,-4.039,-4.1175,-4.2233,-4.2972,-4.4204,-4.5826,-4.6837,-4.7665,-4.8409,-4.9757,-5.0509,-5.0625,-5.118,-5.1579,-5.1824,-5.2503,-5.3142,-5.3659,-5.4296,-5.4957,-5.5559,-5.5602,-5.5513,-5.5399,-5.5216,-5.4836,-5.4382,-5.4251,-5.3977,-5.3565,-5.3088,-5.2883,-5.2926,-5.2372,-5.2015,-5.1849,-5.1437,-5.1434,-5.207,-5.2794,-5.3405,-5.3749,-5.3845,-5.4034,-5.4473,-5.5006,-5.5869,-5.6818,-5.7815,-5.9095,-6.0228,-6.0874,-6.1602,-6.2758,-6.358,-6.4259,-6.4757,-6.4985,-6.4978,-6.4247,-6.3356,-6.2682,-6.2534,-6.1527,-6.0588,-6.079,-6.1197,-6.1999,-6.3372,-6.4325,-6.4819,-6.467,-6.4558,-6.448,-6.4324,-6.4203,-6.4158,-6.3953,-6.3823,-6.3654,-6.3419,-6.2668,-6.2149,-6.1787,-6.1508,-6.114,-6.0903,-6.0818,-6.0696,-6.0574,-6.0635,-6.0538,-6.0538,-6.0477,-6.0782,-6.1058,-6.0998,-6.0998,-6.1198,-6.1176,-6.1152,-2.6016,-2.7048,-2.7803,-2.8519,-2.9364,-3.143,-3.2522,-3.3028,-3.4732,-3.5986,-3.6862,-3.7852,-3.9031,-4.021,-4.1499,-4.2306,-4.2844,-4.3763,-4.4972,-4.6297,-4.7554,-4.8613,-4.9541,-5.1015,-5.2017,-5.2516,-5.3241,-5.3588,-5.3561,-5.3845,-5.4341,-5.4991,-5.5313,-5.5741,-5.6231,-5.6302,-5.6106,-5.5821,-5.5685,-5.5451,-5.5298,-5.5209,-5.5223,-5.5239,-5.504,-5.4647,-5.4131,-5.3751,-5.3665,-5.3732,-5.3476,-5.3551,-5.4091,-5.4765,-5.5257,-5.5383,-5.5471,-5.5595,-5.5923,-5.6357,-5.7079,-5.801,-5.8698,-5.9754,-6.1233,-6.1514,-6.2433,-6.3695,-6.4555,-6.5033,-6.569,-6.643,-6.6519,-6.549,-6.4489,-6.3816,-6.3511,-6.2178,-6.1571,-6.1742,-6.1856,-6.2591,-6.385,-6.4575,-6.4848,-6.4815,-6.4934,-6.5011,-6.4896,-6.478,-6.474,-6.4541,-6.4275,-6.4079,-6.3873,-6.3437,-6.2867,-6.2515,-6.2059,-6.1676,-6.1394,-6.1221,-6.114,-6.1058,-6.0998,-6.0938,-6.0938,-6.0843,-6.1081,-6.143,-6.1372,-6.1315,-6.1372,-6.135,-6.1292,-2.6609,-2.7824,-2.798,-2.9109,-3.0692,-3.1977,-3.2972,-3.3975,-3.5567,-3.6746,-3.7661,-3.93,-4.0004,-4.0611,-4.2574,-4.377,-4.406,-4.4849,-4.5659,-4.6581,-4.8125,-4.9315,-5.0063,-5.1356,-5.2805,-5.4142,-5.4311,-5.4105,-5.3821,-5.455,-5.5001,-5.5151,-5.6018,-5.6485,-5.6432,-5.6601,-5.6532,-5.648,-5.6325,-5.6451,-5.6889,-5.678,-5.6928,-5.7532,-5.7583,-5.7024,-5.5767,-5.5525,-5.5751,-5.6459,-5.6359,-5.6329,-5.622,-5.6482,-5.6482,-5.6556,-5.6556,-5.6557,-5.6706,-5.7527,-5.8154,-5.8689,-5.9482,-6.0463,-6.1467,-6.1755,-6.2376,-6.3893,-6.4972,-6.5795,-6.6097,-6.6877,-6.691,-6.5695,-6.489,-6.4172,-6.3188,-6.2146,-6.1819,-6.2506,-6.2566,-6.3258,-6.4616,-6.5308,-6.5356,-6.5293,-6.5717,-6.6103,-6.5993,-6.588,-6.5842,-6.5614,-6.5272,-6.4968,-6.4587,-6.4162,-6.3654,-6.3194,-6.2718,-6.2308,-6.2112,-6.1915,-6.1787,-6.1676,-6.16,-6.16,-6.1636,-6.1544,-6.1656,-6.1878,-6.1768,-6.1768,-6.1768,-6.1768,-6.1523,-2.7299,-2.9064,-2.9234,-3.0138,-3.1598,-3.2693,-3.3696,-3.4643,-3.5855,-3.6824,-3.7814,-3.9452,-4.0461,-4.1258,-4.2993,-4.4433,-4.5542,-4.6366,-4.7087,-4.7996,-4.9083,-5.0058,-5.0978,-5.2835,-5.4798,-5.6289,-5.6507,-5.655,-5.6582,-5.6862,-5.6888,-5.6725,-5.7412,-5.7609,-5.7229,-5.7802,-5.8194,-5.816,-5.8119,-5.8148,-5.8219,-5.8149,-5.8153,-5.8255,-5.8298,-5.8294,-5.8457,-5.7647,-5.7416,-5.7774,-5.7489,-5.7549,-5.8022,-5.8639,-5.885,-5.8792,-5.8797,-5.8835,-5.8878,-5.9159,-5.9505,-5.974,-6.0179,-6.1114,-6.2366,-6.2651,-6.3357,-6.4819,-6.5551,-6.5846,-6.6144,-6.6917,-6.6952,-6.5895,-6.5524,-6.5013,-6.4103,-6.3219,-6.2804,-6.2853,-6.313,-6.3894,-6.5085,-6.5779,-6.6173,-6.6064,-6.6612,-6.7113,-6.7007,-6.6858,-6.6973,-6.6824,-6.6409,-6.588,-6.5464,-6.5275,-6.5107,-6.4501,-6.3919,-6.3309,-6.3002,-6.3012,-6.2786,-6.2485,-6.2381,-6.2238,-6.2238,-6.2364,-6.2542,-6.2485,-6.2485,-6.2433,-6.2397,-6.2202,-6.1933,-2.8358,-2.9853,-3.0186,-3.1237,-3.2669,-3.3543,-3.4576,-3.5752,-3.6727,-3.7583,-3.8667,-4.0286,-4.1296,-4.2091,-4.3802,-4.5261,-4.6377,-4.7669,-4.8726,-4.9438,-4.9996,-5.0988,-5.2477,-5.4981,-5.6535,-5.7452,-5.7862,-5.7967,-5.7941,-5.804,-5.7912,-5.7736,-5.8237,-5.8312,-5.8013,-5.8579,-5.8975,-5.9,-5.8983,-5.9131,-5.929,-5.9295,-5.9387,-5.9565,-5.9593,-5.9847,-6.0352,-5.9668,-5.9302,-5.9264,-5.9125,-5.9249,-5.9657,-6.0133,-6.038,-6.0238,-6.0212,-6.0185,-6.0151,-6.0196,-6.0418,-6.0546,-6.0891,-6.1722,-6.2964,-6.3425,-6.4334,-6.5551,-6.5895,-6.6013,-6.6301,-6.7155,-6.7231,-6.6245,-6.6358,-6.5865,-6.4902,-6.4114,-6.3745,-6.3702,-6.4057,-6.4719,-6.5427,-6.6391,-6.6865,-6.6796,-6.7299,-6.7807,-6.7626,-6.7288,-6.7292,-6.7148,-6.6771,-6.6394,-6.6281,-6.6367,-6.656,-6.5948,-6.5287,-6.4681,-6.4225,-6.4466,-6.4483,-6.3859,-6.3567,-6.3125,-6.3088,-6.3382,-6.3492,-6.3358,-6.3137,-6.3162,-6.3112,-6.2741,-6.2464,-2.9659,-3.0274,-3.0844,-3.2201,-3.3939,-3.4362,-3.5469,-3.7107,-3.8071,-3.8946,-4.0027,-4.1616,-4.2534,-4.3141,-4.5,-4.6252,-4.6898,-4.8666,-5.0289,-5.1005,-5.1466,-5.2498,-5.4773,-5.6907,-5.7758,-5.7807,-5.8463,-5.8509,-5.8168,-5.8268,-5.8144,-5.8274,-5.8564,-5.8586,-5.8723,-5.8908,-5.9259,-5.935,-5.9274,-5.9667,-6.0312,-6.0307,-6.0597,-6.1264,-6.1236,-6.1227,-6.1284,-6.1214,-6.1225,-6.1182,-6.0942,-6.0854,-6.1053,-6.1057,-6.0964,-6.0943,-6.0923,-6.0993,-6.085,-6.1142,-6.1203,-6.128,-6.188,-6.2567,-6.3484,-6.42,-6.4926,-6.5942,-6.6102,-6.6205,-6.6583,-6.7409,-6.7542,-6.7005,-6.701,-6.6458,-6.5037,-6.4717,-6.4663,-6.4603,-6.5167,-6.5755,-6.5789,-6.6825,-6.7228,-6.7429,-6.7897,-6.8403,-6.8265,-6.8036,-6.7087,-6.7025,-6.7381,-6.7158,-6.7158,-6.7901,-6.7954,-6.7121,-6.6636,-6.636,-6.5619,-6.5758,-6.5769,-6.5195,-6.4807,-6.4345,-6.4021,-6.4261,-6.4224,-6.3975,-6.3901,-6.3928,-6.3854,-6.3537,-6.3088,-3.0704,-3.1532,-3.1734,-3.3172,-3.5141,-3.499,-3.5948,-3.7766,-3.879,-3.9627,-4.0691,-4.2322,-4.3429,-4.4183,-4.5406,-4.6981,-4.8569,-4.958,-5.1404,-5.3421,-5.3754,-5.5023,-5.6772,-5.7677,-5.8384,-5.8857,-5.9114,-5.9261,-5.9336,-5.9367,-5.9272,-5.891,-5.9595,-5.9815,-5.9573,-6.0123,-6.0599,-6.0682,-6.0799,-6.0871,-6.1125,-6.1199,-6.1323,-6.152,-6.1553,-6.1554,-6.1576,-6.1641,-6.1595,-6.1518,-6.1507,-6.1484,-6.146,-6.1408,-6.1589,-6.2016,-6.2167,-6.2416,-6.2796,-6.2913,-6.2933,-6.2955,-6.3127,-6.3709,-6.4492,-6.4791,-6.5374,-6.605,-6.6283,-6.6376,-6.6648,-6.734,-6.7903,-6.8294,-6.7627,-6.6472,-6.547,-6.543,-6.5539,-6.4964,-6.5457,-6.6049,-6.6781,-6.75,-6.8256,-6.8794,-6.9344,-6.9865,-6.9414,-6.8925,-6.8091,-6.8531,-6.877,-6.8318,-6.8334,-6.9126,-6.9213,-6.8291,-6.8054,-6.8337,-6.7427,-6.6776,-6.657,-6.6213,-6.6138,-6.5789,-6.5352,-6.5254,-6.4964,-6.4979,-6.4897,-6.5084,-6.4849,-6.455,-6.3877,-3.1516,-3.2176,-3.2859,-3.4268,-3.5909,-3.5914,-3.6977,-3.8588,-3.9426,-4.0365,-4.1539,-4.2941,-4.414,-4.5068,-4.6628,-4.8106,-4.9634,-5.1134,-5.2862,-5.4478,-5.5794,-5.6979,-5.8008,-5.8351,-5.8914,-5.9434,-5.9508,-5.9613,-5.9777,-6.0038,-5.9951,-5.9879,-6.0405,-6.0535,-6.0282,-6.0771,-6.1208,-6.1229,-6.1408,-6.1507,-6.1556,-6.1602,-6.1588,-6.1593,-6.1592,-6.1601,-6.1655,-6.169,-6.1676,-6.1641,-6.1634,-6.1634,-6.1634,-6.1625,-6.1976,-6.2687,-6.2785,-6.3106,-6.3767,-6.3909,-6.3895,-6.393,-6.4153,-6.4614,-6.5075,-6.5436,-6.5973,-6.6299,-6.64,-6.647,-6.6684,-6.7347,-6.8241,-6.8849,-6.8242,-6.7184,-6.629,-6.626,-6.6032,-6.5721,-6.5814,-6.6389,-6.7299,-6.8034,-6.8858,-6.9552,-6.9913,-7.0196,-7.017,-6.9682,-6.9232,-6.9294,-6.947,-6.9058,-6.903,-6.9719,-7.0195,-6.9383,-6.9107,-6.9493,-6.8904,-6.7959,-6.7766,-6.7608,-6.7492,-6.7142,-6.6598,-6.6319,-6.6662,-6.6593,-6.6406,-6.6175,-6.6036,-6.537,-6.4753,-3.2404,-3.2666,-3.4109,-3.5329,-3.6328,-3.6975,-3.7995,-3.9516,-4.0189,-4.1093,-4.24,-4.3627,-4.4668,-4.573,-4.7772,-4.9402,-5.0122,-5.2752,-5.4387,-5.5739,-5.7163,-5.8487,-5.8635,-5.9024,-5.9289,-5.951,-5.9581,-5.9613,-5.9748,-6.0038,-6.0246,-6.0338,-6.0622,-6.0843,-6.0757,-6.1021,-6.1118,-6.1191,-6.1306,-6.1408,-6.1507,-6.1549,-6.1556,-6.1602,-6.1576,-6.1626,-6.1676,-6.1704,-6.1704,-6.1697,-6.1709,-6.1707,-6.1733,-6.1729,-6.231,-6.3003,-6.335,-6.373,-6.4335,-6.4743,-6.4694,-6.4916,-6.5477,-6.5699,-6.6102,-6.6633,-6.6932,-6.6824,-6.6685,-6.6815,-6.698,-6.7637,-6.8582,-6.9333,-6.9351,-6.8915,-6.8164,-6.7184,-6.6484,-6.6316,-6.632,-6.669,-6.7541,-6.8292,-6.906,-7.0258,-7.0521,-7.0575,-7.0435,-6.9871,-6.9423,-6.9191,-6.9412,-6.9695,-6.9874,-7.0244,-7.0536,-7.0469,-7.02,-7.0216,-6.9918,-6.9284,-6.9133,-6.8982,-6.86,-6.8027,-6.7382,-6.7492,-6.8053,-6.786,-6.733,-6.7509,-6.7535,-6.6387,-6.5553,-3.422,-3.4362,-3.4638,-3.5684,-3.7038,-3.7327,-3.8215,-3.9649,-4.1026,-4.175,-4.2509,-4.3928,-4.5164,-4.6182,-4.8187,-4.9966,-5.1892,-5.3716,-5.524,-5.7554,-5.8606,-5.9351,-5.9424,-5.9508,-5.9472,-5.9545,-5.951,-5.9545,-5.9681,-5.9944,-6.0159,-6.0304,-6.0572,-6.0734,-6.0827,-6.0938,-6.1021,-6.1041,-6.1191,-6.1306,-6.1408,-6.146,-6.1518,-6.1625,-6.1651,-6.166,-6.1707,-6.1718,-6.1718,-6.1713,-6.1785,-6.1907,-6.1913,-6.2382,-6.3125,-6.3896,-6.4587,-6.5223,-6.6073,-6.6619,-6.7157,-6.6984,-6.7569,-6.8447,-6.8436,-6.8405,-6.83,-6.7907,-6.7657,-6.7587,-6.755,-6.8436,-6.9302,-6.9965,-7.0229,-7.0181,-6.9772,-6.8475,-6.7355,-6.6726,-6.6594,-6.6988,-6.8428,-6.8721,-6.9556,-7.0697,-7.1025,-7.1042,-7.0612,-7.0104,-6.991,-6.9717,-6.9826,-7.0165,-7.032,-7.058,-7.0825,-7.112,-7.1052,-7.0979,-7.0675,-7.0487,-7.0264,-6.9928,-6.9511,-6.8943,-6.8337,-6.8784,-6.9303,-6.8816,-6.8402,-6.847,-6.8278,-6.7225,-6.65,-3.4656,-3.4993,-3.5821,-3.6789,-3.7697,-3.8256,-3.9157,-4.0275,-4.1288,-4.2305,-4.3215,-4.4602,-4.592,-4.7242,-4.8974,-5.1007,-5.3124,-5.5063,-5.6818,-5.8501,-5.925,-5.9581,-5.9723,-5.9653,-5.9581,-5.9688,-5.9581,-5.9581,-5.9753,-5.9975,-6.0179,-6.0265,-6.0597,-6.0781,-6.0827,-6.0938,-6.1021,-6.1022,-6.1137,-6.1242,-6.1337,-6.1394,-6.1732,-6.2045,-6.221,-6.2368,-6.287,-6.2959,-6.292,-6.29,-6.2891,-6.2701,-6.2514,-6.3142,-6.4014,-6.4802,-6.5234,-6.5936,-6.6745,-6.7551,-6.801,-6.8105,-6.8892,-6.9233,-6.9343,-6.9353,-6.917,-6.8691,-6.8255,-6.7922,-6.7602,-6.9185,-7.0043,-7.0419,-7.0957,-7.1027,-7.0472,-6.9362,-6.8163,-6.7502,-6.7359,-6.7952,-6.8676,-6.9189,-6.9994,-7.1105,-7.1261,-7.128,-7.1201,-7.0771,-7.0771,-7.0655,-7.0634,-7.0728,-7.0789,-7.096,-7.1085,-7.1386,-7.1557,-7.1621,-7.1573,-7.1452,-7.1307,-7.0829,-7.0345,-6.9967,-6.9588,-7.0115,-7.0372,-7.0032,-6.973,-6.9579,-6.9121,-6.8361,-6.771,-3.4655,-3.5377,-3.6928,-3.7728,-3.8298,-3.9177,-4.0119,-4.1006,-4.1528,-4.2585,-4.4005,-4.5142,-4.6353,-4.8187,-4.9841,-5.1765,-5.4072,-5.6174,-5.7938,-5.8615,-5.8878,-5.9099,-5.9317,-5.9467,-5.9616,-5.9757,-5.9688,-5.9723,-5.9853,-6.0068,-6.0265,-6.0376,-6.0734,-6.0911,-6.0916,-6.0941,-6.1002,-6.1022,-6.1118,-6.1208,-6.1368,-6.1546,-6.2082,-6.2852,-6.3049,-6.3366,-6.3826,-6.4018,-6.415,-6.4297,-6.4409,-6.4096,-6.3828,-6.4023,-6.477,-6.559,-6.5844,-6.6479,-6.7226,-6.8007,-6.8668,-6.8541,-6.9358,-6.9806,-6.9912,-6.999,-6.9855,-6.9411,-6.8952,-6.8379,-6.7844,-6.9556,-7.0732,-7.1072,-7.1667,-7.162,-7.0926,-7.0121,-6.9392,-6.8388,-6.8121,-6.8475,-6.915,-6.9745,-7.0596,-7.1287,-7.1413,-7.1513,-7.1397,-7.1339,-7.1261,-7.1241,-7.1123,-7.1084,-7.1144,-7.157,-7.1683,-7.1872,-7.2113,-7.2375,-7.2495,-7.2454,-7.2302,-7.1636,-7.1163,-7.0944,-7.095,-7.1371,-7.1445,-7.1216,-7.1062,-7.0911,-7.03,-6.9532,-6.9035,-3.5518,-3.6869,-3.6491,-3.7258,-3.8831,-3.9265,-4.004,-4.0984,-4.1828,-4.2853,-4.4068,-4.4983,-4.6339,-4.8138,-4.9747,-5.2218,-5.4896,-5.6673,-5.7475,-5.7819,-5.7937,-5.8128,-5.8612,-5.9062,-5.9397,-5.9723,-5.9757,-5.9791,-5.995,-6.0179,-6.0349,-6.0456,-6.0766,-6.0976,-6.0959,-6.1,-6.1022,-6.1022,-6.1118,-6.1191,-6.153,-6.2083,-6.2871,-6.3737,-6.3886,-6.409,-6.4223,-6.4301,-6.4262,-6.437,-6.4944,-6.5178,-6.5228,-6.5351,-6.559,-6.5989,-6.6961,-6.7633,-6.8,-6.9293,-7.0077,-7.0468,-7.0975,-7.1439,-7.1503,-7.1499,-7.1264,-7.0562,-7.0,-6.9687,-7.1015,-7.1506,-7.2071,-7.2573,-7.2684,-7.2645,-7.1953,-7.1396,-7.0746,-6.9545,-6.9128,-6.8894,-6.9601,-7.0227,-7.0887,-7.1403,-7.1552,-7.1564,-7.149,-7.1472,-7.1454,-7.1436,-7.1436,-7.1436,-7.1436,-7.2018,-7.2405,-7.2599,-7.2887,-7.3407,-7.3496,-7.3519,-7.3253,-7.3063,-7.2716,-7.2406,-7.2532,-7.2655,-7.2432,-7.2168,-7.2168,-7.2167,-7.1482,-7.0796,-7.0904,-3.6274,-3.7325,-3.7325,-3.7992,-3.9094,-4.0027,-4.0691,-4.1301,-4.1949,-4.3012,-4.4186,-4.5111,-4.6897,-4.9161,-5.0453,-5.2747,-5.5097,-5.616,-5.6636,-5.6759,-5.6881,-5.7377,-5.7903,-5.8465,-5.9133,-5.9609,-5.9791,-5.9885,-6.0068,-6.0265,-6.0456,-6.0608,-6.0856,-6.1,-6.1021,-6.1022,-6.106,-6.1079,-6.1155,-6.1479,-6.2028,-6.2836,-6.3767,-6.4504,-6.4821,-6.5017,-6.5449,-6.5542,-6.5574,-6.5712,-6.5946,-6.6382,-6.6706,-6.6907,-6.6917,-6.7117,-6.8049,-6.8791,-6.8922,-7.0015,-7.0601,-7.0806,-7.1864,-7.2575,-7.2773,-7.2925,-7.2812,-7.2148,-7.1758,-7.125,-7.1055,-7.2422,-7.3309,-7.3412,-7.3403,-7.3134,-7.2709,-7.2271,-7.1513,-7.0675,-7.0598,-7.0406,-7.024,-7.0781,-7.1213,-7.1498,-7.1665,-7.1661,-7.1614,-7.1575,-7.1614,-7.1564,-7.1568,-7.155,-7.1666,-7.2269,-7.2851,-7.3141,-7.3743,-7.4247,-7.4653,-7.4685,-7.4989,-7.5113,-7.4692,-7.3845,-7.3609,-7.3548,-7.3292,-7.3148,-7.3116,-7.3041,-7.2548,-7.2243,-7.2202,-3.7148,-3.7851,-3.8343,-3.8901,-3.9608,-4.0593,-4.1286,-4.1613,-4.1931,-4.2923,-4.4407,-4.509,-4.7168,-5.0073,-5.1746,-5.3288,-5.5273,-5.5441,-5.5613,-5.5743,-5.5906,-5.6476,-5.7155,-5.7903,-5.8463,-5.9166,-5.965,-5.9885,-6.015,-6.0349,-6.0533,-6.0704,-6.0941,-6.1022,-6.1041,-6.1118,-6.1155,-6.1229,-6.144,-6.1978,-6.303,-6.3857,-6.4701,-6.5528,-6.5639,-6.5981,-6.6399,-6.6798,-6.6884,-6.7017,-6.7259,-6.7617,-6.8209,-6.8496,-6.858,-6.8697,-6.9288,-6.9561,-6.9874,-7.0498,-7.1084,-7.1162,-7.2392,-7.3008,-7.3426,-7.3711,-7.4062,-7.3515,-7.3398,-7.293,-7.2265,-7.3281,-7.4219,-7.429,-7.3892,-7.3455,-7.315,-7.2756,-7.2271,-7.1897,-7.1979,-7.169,-7.1252,-7.1195,-7.1555,-7.1622,-7.1794,-7.1821,-7.1745,-7.1693,-7.1665,-7.1645,-7.1614,-7.162,-7.1836,-7.2401,-7.2983,-7.3506,-7.442,-7.5255,-7.5663,-7.5993,-7.6147,-7.6144,-7.577,-7.5011,-7.4725,-7.4465,-7.4413,-7.4312,-7.4173,-7.3989,-7.3725,-7.3345,-7.304,-3.8235,-3.9203,-3.8665,-3.9353,-4.062,-4.0468,-4.0822,-4.1569,-4.1917,-4.259,-4.375,-4.4719,-4.6549,-4.9285,-5.2344,-5.3644,-5.4143,-5.4246,-5.4417,-5.458,-5.4778,-5.5087,-5.5693,-5.7037,-5.7791,-5.8574,-5.9246,-5.9744,-6.0121,-6.0376,-6.0584,-6.0773,-6.0982,-6.1118,-6.1155,-6.1173,-6.1208,-6.1397,-6.2034,-6.3175,-6.452,-6.5023,-6.5622,-6.6166,-6.6435,-6.6546,-6.6888,-6.7365,-6.7794,-6.8024,-6.8592,-6.899,-6.928,-6.9904,-7.0224,-7.0348,-7.0441,-7.0576,-7.0681,-7.1228,-7.1657,-7.176,-7.2721,-7.3119,-7.3822,-7.4219,-7.4375,-7.3437,-7.3984,-7.4297,-7.3867,-7.4375,-7.4961,-7.5,-7.4726,-7.4062,-7.3555,-7.347,-7.299,-7.2617,-7.2548,-7.2229,-7.1877,-7.1862,-7.1876,-7.1876,-7.1876,-7.1936,-7.1994,-7.205,-7.1794,-7.1745,-7.1768,-7.1738,-7.2151,-7.2663,-7.3346,-7.3906,-7.4844,-7.5913,-7.6263,-7.6438,-7.6536,-7.6438,-7.6156,-7.6002,-7.5684,-7.5562,-7.5588,-7.5354,-7.5025,-7.5042,-7.5091,-7.4599,-7.3916,-3.9555,-3.9418,-3.9169,-3.9549,-4.04,-4.0642,-4.1021,-4.1445,-4.178,-4.242,-4.3373,-4.4414,-4.6578,-4.9445,-5.1887,-5.2631,-5.2718,-5.2547,-5.2674,-5.3162,-5.3433,-5.3964,-5.509,-5.6288,-5.7229,-5.8128,-5.8949,-5.9643,-6.0061,-6.0376,-6.0608,-6.0795,-6.1022,-6.1155,-6.1229,-6.1247,-6.1608,-6.2261,-6.3301,-6.4419,-6.5149,-6.5736,-6.6205,-6.6606,-6.6669,-6.6925,-6.7413,-6.7735,-6.832,-6.8651,-6.9197,-6.9557,-6.9926,-7.0403,-7.0762,-7.1308,-7.1363,-7.137,-7.1455,-7.1753,-7.187,-7.2292,-7.3103,-7.4342,-7.5052,-7.5273,-7.5469,-7.5586,-7.5351,-7.5312,-7.543,-7.582,-7.5508,-7.543,-7.5273,-7.4726,-7.414,-7.4101,-7.3902,-7.3494,-7.3114,-7.2879,-7.26,-7.2385,-7.2253,-7.2127,-7.2205,-7.2353,-7.2491,-7.2716,-7.2345,-7.1856,-7.1887,-7.1926,-7.2443,-7.2959,-7.3861,-7.4428,-7.4956,-7.591,-7.6436,-7.6669,-7.669,-7.6671,-7.6497,-7.6415,-7.6444,-7.6237,-7.5918,-7.587,-7.5818,-7.566,-7.5527,-7.5386,-7.49,-4.0435,-3.9808,-3.9903,-3.9951,-4.003,-4.085,-4.13,-4.1471,-4.1736,-4.2184,-4.3066,-4.43,-4.6657,-4.9161,-5.0459,-5.1171,-5.1475,-5.1009,-5.1348,-5.183,-5.2353,-5.3216,-5.4378,-5.5579,-5.663,-5.7789,-5.8427,-5.9206,-5.9874,-6.0265,-6.0559,-6.0795,-6.1002,-6.1155,-6.1286,-6.163,-6.2167,-6.3394,-6.4419,-6.5188,-6.5722,-6.6256,-6.653,-6.6672,-6.6786,-6.7108,-6.786,-6.8299,-6.8767,-6.9468,-6.9957,-7.0445,-7.0834,-7.1,-7.1243,-7.1633,-7.1759,-7.1768,-7.1776,-7.1893,-7.1885,-7.2422,-7.3427,-7.4899,-7.6131,-7.625,-7.6094,-7.6445,-7.6484,-7.6133,-7.6094,-7.6601,-7.6289,-7.582,-7.5508,-7.5039,-7.4687,-7.4805,-7.4413,-7.3665,-7.3455,-7.3788,-7.3471,-7.3023,-7.2697,-7.2416,-7.2494,-7.2767,-7.2986,-7.325,-7.2734,-7.217,-7.2345,-7.2429,-7.2834,-7.3471,-7.4286,-7.502,-7.5494,-7.5927,-7.6493,-7.6687,-7.6669,-7.6708,-7.669,-7.6652,-7.6573,-7.6397,-7.6225,-7.6118,-7.5995,-7.5879,-7.5787,-7.5699,-7.5991,-4.0446,-4.0802,-4.0943,-4.062,-4.02,-4.0896,-4.138,-4.171,-4.1894,-4.2094,-4.2569,-4.4127,-4.6002,-4.7693,-4.8998,-4.9852,-5.0435,-5.0712,-5.1092,-5.161,-5.2279,-5.2733,-5.3746,-5.4758,-5.5769,-5.6818,-5.7791,-5.8689,-5.9427,-6.0076,-6.043,-6.0773,-6.0962,-6.1098,-6.1595,-6.2305,-6.3324,-6.4381,-6.5226,-6.5693,-6.6111,-6.6489,-6.6594,-6.6633,-6.6711,-6.7085,-6.7917,-6.8604,-6.9484,-7.0341,-7.0948,-7.1282,-7.1438,-7.1526,-7.1682,-7.1749,-7.1827,-7.1838,-7.1848,-7.1867,-7.1906,-7.2345,-7.3425,-7.4906,-7.5962,-7.6736,-7.668,-7.6406,-7.664,-7.6601,-7.6466,-7.6488,-7.6548,-7.6133,-7.5703,-7.5351,-7.5234,-7.5586,-7.5117,-7.3983,-7.398,-7.4591,-7.4725,-7.4396,-7.3699,-7.3387,-7.3765,-7.4038,-7.3563,-7.3594,-7.3041,-7.2674,-7.2851,-7.3027,-7.3329,-7.4038,-7.5002,-7.5624,-7.6086,-7.6349,-7.6665,-7.6687,-7.6687,-7.6669,-7.669,-7.6708,-7.669,-7.6531,-7.6397,-7.6301,-7.6198,-7.6106,-7.5899,-7.5756,-7.6437,-4.118,-4.0902,-4.1394,-4.134,-4.0951,-4.1765,-4.2216,-4.2431,-4.2564,-4.2739,-4.2988,-4.439,-4.5719,-4.6939,-4.7943,-4.8652,-4.9062,-4.9292,-4.9921,-5.0625,-5.1253,-5.2032,-5.3043,-5.4274,-5.5544,-5.6479,-5.7416,-5.8353,-5.9325,-5.9791,-6.0076,-6.0441,-6.0773,-6.1447,-6.2102,-6.3236,-6.4427,-6.5041,-6.5693,-6.6237,-6.6353,-6.65,-6.6553,-6.662,-6.662,-6.7399,-6.8488,-6.8954,-6.9979,-7.0952,-7.156,-7.1728,-7.1817,-7.1817,-7.1806,-7.1794,-7.1782,-7.1782,-7.1794,-7.1866,-7.2033,-7.2763,-7.3726,-7.4778,-7.5658,-7.6588,-7.6899,-7.6875,-7.6909,-7.6902,-7.686,-7.6878,-7.6839,-7.631,-7.5965,-7.5696,-7.5583,-7.5936,-7.6054,-7.5077,-7.539,-7.6009,-7.5994,-7.5852,-7.5082,-7.4466,-7.4887,-7.5149,-7.4597,-7.42,-7.3804,-7.3452,-7.3555,-7.4047,-7.4359,-7.5065,-7.5752,-7.6183,-7.6611,-7.6684,-7.6754,-7.6687,-7.6687,-7.6669,-7.6708,-7.6669,-7.669,-7.6633,-7.6553,-7.6466,-7.6397,-7.6374,-7.6095,-7.5947,-7.6683,-4.2542,-4.1772,-4.2525,-4.2164,-4.1394,-4.2051,-4.2492,-4.267,-4.2644,-4.303,-4.3578,-4.4576,-4.5498,-4.6463,-4.7175,-4.7882,-4.8221,-4.8485,-4.9005,-4.9818,-5.0818,-5.1558,-5.2638,-5.3829,-5.5133,-5.6292,-5.704,-5.7903,-5.9253,-5.9515,-5.9794,-6.0121,-6.0559,-6.1296,-6.253,-6.4131,-6.5281,-6.5701,-6.6081,-6.6508,-6.6508,-6.6524,-6.6524,-6.6553,-6.6606,-6.7461,-6.8578,-6.9214,-7.0058,-7.1083,-7.1758,-7.1782,-7.1782,-7.1782,-7.1782,-7.1758,-7.1784,-7.1732,-7.1745,-7.1809,-7.2078,-7.2534,-7.3742,-7.4611,-7.5396,-7.6388,-7.6951,-7.7009,-7.7091,-7.7169,-7.7091,-7.7073,-7.6711,-7.618,-7.6614,-7.6466,-7.5919,-7.5962,-7.6316,-7.6241,-7.6639,-7.6757,-7.6714,-7.6544,-7.6267,-7.5703,-7.5937,-7.5937,-7.5321,-7.5043,-7.4954,-7.4603,-7.4408,-7.4942,-7.556,-7.5998,-7.6352,-7.6487,-7.6793,-7.678,-7.6816,-7.6754,-7.6721,-7.6743,-7.6743,-7.6687,-7.6669,-7.6671,-7.6633,-7.6594,-7.657,-7.656,-7.6993,-7.6916,-7.7083,-4.433,-4.3709,-4.4561,-4.3386,-4.1363,-4.1619,-4.2078,-4.2463,-4.2406,-4.2781,-4.359,-4.4587,-4.5462,-4.6236,-4.6888,-4.7594,-4.8075,-4.8265,-4.8748,-4.9561,-5.0674,-5.1564,-5.238,-5.3458,-5.4911,-5.6068,-5.674,-5.764,-5.9177,-5.9403,-5.9583,-5.9999,-6.0571,-6.1338,-6.2348,-6.4154,-6.5502,-6.6251,-6.6439,-6.6454,-6.6508,-6.6538,-6.6538,-6.6524,-6.6538,-6.7408,-6.8715,-6.9109,-7.0017,-7.1379,-7.1679,-7.1693,-7.1693,-7.1693,-7.1693,-7.1718,-7.1718,-7.1718,-7.1757,-7.1784,-7.1991,-7.2432,-7.3756,-7.4613,-7.4898,-7.5874,-7.7036,-7.7017,-7.7062,-7.7101,-7.7101,-7.7023,-7.6549,-7.6471,-7.6906,-7.6945,-7.6404,-7.6219,-7.6614,-7.6775,-7.6922,-7.7078,-7.7106,-7.7108,-7.7105,-7.6992,-7.7109,-7.6758,-7.6055,-7.5884,-7.5876,-7.5746,-7.5433,-7.5657,-7.6197,-7.6653,-7.6942,-7.7004,-7.6975,-7.6921,-7.6885,-7.6844,-7.6801,-7.6809,-7.6777,-7.6738,-7.6704,-7.6726,-7.7156,-7.7545,-7.6901,-7.6876,-7.7427,-7.7896,-7.8039,-4.4699,-4.4989,-4.5285,-4.4919,-4.4035,-4.3971,-4.3996,-4.3965,-4.3616,-4.3376,-4.3607,-4.4776,-4.5619,-4.6282,-4.7311,-4.8049,-4.8306,-4.8636,-4.9044,-4.9047,-5.0527,-5.1194,-5.2047,-5.3312,-5.4801,-5.599,-5.6625,-5.7411,-5.902,-5.929,-5.951,-5.9895,-6.1179,-6.2375,-6.3338,-6.4732,-6.6032,-6.626,-6.6351,-6.6406,-6.6493,-6.6524,-6.6524,-6.6508,-6.6524,-6.734,-6.8839,-6.8963,-6.9872,-7.1311,-7.1573,-7.1626,-7.1665,-7.1704,-7.169,-7.169,-7.1714,-7.1972,-7.2322,-7.257,-7.2599,-7.3119,-7.3989,-7.482,-7.4652,-7.6001,-7.6692,-7.7004,-7.7051,-7.7059,-7.7075,-7.7028,-7.6755,-7.6747,-7.6989,-7.695,-7.6724,-7.6822,-7.7029,-7.6995,-7.7101,-7.7101,-7.713,-7.7145,-7.7187,-7.7226,-7.7226,-7.7226,-7.668,-7.6719,-7.6714,-7.67,-7.6575,-7.6599,-7.6822,-7.6972,-7.7082,-7.7067,-7.7004,-7.6975,-7.6944,-7.6909,-7.6871,-7.6883,-7.6801,-7.677,-7.6932,-7.7304,-7.828,-7.8592,-7.8049,-7.7853,-7.8374,-7.8734,-7.8858,-4.5919,-4.625,-4.6468,-4.6579,-4.6543,-4.5688,-4.5131,-4.4877,-4.4665,-4.427,-4.4127,-4.5443,-4.6324,-4.6874,-4.7831,-4.8678,-4.8643,-4.886,-4.89,-4.8938,-5.0673,-5.134,-5.2043,-5.3308,-5.4987,-5.6107,-5.6777,-5.7486,-5.914,-5.9326,-5.9798,-6.0703,-6.201,-6.2985,-6.4012,-6.518,-6.6084,-6.6206,-6.6301,-6.6338,-6.6406,-6.6439,-6.6439,-6.6493,-6.6664,-6.7208,-6.8218,-6.8894,-6.9468,-7.0697,-7.1257,-7.1373,-7.1529,-7.163,-7.163,-7.1653,-7.1708,-7.208,-7.2624,-7.3324,-7.3371,-7.3542,-7.4841,-7.5206,-7.504,-7.613,-7.6638,-7.6948,-7.7011,-7.7043,-7.7034,-7.6985,-7.7004,-7.6956,-7.6965,-7.6926,-7.6973,-7.7036,-7.7082,-7.7089,-7.7101,-7.7101,-7.7101,-7.7126,-7.7144,-7.7187,-7.7226,-7.7226,-7.7226,-7.7187,-7.7187,-7.7109,-7.707,-7.697,-7.6961,-7.7023,-7.7095,-7.7082,-7.7067,-7.7051,-7.6995,-7.6975,-7.6944,-7.6948,-7.691,-7.6986,-7.733,-7.7882,-7.8703,-7.9328,-7.9427,-7.9369,-7.9486,-7.958,-7.9709,-4.7905,-4.7572,-4.8088,-4.8495,-4.8383,-4.6654,-4.5405,-4.4638,-4.537,-4.526,-4.4747,-4.6433,-4.7166,-4.7459,-4.8342,-4.8818,-4.8964,-4.8974,-4.9049,-4.952,-5.0979,-5.1462,-5.2394,-5.3631,-5.5348,-5.6361,-5.715,-5.8012,-5.9465,-5.9673,-6.0247,-6.1355,-6.2413,-6.3483,-6.4552,-6.5394,-6.5997,-6.6165,-6.6205,-6.6283,-6.6373,-6.6389,-6.6406,-6.6439,-6.6625,-6.7052,-6.7713,-6.8101,-6.8979,-6.9817,-7.0421,-7.0852,-7.1203,-7.1494,-7.1532,-7.1568,-7.1564,-7.2086,-7.2785,-7.3523,-7.4067,-7.42,-7.4933,-7.5338,-7.5688,-7.6155,-7.6653,-7.684,-7.6922,-7.6923,-7.696,-7.6955,-7.6985,-7.6985,-7.6995,-7.6995,-7.6995,-7.7004,-7.7012,-7.7067,-7.7089,-7.7095,-7.7095,-7.7117,-7.7133,-7.7148,-7.7187,-7.7226,-7.7226,-7.7226,-7.7187,-7.7187,-7.7148,-7.7148,-7.7133,-7.7117,-7.7101,-7.7095,-7.7134,-7.7121,-7.7067,-7.7215,-7.7385,-7.7404,-7.7139,-7.7326,-7.7944,-7.8442,-7.8915,-7.952,-8.0183,-8.0592,-8.0612,-8.0474,-8.0605,-4.7905,-4.8347,-4.9196,-4.9233,-4.875,-4.816,-4.7198,-4.612,-4.6163,-4.6049,-4.6174,-4.7248,-4.7798,-4.8034,-4.8851,-4.9145,-4.93,-4.9459,-4.9728,-5.0413,-5.1412,-5.2134,-5.3182,-5.4495,-5.5993,-5.697,-5.7758,-5.8509,-5.9484,-5.9861,-6.0951,-6.2395,-6.2758,-6.3882,-6.4872,-6.5705,-6.5913,-6.6123,-6.6144,-6.6225,-6.632,-6.6355,-6.6389,-6.6422,-6.6493,-6.6959,-6.7557,-6.7697,-6.8613,-6.9856,-7.0192,-7.0621,-7.1417,-7.1494,-7.1513,-7.1513,-7.1609,-7.1881,-7.2657,-7.3063,-7.3684,-7.4614,-7.5232,-7.5348,-7.5659,-7.6107,-7.6612,-7.6726,-7.676,-7.6809,-7.6844,-7.6897,-7.6933,-7.6994,-7.7004,-7.7004,-7.7004,-7.7004,-7.7014,-7.7051,-7.7075,-7.7089,-7.7089,-7.7101,-7.7122,-7.713,-7.7187,-7.7265,-7.7265,-7.7265,-7.7226,-7.7226,-7.7187,-7.7187,-7.7148,-7.7133,-7.7117,-7.7101,-7.7218,-7.7414,-7.7681,-7.7863,-7.7972,-7.8026,-7.7989,-7.8351,-7.8893,-7.9291,-7.9548,-8.0254,-8.0919,-8.1406,-8.1737,-8.1407,-8.1191,-4.8305,-4.8857,-4.934,-4.9303,-4.8969,-4.9294,-4.8729,-4.7681,-4.7136,-4.6936,-4.6899,-4.7709,-4.8243,-4.8503,-4.9181,-4.9625,-4.9692,-5.0191,-5.05,-5.084,-5.2067,-5.2891,-5.3989,-5.5231,-5.6398,-5.7377,-5.8242,-5.9033,-5.9809,-6.0332,-6.1218,-6.2306,-6.282,-6.3962,-6.4962,-6.5576,-6.5928,-6.608,-6.6144,-6.6185,-6.6264,-6.6338,-6.6338,-6.6389,-6.6461,-6.6943,-6.7542,-6.7509,-6.8225,-6.9506,-6.9709,-7.0098,-7.0893,-7.1184,-7.1455,-7.1514,-7.1921,-7.223,-7.2849,-7.3276,-7.3954,-7.4632,-7.5172,-7.5405,-7.5698,-7.6146,-7.6458,-7.6633,-7.6652,-7.6651,-7.6738,-7.6816,-7.691,-7.6999,-7.6999,-7.6999,-7.6999,-7.6999,-7.6994,-7.7034,-7.7059,-7.7075,-7.7089,-7.7095,-7.7296,-7.7625,-7.7794,-7.7812,-7.7617,-7.7383,-7.7305,-7.7226,-7.7226,-7.7187,-7.7187,-7.7148,-7.713,-7.7273,-7.7687,-7.7921,-7.8233,-7.8618,-7.8884,-7.9018,-7.9062,-7.94,-7.9689,-7.992,-8.0255,-8.0886,-8.132,-8.1653,-8.1852,-8.1776,-8.164,-4.8964,-4.9243,-4.9071,-4.9187,-4.9222,-4.9915,-4.9795,-4.9305,-4.8562,-4.7866,-4.7567,-4.8077,-4.8636,-4.9002,-4.9559,-4.9879,-5.0058,-5.0513,-5.0978,-5.1233,-5.2607,-5.3546,-5.441,-5.5579,-5.6902,-5.773,-5.8625,-5.9607,-6.0207,-6.0648,-6.1006,-6.1838,-6.2746,-6.3783,-6.4792,-6.5587,-6.5951,-6.6102,-6.6123,-6.6144,-6.6225,-6.6245,-6.6284,-6.6355,-6.6506,-6.6755,-6.7199,-6.7315,-6.7332,-6.8441,-6.9261,-6.9633,-7.0409,-7.0968,-7.1278,-7.1531,-7.19,-7.2211,-7.2559,-7.2983,-7.354,-7.4211,-7.4826,-7.5144,-7.5461,-7.6146,-7.6536,-7.6633,-7.6652,-7.6669,-7.6754,-7.6801,-7.6858,-7.6975,-7.6999,-7.6999,-7.6999,-7.705,-7.716,-7.719,-7.7129,-7.7223,-7.7628,-7.7674,-7.7954,-7.8272,-7.8523,-7.8503,-7.8359,-7.7969,-7.7617,-7.7422,-7.7226,-7.7226,-7.7187,-7.7187,-7.7148,-7.7368,-7.7815,-7.839,-7.8702,-7.9287,-7.9906,-7.9885,-7.986,-8.0105,-8.0413,-8.0533,-8.0701,-8.1165,-8.1563,-8.1859,-8.1943,-8.1929,-8.1892,-4.9193,-4.9785,-4.9783,-5.0224,-5.0735,-4.9907,-4.9861,-5.023,-5.0145,-4.9602,-4.9093,-4.9227,-4.9457,-4.9803,-4.9906,-5.0073,-5.0266,-5.0634,-5.1205,-5.1889,-5.3008,-5.4013,-5.5031,-5.6469,-5.7516,-5.8322,-5.9228,-6.02,-6.0559,-6.0825,-6.1156,-6.2002,-6.2872,-6.3753,-6.4594,-6.5465,-6.6019,-6.6144,-6.6144,-6.6144,-6.6205,-6.6245,-6.6283,-6.632,-6.6433,-6.6545,-6.695,-6.7315,-6.7914,-6.8924,-6.9649,-7.0312,-7.1066,-7.1197,-7.1291,-7.139,-7.1644,-7.1959,-7.2134,-7.25,-7.2824,-7.32,-7.3721,-7.4444,-7.5167,-7.6143,-7.663,-7.6651,-7.669,-7.6704,-7.6754,-7.6801,-7.6844,-7.6923,-7.6999,-7.6999,-7.6999,-7.7139,-7.7277,-7.7297,-7.7246,-7.7606,-7.8011,-7.8331,-7.865,-7.893,-7.9248,-7.9377,-7.9387,-7.9101,-7.832,-7.7969,-7.7344,-7.7265,-7.7226,-7.7187,-7.7187,-7.7305,-7.7677,-7.8367,-7.9209,-8.0185,-8.0999,-8.0712,-8.0696,-8.0865,-8.0914,-8.0825,-8.1064,-8.1494,-8.17,-8.1944,-8.2069,-8.2076,-8.1986,-4.9152,-4.9668,-5.0145,-5.0328,-5.0434,-5.0385,-5.03,-5.0151,-5.0885,-5.083,-5.035,-5.0598,-5.0903,-5.0919,-5.0719,-5.0582,-5.0685,-5.0836,-5.1662,-5.2488,-5.3315,-5.4282,-5.5645,-5.7098,-5.7685,-5.8464,-5.9805,-6.0647,-6.0781,-6.0819,-6.1166,-6.1766,-6.266,-6.3669,-6.4386,-6.5324,-6.6123,-6.6144,-6.6165,-6.6185,-6.6185,-6.6225,-6.6264,-6.6283,-6.6376,-6.6528,-6.6872,-6.7315,-6.7875,-6.8901,-6.9783,-7.0582,-7.1145,-7.1355,-7.1291,-7.1446,-7.1661,-7.1915,-7.1979,-7.2036,-7.2246,-7.2695,-7.3002,-7.3872,-7.4742,-7.5648,-7.6388,-7.6449,-7.6669,-7.6704,-7.6786,-7.6844,-7.6885,-7.696,-7.6999,-7.6999,-7.6999,-7.705,-7.715,-7.717,-7.7424,-7.8057,-7.8339,-7.8464,-7.8901,-7.9916,-8.0204,-8.0218,-8.0224,-8.0191,-7.943,-7.8699,-7.8198,-7.75,-7.7226,-7.7226,-7.7187,-7.7383,-7.7695,-7.9196,-8.0509,-8.1435,-8.2053,-8.157,-8.136,-8.146,-8.148,-8.1353,-8.1399,-8.1753,-8.1883,-8.2026,-8.2114,-8.2255,-8.2403,-4.903,-4.9276,-5.0127,-5.009,-4.95,-5.082,-5.0885,-5.0172,-5.1287,-5.172,-5.1496,-5.2235,-5.2608,-5.2237,-5.1901,-5.1713,-5.1637,-5.1697,-5.2379,-5.313,-5.3843,-5.48,-5.5974,-5.7263,-5.8092,-5.8961,-6.0123,-6.058,-6.0804,-6.0843,-6.092,-6.1189,-6.2221,-6.3461,-6.4029,-6.5076,-6.6144,-6.6165,-6.6185,-6.6185,-6.6185,-6.6185,-6.6225,-6.6264,-6.6397,-6.6821,-6.7066,-6.7526,-6.7814,-6.8785,-7.0033,-7.0813,-7.1223,-7.1435,-7.1355,-7.1451,-7.1717,-7.2052,-7.2289,-7.2305,-7.2508,-7.2755,-7.2912,-7.3375,-7.4221,-7.4859,-7.5624,-7.628,-7.6466,-7.6754,-7.683,-7.6871,-7.6948,-7.6972,-7.6999,-7.6999,-7.6999,-7.7011,-7.7061,-7.7121,-7.7599,-7.8272,-7.8711,-7.875,-7.9578,-8.0592,-8.1039,-8.1055,-8.1031,-8.0946,-8.0569,-7.9923,-7.9348,-7.8594,-7.7734,-7.7695,-7.789,-7.789,-7.8476,-8.0261,-8.1652,-8.2032,-8.2254,-8.2156,-8.2023,-8.1937,-8.1948,-8.185,-8.1984,-8.1999,-8.2026,-8.2091,-8.2234,-8.244,-8.2985,-4.8927,-4.8999,-4.9852,-5.0213,-5.0295,-5.0097,-5.0491,-5.1631,-5.1956,-5.2462,-5.3021,-5.3762,-5.3812,-5.2531,-5.2379,-5.2346,-5.2501,-5.2547,-5.313,-5.3996,-5.4311,-5.5293,-5.6506,-5.7757,-5.8909,-5.984,-6.0527,-6.0727,-6.0888,-6.0827,-6.0866,-6.107,-6.2673,-6.3566,-6.3879,-6.5041,-6.6165,-6.6185,-6.6185,-6.6185,-6.6185,-6.6185,-6.6185,-6.6245,-6.634,-6.6493,-6.6877,-6.7992,-6.859,-6.9406,-7.0399,-7.118,-7.1454,-7.1475,-7.1435,-7.1394,-7.1683,-7.1763,-7.1921,-7.2013,-7.2135,-7.2146,-7.2328,-7.2635,-7.3258,-7.362,-7.4599,-7.5794,-7.6157,-7.6741,-7.6909,-7.6936,-7.6999,-7.6999,-7.6999,-7.7011,-7.6983,-7.7061,-7.715,-7.7238,-7.7443,-7.834,-7.9286,-7.9754,-8.0612,-8.1353,-8.1607,-8.1624,-8.1663,-8.1663,-8.1546,-8.1016,-8.0407,-7.9687,-7.8867,-7.8867,-7.8984,-7.8867,-7.9101,-8.0545,-8.1592,-8.2115,-8.226,-8.2248,-8.2226,-8.2132,-8.2153,-8.2133,-8.2084,-8.2062,-8.2077,-8.2143,-8.2325,-8.2832,-8.352]}]]